Darstellungsparameter: Aktuell verwendete Einstellungen:
Skalierung der Graphiken ... ?
xyx+y,   Skalierungsfaktor:      Skalierung: Modus: x, Faktor: 1
Darstellungszeitraum ... ?
Vom - - bis: - -   Zeitraum: 02.10.2019 - 31.03.2020
Min/Max/Avg-Anzeige ... ?
Zeige MMA aktuell
Zeige MMA Monat
Zeige MMA alles
Zeige --A aktuell
Zeige --A Monat
Zeige --A alles
Keine MMA-Anzeige
MMA:
Keine MMA-Graphiken
MMA-Basis: 02.10.2019 - 31.03.2020
Quicknavigation für Darstellung... ?
Tage:      1T, 2T, 3T, 5T -1T -2T -3T -5T +1T +2T +3T +5T
Wochen: 1W, 2W, 3W -1W -2W -3W +1W +2W +3W
Monate: 1M, 3M, 6M -1M -3M -6M +1M +3M +6M
Jahre:    1J, 3J, 5J, 10J -1J -3J -5J -10J +1J +3J +5J +10J
Nutze für die Darstellung ... ?
Originaldaten oder Mittelwerte auf ...
Stundenbasis Tagesbasis Wochenbasis
Monatsbasis Jahresbasis      Datenbasis: Original-Daten
Darstellen als:
Statistik (Auto) Statistik J:M      Darstellung:
Zur Graphik,    zurück zur Übersicht aller Sensoren.
 
Tabellarische Datenbersicht: ?
 
Sensor: Nr:Datum:Temp:Feuchte:
Aussen-T/F 1 02-10-2019 00:05:18 14.8 C 29 %
2 02-10-2019 00:15:17 14.8 C 29 %
3 02-10-2019 00:25:17 14.7 C 30 %
4 02-10-2019 00:35:18 14.8 C 30 %
5 02-10-2019 00:45:17 14.9 C 28 %
6 02-10-2019 00:55:17 15.2 C 27 %
7 02-10-2019 01:05:17 15.3 C 26 %
8 02-10-2019 01:15:17 15.2 C 26 %
9 02-10-2019 01:25:17 15.1 C 26 %
10 02-10-2019 01:35:18 15.2 C 27 %
11 02-10-2019 01:45:17 15.1 C 26 %
12 02-10-2019 01:55:17 15.1 C 26 %
13 02-10-2019 02:05:18 14.7 C 28 %
14 02-10-2019 02:15:17 14.5 C 29 %
15 02-10-2019 02:25:17 14.2 C 30 %
16 02-10-2019 02:35:17 14.3 C 31 %
17 02-10-2019 02:45:17 14.5 C 30 %
18 02-10-2019 02:55:17 14.8 C 28 %
19 02-10-2019 03:05:18 14.9 C 27 %
20 02-10-2019 03:15:17 15 C 26 %
21 02-10-2019 03:25:17 15 C 26 %
22 02-10-2019 03:35:18 15 C 26 %
23 02-10-2019 03:45:17 15 C 26 %
24 02-10-2019 03:55:17 15 C 25 %
25 02-10-2019 04:05:18 14.9 C 26 %
Sensor: Nr:Datum:Temp:Feuchte:
Aussen-T/F 26 02-10-2019 04:15:17 15.2 C 25 %
27 02-10-2019 04:25:17 15.1 C 25 %
28 02-10-2019 04:35:18 15 C 25 %
29 02-10-2019 04:45:17 14.7 C 26 %
30 02-10-2019 04:55:17 14.8 C 26 %
31 02-10-2019 05:05:18 14.6 C 26 %
32 02-10-2019 05:15:17 14.4 C 27 %
33 02-10-2019 05:25:17 14.2 C 27 %
34 02-10-2019 05:35:18 14.1 C 27 %
35 02-10-2019 05:45:17 13.8 C 29 %
36 02-10-2019 05:55:17 13.8 C 27 %
37 02-10-2019 06:05:17 13.5 C 27 %
38 02-10-2019 06:15:17 13.5 C 29 %
39 02-10-2019 06:25:17 13.3 C 29 %
40 02-10-2019 06:35:17 12.6 C 27 %
41 02-10-2019 06:45:17 12.1 C 28 %
42 02-10-2019 06:55:17 11.9 C 28 %
43 02-10-2019 07:05:18 11.5 C 29 %
44 02-10-2019 07:15:17 11.3 C 29 %
45 02-10-2019 07:25:17 11 C 29 %
46 02-10-2019 07:35:18 10.9 C 30 %
47 02-10-2019 07:45:17 10.8 C 30 %
48 02-10-2019 07:55:17 10.6 C 30 %
49 02-10-2019 08:05:18 10.4 C 30 %
50 02-10-2019 08:15:17 10.2 C 30 %
Sensor: Nr:Datum:Temp:Feuchte:
Aussen-T/F 51 02-10-2019 08:25:17 10.1 C 30 %
52 02-10-2019 08:35:17 10 C 29 %
53 02-10-2019 08:45:17 10 C 30 %
54 02-10-2019 08:55:17 9.9 C 30 %
55 02-10-2019 09:05:18 10 C 28 %
56 02-10-2019 09:15:17 10.1 C 28 %
57 02-10-2019 09:25:17 10.2 C 27 %
58 02-10-2019 09:35:18 10.4 C 26 %
59 02-10-2019 09:45:17 10.7 C 26 %
60 02-10-2019 09:55:17 10.6 C 25 %
61 02-10-2019 10:05:17 11 C 25 %
62 02-10-2019 10:15:17 11.1 C 25 %
63 02-10-2019 10:25:17 11.1 C 25 %
64 02-10-2019 10:35:17 11.2 C 25 %
65 02-10-2019 10:45:18 11.2 C 25 %
66 02-10-2019 10:55:18 11.1 C 22 %
67 02-10-2019 11:05:17 11.7 C 21 %
68 02-10-2019 11:15:18 11.3 C 20 %
69 02-10-2019 11:25:18 11.4 C 20 %
70 02-10-2019 11:35:17 11.5 C 21 %
71 02-10-2019 11:45:17 11.7 C 20 %
72 02-10-2019 11:55:17 11.8 C 20 %
73 02-10-2019 12:05:17 11.8 C 20 %
74 02-10-2019 12:15:17 11.8 C 20 %
75 02-10-2019 12:25:17 12.4 C 20 %
Sensor: Nr:Datum:Temp:Feuchte:
Aussen-T/F 76 02-10-2019 12:35:17 13 C 20 %
77 02-10-2019 12:45:17 12.4 C 20 %
78 02-10-2019 12:55:17 12.1 C 20 %
79 02-10-2019 13:05:17 12.4 C 20 %
80 02-10-2019 13:15:17 13.2 C 20 %
81 02-10-2019 13:25:17 13.3 C 20 %
82 02-10-2019 13:35:17 13.4 C 20 %
83 02-10-2019 13:45:17 13.9 C 20 %
84 02-10-2019 13:55:17 13.7 C 20 %
85 02-10-2019 14:05:18 14.7 C 20 %
86 02-10-2019 14:15:17 14.9 C 20 %
87 02-10-2019 14:25:17 13.8 C 20 %
88 02-10-2019 14:35:17 14.2 C 20 %
89 02-10-2019 14:45:17 14.1 C 20 %
90 02-10-2019 14:55:17 13.6 C 20 %
91 02-10-2019 15:05:17 14.4 C 20 %
92 02-10-2019 15:15:18 14.1 C 20 %
93 02-10-2019 15:25:18 14.4 C 20 %
94 02-10-2019 15:35:17 13.8 C 20 %
95 02-10-2019 15:45:18 13.7 C 20 %
96 02-10-2019 15:55:18 15.2 C 20 %
97 02-10-2019 16:05:17 15.3 C 20 %
98 02-10-2019 16:15:17 14.9 C 20 %
99 02-10-2019 16:25:17 17 C 20 %
100 02-10-2019 16:35:17 17.5 C 20 %
Sensor: Nr:Datum:Temp:Feuchte:
Aussen-T/F 101 02-10-2019 16:45:18 17.7 C 20 %
102 02-10-2019 16:55:18 18.2 C 20 %
103 02-10-2019 17:05:17 14.3 C 20 %
104 02-10-2019 17:15:18 17.8 C 20 %
105 02-10-2019 17:25:18 17.4 C 20 %
106 02-10-2019 17:35:17 17.4 C 20 %
107 02-10-2019 17:45:17 15.9 C 20 %
108 02-10-2019 17:55:17 13.7 C 20 %
109 02-10-2019 18:05:17 13.2 C 20 %
110 02-10-2019 18:15:17 12.9 C 20 %
111 02-10-2019 18:25:17 12.6 C 20 %
112 02-10-2019 18:35:17 12.5 C 20 %
113 02-10-2019 18:45:17 12.2 C 20 %
114 02-10-2019 18:55:17 11.7 C 20 %
115 02-10-2019 19:05:17 11.3 C 20 %
116 02-10-2019 19:15:17 10.9 C 20 %
117 02-10-2019 19:25:17 11.1 C 20 %
118 02-10-2019 19:35:17 10.8 C 20 %
119 02-10-2019 19:45:17 10.7 C 20 %
120 02-10-2019 19:55:17 9.8 C 20 %
121 02-10-2019 20:05:17 10.1 C 20 %
122 02-10-2019 20:15:17 10.2 C 20 %
123 02-10-2019 20:25:17 9.7 C 20 %
124 02-10-2019 20:35:18 9.3 C 20 %
125 02-10-2019 20:45:17 9.8 C 20 %
Sensor: Nr:Datum:Temp:Feuchte:
Aussen-T/F 126 02-10-2019 20:55:17 10 C 20 %
127 02-10-2019 21:05:17 10.4 C 20 %
128 02-10-2019 21:15:17 10.1 C 20 %
129 02-10-2019 21:25:17 9.7 C 20 %
130 02-10-2019 21:35:17 9.1 C 20 %
131 02-10-2019 21:45:17 8.6 C 20 %
132 02-10-2019 21:55:17 8.4 C 21 %
133 02-10-2019 22:05:17 8.4 C 21 %
134 02-10-2019 22:15:17 8.7 C 21 %
135 02-10-2019 22:25:17 8.4 C 21 %
136 02-10-2019 22:35:17 8.4 C 21 %
137 02-10-2019 22:45:17 7.9 C 25 %
138 02-10-2019 22:55:17 7.8 C 25 %
139 02-10-2019 23:05:18 7.8 C 25 %
140 02-10-2019 23:15:17 7.9 C 25 %
141 02-10-2019 23:25:17 8.6 C 23 %
142 02-10-2019 23:35:17 8.9 C 21 %
143 02-10-2019 23:45:17 9 C 20 %
144 02-10-2019 23:55:17 9.2 C 20 %
145 03-10-2019 00:05:18 9.1 C 20 %
146 03-10-2019 00:15:17 9.2 C 20 %
147 03-10-2019 00:25:17 9.2 C 20 %
148 03-10-2019 00:36:17 9.2 C 20 %
149 03-10-2019 00:45:17 8.7 C 23 %
150 03-10-2019 00:55:17 8.7 C 25 %
Sensor: Nr:Datum:Temp:Feuchte:
Aussen-T/F 151 03-10-2019 01:05:18 8.7 C 25 %
152 03-10-2019 01:15:17 8.7 C 23 %
153 03-10-2019 01:25:17 8.8 C 25 %
154 03-10-2019 01:35:18 9 C 21 %
155 03-10-2019 01:45:17 9.1 C 20 %
156 03-10-2019 01:55:17 9.1 C 20 %
157 03-10-2019 02:05:18 9.1 C 20 %
158 03-10-2019 02:15:17 8.9 C 23 %
159 03-10-2019 02:25:17 8.8 C 23 %
160 03-10-2019 02:36:17 8.9 C 23 %
161 03-10-2019 02:45:17 8.9 C 23 %
162 03-10-2019 02:55:17 8.4 C 25 %
163 03-10-2019 03:06:17 8.5 C 25 %
164 03-10-2019 03:15:17 8.6 C 25 %
165 03-10-2019 03:25:18 7.6 C 26 %
166 03-10-2019 03:35:17 7.6 C 27 %
167 03-10-2019 03:45:17 7.8 C 26 %
168 03-10-2019 03:55:17 7.3 C 27 %
169 03-10-2019 04:05:18 7.4 C 27 %
170 03-10-2019 04:16:17 7.4 C 27 %
171 03-10-2019 04:25:17 7.4 C 27 %
172 03-10-2019 04:36:17 7.3 C 27 %
173 03-10-2019 04:45:17 7.5 C 27 %
174 03-10-2019 04:55:17 7.2 C 27 %
175 03-10-2019 05:06:17 7.5 C 27 %
Sensor: Nr:Datum:Temp:Feuchte:
Aussen-T/F 176 03-10-2019 05:16:17 7.9 C 26 %
177 03-10-2019 05:26:17 8 C 26 %
178 03-10-2019 05:35:18 7.9 C 26 %
179 03-10-2019 05:46:17 8 C 26 %
180 03-10-2019 05:56:17 7.1 C 27 %
181 03-10-2019 06:06:18 6.8 C 29 %
182 03-10-2019 06:16:17 6.6 C 30 %
183 03-10-2019 06:26:17 6.7 C 30 %
184 03-10-2019 06:36:18 6.6 C 31 %
185 03-10-2019 06:46:17 6.8 C 30 %
186 03-10-2019 06:56:17 6.8 C 30 %
187 03-10-2019 07:06:17 6.9 C 30 %
188 03-10-2019 07:16:17 6.7 C 30 %
189 03-10-2019 07:26:17 6.8 C 30 %
190 03-10-2019 07:36:17 7 C 29 %
191 03-10-2019 07:46:18 7 C 28 %
192 03-10-2019 07:56:18 7.1 C 28 %
193 03-10-2019 08:06:17 7.3 C 28 %
194 03-10-2019 08:16:17 7.5 C 27 %
195 03-10-2019 08:26:17 7.8 C 26 %
196 03-10-2019 08:36:17 7.9 C 26 %
197 03-10-2019 08:46:17 8 C 26 %
198 03-10-2019 08:56:18 8.6 C 26 %
199 03-10-2019 09:06:17 8.9 C 25 %
200 03-10-2019 09:16:18 9.2 C 25 %
Sensor: Nr:Datum:Temp:Feuchte:
Aussen-T/F 201 03-10-2019 09:26:18 9.3 C 25 %
202 03-10-2019 09:36:17 9.6 C 25 %
203 03-10-2019 09:46:17 9.4 C 25 %
204 03-10-2019 09:56:17 9.4 C 25 %
205 03-10-2019 10:06:17 9.8 C 23 %
206 03-10-2019 10:16:17 9.8 C 23 %
207 03-10-2019 10:26:17 9.9 C 25 %
208 03-10-2019 10:36:17 10.4 C 21 %
209 03-10-2019 10:46:17 11.1 C 20 %
210 03-10-2019 10:56:17 11.5 C 20 %
211 03-10-2019 11:06:17 11.9 C 20 %
212 03-10-2019 11:16:17 12.3 C 20 %
213 03-10-2019 11:26:17 12.4 C 20 %
214 03-10-2019 11:36:17 12.5 C 20 %
215 03-10-2019 11:46:17 12.4 C 20 %
216 03-10-2019 11:56:17 12.7 C 20 %
217 03-10-2019 12:06:17 13 C 20 %
218 03-10-2019 12:16:17 12.7 C 20 %
219 03-10-2019 12:26:17 11.9 C 20 %
220 03-10-2019 12:36:17 12.1 C 20 %
221 03-10-2019 12:46:17 11.7 C 20 %
222 03-10-2019 12:56:17 11.5 C 24 %
223 03-10-2019 13:06:17 11.7 C 24 %
224 03-10-2019 13:16:16 11.2 C 25 %
225 03-10-2019 13:26:16 11.2 C 26 %
Sensor: Nr:Datum:Temp:Feuchte:
Aussen-T/F 226 03-10-2019 13:36:17 11 C 30 %
227 03-10-2019 13:46:17 11 C 30 %
228 03-10-2019 13:56:17 11 C 30 %
229 03-10-2019 14:06:16 11.3 C 29 %
230 03-10-2019 14:16:17 11.5 C 28 %
231 03-10-2019 14:26:17 11.2 C 29 %
232 03-10-2019 14:36:17 10.6 C 30 %
233 03-10-2019 14:46:17 10.5 C 31 %
234 03-10-2019 14:56:17 10.5 C 32 %
235 03-10-2019 15:06:17 10.7 C 32 %
236 03-10-2019 15:16:17 11.6 C 28 %
237 03-10-2019 15:26:17 11.8 C 27 %
238 03-10-2019 15:36:16 11.6 C 28 %
239 03-10-2019 15:46:17 11.7 C 28 %
240 03-10-2019 15:56:17 12 C 26 %
241 03-10-2019 16:06:17 12.8 C 22 %
242 03-10-2019 16:16:17 12.4 C 25 %
243 03-10-2019 16:26:17 11.8 C 26 %
244 03-10-2019 16:36:17 11.1 C 28 %
245 03-10-2019 16:46:17 11.6 C 27 %
246 03-10-2019 16:56:17 12.1 C 26 %
247 03-10-2019 17:06:17 11.6 C 28 %
248 03-10-2019 17:16:16 11.4 C 28 %
249 03-10-2019 17:26:16 11.4 C 29 %
250 03-10-2019 17:36:16 11.4 C 29 %
Sensor: Nr:Datum:Temp:Feuchte:
Aussen-T/F 251 03-10-2019 17:46:16 10.8 C 30 %
252 03-10-2019 17:56:16 10.7 C 31 %
253 03-10-2019 18:06:17 10.5 C 30 %
254 03-10-2019 18:16:16 10.4 C 31 %
255 03-10-2019 18:26:16 10.1 C 31 %
256 03-10-2019 18:36:17 10 C 30 %
257 03-10-2019 18:46:16 10 C 30 %
258 03-10-2019 18:56:16 9.8 C 32 %
259 03-10-2019 19:06:17 9.5 C 31 %
260 03-10-2019 19:16:16 9.5 C 31 %
261 03-10-2019 19:26:16 9.4 C 32 %
262 03-10-2019 19:36:17 9.3 C 32 %
263 03-10-2019 19:46:17 9.2 C 34 %
264 03-10-2019 19:56:17 9 C 34 %
265 03-10-2019 20:06:16 9 C 35 %
266 03-10-2019 20:16:16 8.8 C 35 %
267 03-10-2019 20:26:16 8.7 C 35 %
268 03-10-2019 20:36:16 8.8 C 35 %
269 03-10-2019 20:46:17 8.7 C 35 %
270 03-10-2019 20:56:17 8.7 C 35 %
271 03-10-2019 21:06:17 8.6 C 35 %
272 03-10-2019 21:16:16 8.5 C 35 %
273 03-10-2019 21:26:16 8.3 C 35 %
274 03-10-2019 21:36:17 8.3 C 36 %
275 03-10-2019 21:46:16 8.3 C 36 %
Sensor: Nr:Datum:Temp:Feuchte:
Aussen-T/F 276 03-10-2019 21:56:16 8.2 C 35 %
277 03-10-2019 22:06:17 8.1 C 35 %
278 03-10-2019 22:16:16 7.9 C 36 %
279 03-10-2019 22:26:16 7.9 C 36 %
280 03-10-2019 22:36:16 7.9 C 36 %
281 03-10-2019 22:46:17 7.7 C 36 %
282 03-10-2019 22:56:18 7.8 C 36 %
283 03-10-2019 23:06:16 7.9 C 36 %
284 03-10-2019 23:16:17 7.9 C 36 %
285 03-10-2019 23:26:17 7.7 C 36 %
286 03-10-2019 23:36:16 7.5 C 36 %
287 03-10-2019 23:46:17 7.7 C 36 %
288 03-10-2019 23:56:17 7.7 C 36 %
289 04-10-2019 00:06:16 7.6 C 36 %
290 04-10-2019 00:16:16 7.8 C 36 %
291 04-10-2019 00:26:16 7.8 C 36 %
292 04-10-2019 00:36:16 7.5 C 35 %
293 04-10-2019 00:46:16 7.4 C 35 %
294 04-10-2019 00:56:16 7.4 C 35 %
295 04-10-2019 01:06:16 7.6 C 36 %
296 04-10-2019 01:16:16 7.7 C 36 %
297 04-10-2019 01:26:16 7.8 C 36 %
298 04-10-2019 01:36:16 7.8 C 36 %
299 04-10-2019 01:46:16 7.8 C 36 %
300 04-10-2019 01:56:16 7.8 C 36 %
Sensor: Nr:Datum:Temp:Feuchte:
Aussen-T/F 301 04-10-2019 02:06:16 7.8 C 36 %
302 04-10-2019 02:16:16 7.6 C 35 %
303 04-10-2019 02:26:16 7.6 C 35 %
304 04-10-2019 02:36:17 7.6 C 36 %
305 04-10-2019 02:46:17 7.6 C 36 %
306 04-10-2019 02:56:17 7.6 C 36 %
307 04-10-2019 03:06:18 7.6 C 36 %
308 04-10-2019 03:16:17 7.6 C 36 %
309 04-10-2019 03:26:17 7.6 C 36 %
310 04-10-2019 03:36:17 7.5 C 36 %
311 04-10-2019 03:46:17 7.4 C 35 %
312 04-10-2019 03:56:17 7.4 C 35 %
313 04-10-2019 04:06:17 7.3 C 36 %
314 04-10-2019 04:16:18 7.1 C 35 %
315 04-10-2019 04:26:18 7 C 35 %
316 04-10-2019 04:36:17 7 C 36 %
317 04-10-2019 04:46:17 7.3 C 36 %
318 04-10-2019 04:56:17 7.3 C 36 %
319 04-10-2019 05:06:18 7.3 C 36 %
320 04-10-2019 05:16:17 7.5 C 36 %
321 04-10-2019 05:26:17 7.5 C 36 %
322 04-10-2019 05:36:17 7.5 C 36 %
323 04-10-2019 05:46:17 7.5 C 35 %
324 04-10-2019 05:56:17 7.5 C 36 %
325 04-10-2019 06:06:18 7.4 C 35 %
Sensor: Nr:Datum:Temp:Feuchte:
Aussen-T/F 326 04-10-2019 06:16:17 7.4 C 35 %
327 04-10-2019 06:26:17 7.3 C 35 %
328 04-10-2019 06:36:17 7.5 C 36 %
329 04-10-2019 06:46:17 7.6 C 35 %
330 04-10-2019 06:56:17 7.5 C 35 %
331 04-10-2019 07:06:18 7.6 C 34 %
332 04-10-2019 07:16:17 7.5 C 35 %
333 04-10-2019 07:26:17 7.8 C 33 %
334 04-10-2019 07:36:18 7.8 C 34 %
335 04-10-2019 07:46:17 7.8 C 34 %
336 04-10-2019 07:56:17 8.1 C 32 %
337 04-10-2019 08:06:17 8.1 C 32 %
338 04-10-2019 08:16:17 8.3 C 32 %
339 04-10-2019 08:26:17 8.2 C 33 %
340 04-10-2019 08:36:17 8.2 C 33 %
341 04-10-2019 08:46:17 8.2 C 35 %
342 04-10-2019 08:56:17 8.1 C 35 %
343 04-10-2019 09:06:17 8.1 C 34 %
344 04-10-2019 09:16:17 8.4 C 35 %
345 04-10-2019 09:26:17 8.4 C 35 %
346 04-10-2019 09:36:17 8.4 C 35 %
347 04-10-2019 09:46:17 8.4 C 35 %
348 04-10-2019 09:56:17 8.5 C 35 %
349 04-10-2019 10:06:17 8.5 C 35 %
350 04-10-2019 10:16:17 8.7 C 34 %
Sensor: Nr:Datum:Temp:Feuchte:
Aussen-T/F 351 04-10-2019 10:26:17 8.8 C 33 %
352 04-10-2019 10:36:17 9 C 33 %
353 04-10-2019 10:46:17 9.2 C 32 %
354 04-10-2019 10:56:17 9.4 C 31 %
355 04-10-2019 11:06:17 9.4 C 31 %
356 04-10-2019 11:16:17 9.4 C 31 %
357 04-10-2019 11:26:17 9.7 C 31 %
358 04-10-2019 11:36:17 9.6 C 31 %
359 04-10-2019 11:46:17 10 C 30 %
360 04-10-2019 11:56:17 10.4 C 31 %
361 04-10-2019 12:06:18 10.5 C 30 %
362 04-10-2019 12:16:17 10.6 C 30 %
363 04-10-2019 12:26:17 10.8 C 30 %
364 04-10-2019 12:36:18 10.8 C 30 %
365 04-10-2019 12:46:17 10.9 C 30 %
366 04-10-2019 12:56:17 11 C 29 %
367 04-10-2019 13:06:17 11.3 C 29 %
368 04-10-2019 13:16:17 11.1 C 29 %
369 04-10-2019 13:26:17 11.2 C 29 %
370 04-10-2019 13:36:17 11.7 C 29 %
371 04-10-2019 13:46:18 12.1 C 27 %
372 04-10-2019 13:56:18 12.9 C 27 %
373 04-10-2019 14:06:17 13.4 C 25 %
374 04-10-2019 14:16:17 13.7 C 25 %
375 04-10-2019 14:26:17 14.4 C 22 %
Sensor: Nr:Datum:Temp:Feuchte:
Aussen-T/F 376 04-10-2019 14:36:17 13.9 C 23 %
377 04-10-2019 14:46:17 13.9 C 23 %
378 04-10-2019 14:56:17 13.7 C 24 %
379 04-10-2019 15:06:17 14.1 C 23 %
380 04-10-2019 15:16:17 13.6 C 23 %
381 04-10-2019 15:26:17 13.6 C 23 %
382 04-10-2019 15:36:17 14.1 C 22 %
383 04-10-2019 15:46:17 14 C 23 %
384 04-10-2019 15:56:17 14.2 C 23 %
385 04-10-2019 16:06:17 14.1 C 24 %
386 04-10-2019 16:16:17 13.8 C 25 %
387 04-10-2019 16:26:17 13.4 C 26 %
388 04-10-2019 16:36:17 13.4 C 26 %
389 04-10-2019 16:46:17 13.1 C 27 %
390 04-10-2019 16:56:17 12.7 C 30 %
391 04-10-2019 17:06:18 12.6 C 31 %
392 04-10-2019 17:16:17 12.5 C 31 %
393 04-10-2019 17:26:17 12.5 C 31 %
394 04-10-2019 17:36:17 12.5 C 31 %
395 04-10-2019 17:46:17 12.2 C 31 %
396 04-10-2019 17:56:17 12.1 C 33 %
397 04-10-2019 18:06:18 11.8 C 34 %
398 04-10-2019 18:16:17 11.6 C 33 %
399 04-10-2019 18:26:17 11.4 C 31 %
400 04-10-2019 18:36:18 11.2 C 32 %
Sensor: Nr:Datum:Temp:Feuchte:
Aussen-T/F 401 04-10-2019 18:46:17 11.2 C 33 %
402 04-10-2019 18:56:17 11.1 C 33 %
403 04-10-2019 19:06:17 11.1 C 33 %
404 04-10-2019 19:16:17 11.1 C 34 %
405 04-10-2019 19:26:17 11.3 C 33 %
406 04-10-2019 19:36:17 11.2 C 34 %
407 04-10-2019 19:46:18 11.2 C 35 %
408 04-10-2019 19:56:18 11.7 C 32 %
409 04-10-2019 20:06:17 11.3 C 32 %
410 04-10-2019 20:16:17 11.5 C 31 %
411 04-10-2019 20:26:17 11.5 C 30 %
412 04-10-2019 20:36:17 11.2 C 31 %
413 04-10-2019 20:46:17 11.2 C 32 %
414 04-10-2019 20:56:17 11.3 C 32 %
415 04-10-2019 21:06:18 11.4 C 32 %
416 04-10-2019 21:16:17 11.4 C 32 %
417 04-10-2019 21:26:17 11.8 C 30 %
418 04-10-2019 21:36:18 12.1 C 28 %
419 04-10-2019 21:46:17 11.9 C 30 %
420 04-10-2019 21:56:17 11.6 C 30 %
421 04-10-2019 22:06:18 11.8 C 30 %
422 04-10-2019 22:16:17 11.7 C 30 %
423 04-10-2019 22:26:17 11.6 C 30 %
424 04-10-2019 22:36:18 11.6 C 30 %
425 04-10-2019 22:46:17 11.5 C 30 %
Sensor: Nr:Datum:Temp:Feuchte:
Aussen-T/F 426 04-10-2019 22:56:17 11.5 C 30 %
427 04-10-2019 23:06:18 11.4 C 31 %
428 04-10-2019 23:16:17 11.7 C 30 %
429 04-10-2019 23:26:17 12.1 C 28 %
430 04-10-2019 23:36:18 12.2 C 28 %
431 04-10-2019 23:46:17 12.2 C 28 %
432 04-10-2019 23:56:17 12.1 C 28 %
433 05-10-2019 00:06:18 12.4 C 27 %
434 05-10-2019 00:16:17 11.9 C 28 %
435 05-10-2019 00:26:17 12.3 C 26 %
436 05-10-2019 00:36:17 12.2 C 27 %
437 05-10-2019 00:46:17 12 C 27 %
438 05-10-2019 00:56:17 12.1 C 27 %
439 05-10-2019 01:06:18 12 C 27 %
440 05-10-2019 01:16:17 11.8 C 29 %
441 05-10-2019 01:26:17 11.8 C 28 %
442 05-10-2019 01:36:18 11.9 C 28 %
443 05-10-2019 01:46:17 12.2 C 27 %
444 05-10-2019 01:56:17 11.6 C 28 %
445 05-10-2019 02:06:17 12.1 C 27 %
446 05-10-2019 02:16:17 12.3 C 26 %
447 05-10-2019 02:26:17 12.4 C 26 %
448 05-10-2019 02:36:17 12.2 C 26 %
449 05-10-2019 02:46:18 12.2 C 26 %
450 05-10-2019 02:56:18 12.2 C 26 %
Sensor: Nr:Datum:Temp:Feuchte:
Aussen-T/F 451 05-10-2019 03:06:17 11.8 C 28 %
452 05-10-2019 03:16:17 11.6 C 29 %
453 05-10-2019 03:26:17 11.5 C 30 %
454 05-10-2019 03:36:17 11.4 C 30 %
455 05-10-2019 03:46:17 11.3 C 30 %
456 05-10-2019 03:56:17 11.2 C 30 %
457 05-10-2019 04:06:18 11 C 30 %
458 05-10-2019 04:16:17 10.8 C 31 %
459 05-10-2019 04:26:17 10.5 C 31 %
460 05-10-2019 04:36:17 10.5 C 31 %
461 05-10-2019 04:46:17 10.5 C 31 %
462 05-10-2019 04:56:17 10.4 C 32 %
463 05-10-2019 05:06:17 10.2 C 31 %
464 05-10-2019 05:16:17 10 C 31 %
465 05-10-2019 05:26:17 10 C 31 %
466 05-10-2019 05:36:17 9.9 C 32 %
467 05-10-2019 05:46:18 9.6 C 32 %
468 05-10-2019 05:56:18 9.4 C 31 %
469 05-10-2019 06:06:18 9.4 C 33 %
470 05-10-2019 06:16:17 9.3 C 32 %
471 05-10-2019 06:26:17 9.4 C 31 %
472 05-10-2019 06:36:18 9.4 C 31 %
473 05-10-2019 06:46:17 9.3 C 33 %
474 05-10-2019 06:56:17 9.3 C 32 %
475 05-10-2019 07:06:18 9.4 C 31 %
Sensor: Nr:Datum:Temp:Feuchte:
Aussen-T/F 476 05-10-2019 07:16:17 9.5 C 31 %
477 05-10-2019 07:26:17 9.5 C 30 %
478 05-10-2019 07:36:17 9.3 C 30 %
479 05-10-2019 07:46:17 9.2 C 30 %
480 05-10-2019 07:56:17 9.1 C 30 %
481 05-10-2019 08:06:18 9.1 C 30 %
482 05-10-2019 08:16:17 9.2 C 30 %
483 05-10-2019 08:26:17 9.3 C 29 %
484 05-10-2019 08:36:18 9.5 C 29 %
485 05-10-2019 08:46:17 9.6 C 28 %
486 05-10-2019 08:56:17 9.6 C 28 %
487 05-10-2019 09:06:18 9.9 C 28 %
488 05-10-2019 09:16:17 9.8 C 28 %
489 05-10-2019 09:26:17 10 C 27 %
490 05-10-2019 09:36:17 10.1 C 26 %
491 05-10-2019 09:46:17 10.3 C 26 %
492 05-10-2019 09:56:17 10.2 C 26 %
493 05-10-2019 10:06:17 10.4 C 26 %
494 05-10-2019 10:16:17 10.4 C 26 %
495 05-10-2019 10:26:17 10.7 C 26 %
496 05-10-2019 10:36:17 10.6 C 25 %
497 05-10-2019 10:46:17 10.8 C 25 %
498 05-10-2019 10:56:17 10.8 C 25 %
499 05-10-2019 11:06:18 10.8 C 21 %
500 05-10-2019 11:16:17 10.7 C 21 %
Sensor: Nr:Datum:Temp:Feuchte:
Aussen-T/F 501 05-10-2019 11:26:17 10.7 C 20 %
502 05-10-2019 11:36:17 10.8 C 21 %
503 05-10-2019 11:46:17 10.8 C 21 %
504 05-10-2019 11:56:17 10.8 C 21 %
505 05-10-2019 12:06:17 11.2 C 20 %
506 05-10-2019 12:16:17 11.7 C 20 %
507 05-10-2019 12:26:17 11.2 C 20 %
508 05-10-2019 12:36:18 11.8 C 20 %
509 05-10-2019 12:46:17 12.2 C 20 %
510 05-10-2019 12:56:17 12.1 C 20 %
511 05-10-2019 13:06:18 12.1 C 20 %
512 05-10-2019 13:16:17 12.8 C 20 %
513 05-10-2019 13:26:17 12.8 C 20 %
514 05-10-2019 13:36:17 12.5 C 20 %
515 05-10-2019 13:46:17 12.3 C 20 %
516 05-10-2019 13:56:17 12.1 C 20 %
517 05-10-2019 14:06:17 12.1 C 20 %
518 05-10-2019 14:16:18 12 C 20 %
519 05-10-2019 14:26:18 12.1 C 20 %
520 05-10-2019 14:36:17 12.5 C 20 %
521 05-10-2019 14:46:17 12.5 C 20 %
522 05-10-2019 14:56:17 12.8 C 20 %
523 05-10-2019 15:06:17 12.7 C 20 %
524 05-10-2019 15:16:17 12.5 C 20 %
525 05-10-2019 15:26:17 12.9 C 20 %
Sensor: Nr:Datum:Temp:Feuchte:
Aussen-T/F 526 05-10-2019 15:36:17 12.5 C 20 %
527 05-10-2019 15:46:17 12.6 C 20 %
528 05-10-2019 15:56:17 12.7 C 20 %
529 05-10-2019 16:06:18 12.5 C 20 %
530 05-10-2019 16:16:17 12.4 C 20 %
531 05-10-2019 16:26:17 12.2 C 20 %
532 05-10-2019 16:36:17 11.9 C 20 %
533 05-10-2019 16:46:17 11.7 C 22 %
534 05-10-2019 16:56:17 11.7 C 24 %
535 05-10-2019 17:06:18 11.7 C 24 %
536 05-10-2019 17:16:17 11.8 C 20 %
537 05-10-2019 17:26:17 11.8 C 20 %
538 05-10-2019 17:36:18 11.8 C 20 %
539 05-10-2019 17:46:17 11.2 C 21 %
540 05-10-2019 17:56:17 11.3 C 24 %
541 05-10-2019 18:06:17 11 C 23 %
542 05-10-2019 18:16:18 10.8 C 25 %
543 05-10-2019 18:26:18 10.8 C 25 %
544 05-10-2019 18:36:17 10.5 C 25 %
545 05-10-2019 18:46:18 10 C 25 %
546 05-10-2019 18:56:18 9.7 C 26 %
547 05-10-2019 19:06:17 9.3 C 26 %
548 05-10-2019 19:16:18 9.2 C 26 %
549 05-10-2019 19:26:18 9 C 25 %
550 05-10-2019 19:36:17 8.7 C 26 %
Sensor: Nr:Datum:Temp:Feuchte:
Aussen-T/F 551 05-10-2019 19:46:18 8.1 C 26 %
552 05-10-2019 19:56:18 7.8 C 27 %
553 05-10-2019 20:06:18 7.5 C 27 %
554 05-10-2019 20:16:17 7.7 C 27 %
555 05-10-2019 20:26:17 8 C 26 %
556 05-10-2019 20:36:17 8.2 C 27 %
557 05-10-2019 20:46:17 7.8 C 27 %
558 05-10-2019 20:56:17 7.8 C 27 %
559 05-10-2019 21:06:17 7.4 C 30 %
560 05-10-2019 21:16:17 7.3 C 30 %
561 05-10-2019 21:26:18 6.9 C 31 %
562 05-10-2019 21:36:18 6.7 C 32 %
563 05-10-2019 21:46:17 6.6 C 32 %
564 05-10-2019 21:56:17 6.7 C 34 %
565 05-10-2019 22:06:17 6.7 C 35 %
566 05-10-2019 22:16:17 6.8 C 34 %
567 05-10-2019 22:26:17 6.8 C 34 %
568 05-10-2019 22:36:17 6.8 C 35 %
569 05-10-2019 22:46:18 6.7 C 34 %
570 05-10-2019 22:56:18 6.7 C 33 %
571 05-10-2019 23:06:17 6.7 C 35 %
572 05-10-2019 23:16:17 6.6 C 35 %
573 05-10-2019 23:26:17 6.7 C 35 %
574 05-10-2019 23:36:17 6.8 C 35 %
575 05-10-2019 23:46:17 6.9 C 35 %
Sensor: Nr:Datum:Temp:Feuchte:
Aussen-T/F 576 05-10-2019 23:56:17 6.9 C 35 %
577 06-10-2019 00:06:17 6.9 C 34 %
578 06-10-2019 00:16:18 6.8 C 34 %
579 06-10-2019 00:26:18 6.3 C 33 %
580 06-10-2019 00:36:17 6.2 C 35 %
581 06-10-2019 00:46:17 6.2 C 35 %
582 06-10-2019 00:56:17 6.2 C 35 %
583 06-10-2019 01:06:17 6.1 C 35 %
584 06-10-2019 01:16:18 6.1 C 35 %
585 06-10-2019 01:26:18 5.5 C 35 %
586 06-10-2019 01:36:17 5.6 C 36 %
587 06-10-2019 01:46:17 5.8 C 37 %
588 06-10-2019 01:56:17 6 C 36 %
589 06-10-2019 02:06:17 6.1 C 36 %
590 06-10-2019 02:16:17 6.1 C 36 %
591 06-10-2019 02:26:18 6.3 C 36 %
592 06-10-2019 02:36:17 6.4 C 35 %
593 06-10-2019 02:46:17 6.6 C 35 %
594 06-10-2019 02:56:17 6.6 C 35 %
595 06-10-2019 03:06:17 6.7 C 35 %
596 06-10-2019 03:16:17 6.7 C 35 %
597 06-10-2019 03:26:17 6.7 C 35 %
598 06-10-2019 03:36:17 6.8 C 35 %
599 06-10-2019 03:46:17 6.8 C 35 %
600 06-10-2019 03:56:17 6.8 C 35 %
Sensor: Nr:Datum:Temp:Feuchte:
Aussen-T/F 601 06-10-2019 04:06:17 6.9 C 34 %
602 06-10-2019 04:16:17 6.9 C 34 %
603 06-10-2019 04:26:17 6.9 C 34 %
604 06-10-2019 04:36:17 6.9 C 34 %
605 06-10-2019 04:46:18 6.7 C 35 %
606 06-10-2019 04:56:18 6.7 C 35 %
607 06-10-2019 05:06:17 6.7 C 35 %
608 06-10-2019 05:16:18 6.8 C 35 %
609 06-10-2019 05:26:18 6.8 C 35 %
610 06-10-2019 05:36:17 6.8 C 35 %
611 06-10-2019 05:46:17 6.8 C 35 %
612 06-10-2019 05:56:17 6.9 C 35 %
613 06-10-2019 06:06:17 7 C 34 %
614 06-10-2019 06:16:17 7 C 34 %
615 06-10-2019 06:26:17 7.1 C 33 %
616 06-10-2019 06:36:17 7.2 C 33 %
617 06-10-2019 06:46:18 7.2 C 33 %
618 06-10-2019 06:56:18 7.2 C 33 %
619 06-10-2019 07:06:17 7.3 C 33 %
620 06-10-2019 07:16:17 7.3 C 33 %
621 06-10-2019 07:26:17 7.3 C 33 %
622 06-10-2019 07:36:17 7.4 C 33 %
623 06-10-2019 07:46:17 7.4 C 32 %
624 06-10-2019 07:56:17 7.5 C 32 %
625 06-10-2019 08:06:18 7.5 C 32 %
Sensor: Nr:Datum:Temp:Feuchte:
Aussen-T/F 626 06-10-2019 08:16:17 7.6 C 31 %
627 06-10-2019 08:26:17 7.7 C 31 %
628 06-10-2019 08:36:18 7.7 C 31 %
629 06-10-2019 08:46:17 7.6 C 32 %
630 06-10-2019 08:56:17 7.6 C 32 %
631 06-10-2019 09:06:18 7.6 C 33 %
632 06-10-2019 09:16:17 7.7 C 35 %
633 06-10-2019 09:26:17 8 C 34 %
634 06-10-2019 09:36:17 8.1 C 32 %
635 06-10-2019 09:46:17 8.2 C 32 %
636 06-10-2019 09:56:17 8.4 C 31 %
637 06-10-2019 10:06:18 8.4 C 31 %
638 06-10-2019 10:16:17 8.3 C 30 %
639 06-10-2019 10:26:17 8.1 C 31 %
640 06-10-2019 10:36:18 8.1 C 31 %
641 06-10-2019 10:46:17 8.1 C 31 %
642 06-10-2019 10:56:17 8.1 C 32 %
643 06-10-2019 11:06:17 8 C 33 %
644 06-10-2019 11:16:17 8 C 33 %
645 06-10-2019 11:26:17 7.9 C 34 %
646 06-10-2019 11:36:17 8 C 34 %
647 06-10-2019 11:46:18 8 C 34 %
648 06-10-2019 11:56:18 8.2 C 34 %
649 06-10-2019 12:06:17 8.3 C 33 %
650 06-10-2019 12:16:17 8.3 C 33 %
Sensor: Nr:Datum:Temp:Feuchte:
Aussen-T/F 651 06-10-2019 12:26:17 8.3 C 34 %
652 06-10-2019 12:36:17 8.3 C 33 %
653 06-10-2019 12:46:17 8.4 C 34 %
654 06-10-2019 12:56:17 8.4 C 33 %
655 06-10-2019 13:06:17 8.7 C 33 %
656 06-10-2019 13:16:17 8.6 C 33 %
657 06-10-2019 13:26:17 8.6 C 33 %
658 06-10-2019 13:36:17 8.6 C 33 %
659 06-10-2019 13:46:18 8.8 C 34 %
660 06-10-2019 13:56:18 9 C 32 %
661 06-10-2019 14:06:17 9 C 31 %
662 06-10-2019 14:16:18 8.9 C 32 %
663 06-10-2019 14:26:18 8.8 C 32 %
664 06-10-2019 14:36:17 8.8 C 32 %
665 06-10-2019 14:46:17 9 C 32 %
666 06-10-2019 14:56:17 9 C 32 %
667 06-10-2019 15:06:17 8.9 C 33 %
668 06-10-2019 15:16:17 9 C 33 %
669 06-10-2019 15:26:18 9.1 C 33 %
670 06-10-2019 15:36:17 9 C 32 %
671 06-10-2019 15:46:17 9.1 C 32 %
672 06-10-2019 15:56:17 9.1 C 32 %
673 06-10-2019 16:06:17 9.2 C 31 %
674 06-10-2019 16:16:17 9.3 C 32 %
675 06-10-2019 16:26:17 9.1 C 32 %
Sensor: Nr:Datum:Temp:Feuchte:
Aussen-T/F 676 06-10-2019 16:36:18 9 C 32 %
677 06-10-2019 16:46:17 9 C 33 %
678 06-10-2019 16:56:17 9 C 33 %
679 06-10-2019 17:06:17 8.9 C 34 %
680 06-10-2019 17:16:17 8.9 C 35 %
681 06-10-2019 17:26:17 8.7 C 35 %
682 06-10-2019 17:36:17 8.8 C 36 %
683 06-10-2019 17:46:18 8.8 C 36 %
684 06-10-2019 17:56:18 8.8 C 36 %
685 06-10-2019 18:06:17 8.7 C 36 %
686 06-10-2019 18:16:18 8.7 C 36 %
687 06-10-2019 18:26:18 8.7 C 36 %
688 06-10-2019 18:36:17 8.6 C 36 %
689 06-10-2019 18:46:18 8.6 C 36 %
690 06-10-2019 18:56:18 8.5 C 36 %
691 06-10-2019 19:06:17 8.5 C 36 %
692 06-10-2019 19:16:17 8.5 C 36 %
693 06-10-2019 19:26:17 8.5 C 36 %
694 06-10-2019 19:36:17 8.4 C 36 %
695 06-10-2019 19:46:17 8.5 C 36 %
696 06-10-2019 19:56:17 8.4 C 36 %
697 06-10-2019 20:06:17 8.4 C 36 %
698 06-10-2019 20:16:17 8.4 C 36 %
699 06-10-2019 20:26:17 8.4 C 36 %
700 06-10-2019 20:36:17 8.4 C 36 %
Sensor: Nr:Datum:Temp:Feuchte:
Aussen-T/F 701 06-10-2019 20:46:17 8.4 C 36 %
702 06-10-2019 20:56:17 8.4 C 36 %
703 06-10-2019 21:06:17 8.5 C 36 %
704 06-10-2019 21:16:17 8.5 C 36 %
705 06-10-2019 21:26:17 8.5 C 36 %
706 06-10-2019 21:36:18 8.3 C 36 %
707 06-10-2019 21:46:17 8.3 C 36 %
708 06-10-2019 21:56:17 8.2 C 36 %
709 06-10-2019 22:06:17 8.2 C 36 %
710 06-10-2019 22:16:17 8.2 C 36 %
711 06-10-2019 22:26:17 8.2 C 36 %
712 06-10-2019 22:36:18 8.2 C 36 %
713 06-10-2019 22:46:17 8.1 C 36 %
714 06-10-2019 22:56:17 8.1 C 36 %
715 06-10-2019 23:06:18 8.1 C 36 %
716 06-10-2019 23:16:17 8.3 C 36 %
717 06-10-2019 23:26:17 8.4 C 36 %
718 06-10-2019 23:36:18 8.3 C 36 %
719 06-10-2019 23:46:17 8.4 C 36 %
720 06-10-2019 23:56:17 8.3 C 36 %
721 07-10-2019 00:06:17 8.3 C 36 %
722 07-10-2019 00:16:17 8.3 C 36 %
723 07-10-2019 00:26:17 8.2 C 36 %
724 07-10-2019 00:36:17 8.2 C 36 %
725 07-10-2019 00:46:17 8.4 C 36 %
Sensor: Nr:Datum:Temp:Feuchte:
Aussen-T/F 726 07-10-2019 00:56:17 8.3 C 36 %
727 07-10-2019 01:06:17 8.1 C 36 %
728 07-10-2019 01:16:17 8 C 36 %
729 07-10-2019 01:26:17 8.1 C 36 %
730 07-10-2019 01:36:17 8.1 C 36 %
731 07-10-2019 01:46:17 8.1 C 36 %
732 07-10-2019 01:56:17 8.1 C 36 %
733 07-10-2019 02:06:18 8.1 C 36 %
734 07-10-2019 02:16:17 8.1 C 36 %
735 07-10-2019 02:26:17 8.1 C 36 %
736 07-10-2019 02:36:17 8.1 C 36 %
737 07-10-2019 02:46:17 8 C 36 %
738 07-10-2019 02:56:17 8 C 36 %
739 07-10-2019 03:06:17 8.1 C 35 %
740 07-10-2019 03:16:17 8.1 C 35 %
741 07-10-2019 03:26:17 8.1 C 35 %
742 07-10-2019 03:36:18 8 C 36 %
743 07-10-2019 03:46:17 8 C 35 %
744 07-10-2019 03:56:17 8.1 C 36 %
745 07-10-2019 04:06:18 8.1 C 36 %
746 07-10-2019 04:16:17 8.1 C 36 %
747 07-10-2019 04:26:17 8.1 C 36 %
748 07-10-2019 04:36:18 8.1 C 36 %
749 07-10-2019 04:46:17 8 C 36 %
750 07-10-2019 04:56:17 8 C 36 %
Sensor: Nr:Datum:Temp:Feuchte:
Aussen-T/F 751 07-10-2019 05:06:18 8 C 36 %
752 07-10-2019 05:16:17 8 C 36 %
753 07-10-2019 05:26:17 7.9 C 36 %
754 07-10-2019 05:36:17 8 C 36 %
755 07-10-2019 05:46:17 7.9 C 36 %
756 07-10-2019 05:56:17 8 C 35 %
757 07-10-2019 06:06:18 8 C 35 %
758 07-10-2019 06:16:17 7.9 C 36 %
759 07-10-2019 06:26:17 7.9 C 37 %
760 07-10-2019 06:36:17 8 C 36 %
761 07-10-2019 06:46:18 7.9 C 37 %
762 07-10-2019 06:56:18 8 C 36 %
763 07-10-2019 07:06:17 8 C 36 %
764 07-10-2019 07:16:17 8 C 36 %
765 07-10-2019 07:26:17 8 C 36 %
766 07-10-2019 07:36:18 8 C 36 %
767 07-10-2019 07:46:17 8 C 37 %
768 07-10-2019 07:56:17 8 C 37 %
769 07-10-2019 08:06:17 8 C 37 %
770 07-10-2019 08:16:17 8.1 C 37 %
771 07-10-2019 08:26:17 8.1 C 37 %
772 07-10-2019 08:36:17 8.3 C 37 %
773 07-10-2019 08:46:17 8.2 C 37 %
774 07-10-2019 08:56:17 8.3 C 37 %
775 07-10-2019 09:06:17 8.3 C 36 %
Sensor: Nr:Datum:Temp:Feuchte:
Aussen-T/F 776 07-10-2019 09:16:18 8.4 C 36 %
777 07-10-2019 09:26:18 8.4 C 35 %
778 07-10-2019 09:36:17 8.5 C 35 %
779 07-10-2019 09:46:18 8.4 C 35 %
780 07-10-2019 09:56:18 8.6 C 35 %
781 07-10-2019 10:06:17 8.7 C 33 %
782 07-10-2019 10:16:17 8.9 C 32 %
783 07-10-2019 10:26:17 9 C 31 %
784 07-10-2019 10:36:17 8.9 C 31 %
785 07-10-2019 10:46:17 9.3 C 31 %
786 07-10-2019 10:56:17 9.3 C 30 %
787 07-10-2019 11:06:18 9.9 C 29 %
788 07-10-2019 11:16:17 10.1 C 28 %
789 07-10-2019 11:26:17 10.7 C 28 %
790 07-10-2019 11:36:18 10.7 C 27 %
791 07-10-2019 11:46:17 10.6 C 27 %
792 07-10-2019 11:56:17 10.7 C 26 %
793 07-10-2019 12:06:18 11.3 C 26 %
794 07-10-2019 12:16:17 11.1 C 25 %
795 07-10-2019 12:26:17 11.5 C 25 %
796 07-10-2019 12:36:17 11.4 C 25 %
797 07-10-2019 12:46:17 11.5 C 25 %
798 07-10-2019 12:56:18 11.4 C 25 %
799 07-10-2019 13:06:17 10.9 C 26 %
800 07-10-2019 13:16:17 11 C 25 %
Sensor: Nr:Datum:Temp:Feuchte:
Aussen-T/F 801 07-10-2019 13:26:17 10.9 C 26 %
802 07-10-2019 13:36:17 10.8 C 26 %
803 07-10-2019 13:46:17 11.9 C 25 %
804 07-10-2019 13:56:17 11.8 C 25 %
805 07-10-2019 14:06:17 11.5 C 25 %
806 07-10-2019 14:16:17 11.8 C 25 %
807 07-10-2019 14:26:17 12.2 C 22 %
808 07-10-2019 14:36:18 12.3 C 22 %
809 07-10-2019 14:46:17 12.5 C 22 %
810 07-10-2019 14:56:17 12.9 C 22 %
811 07-10-2019 15:06:18 13.4 C 20 %
812 07-10-2019 15:16:17 12.8 C 22 %
813 07-10-2019 15:26:17 12.7 C 22 %
814 07-10-2019 15:36:18 12.7 C 22 %
815 07-10-2019 15:46:17 12.1 C 23 %
816 07-10-2019 15:56:17 12.2 C 25 %
817 07-10-2019 16:06:18 12.2 C 24 %
818 07-10-2019 16:16:17 12.4 C 25 %
819 07-10-2019 16:26:17 12.6 C 23 %
820 07-10-2019 16:36:18 12.4 C 22 %
821 07-10-2019 16:46:17 12.7 C 24 %
822 07-10-2019 16:56:17 12.5 C 23 %
823 07-10-2019 17:06:17 12.3 C 25 %
824 07-10-2019 17:16:17 12.2 C 24 %
825 07-10-2019 17:26:17 12.2 C 25 %
Sensor: Nr:Datum:Temp:Feuchte:
Aussen-T/F 826 07-10-2019 17:36:18 12 C 25 %
827 07-10-2019 17:46:17 11.8 C 25 %
828 07-10-2019 17:56:17 11.5 C 26 %
829 07-10-2019 18:06:18 11.5 C 27 %
830 07-10-2019 18:16:17 11.4 C 27 %
831 07-10-2019 18:26:17 11.2 C 29 %
832 07-10-2019 18:36:17 11 C 30 %
833 07-10-2019 18:46:17 10.9 C 30 %
834 07-10-2019 18:56:17 10.7 C 31 %
835 07-10-2019 19:06:18 10.7 C 31 %
836 07-10-2019 19:16:17 10.5 C 31 %
837 07-10-2019 19:26:17 10.3 C 32 %
838 07-10-2019 19:36:18 9.9 C 33 %
839 07-10-2019 19:46:17 9.8 C 35 %
840 07-10-2019 19:56:17 9.9 C 35 %
841 07-10-2019 20:06:18 10 C 35 %
842 07-10-2019 20:16:17 10.1 C 35 %
843 07-10-2019 20:26:17 10.1 C 35 %
844 07-10-2019 20:36:17 10.3 C 34 %
845 07-10-2019 20:46:17 10.3 C 34 %
846 07-10-2019 20:56:17 10.3 C 34 %
847 07-10-2019 21:06:17 10.4 C 34 %
848 07-10-2019 21:16:17 10.4 C 34 %
849 07-10-2019 21:26:17 10.5 C 34 %
850 07-10-2019 21:36:17 10.5 C 35 %
Sensor: Nr:Datum:Temp:Feuchte:
Aussen-T/F 851 07-10-2019 21:46:17 10.5 C 35 %
852 07-10-2019 21:56:17 10.5 C 36 %
853 07-10-2019 22:06:18 10.4 C 35 %
854 07-10-2019 22:16:17 10.4 C 35 %
855 07-10-2019 22:26:17 10.4 C 36 %
856 07-10-2019 22:36:17 10.4 C 36 %
857 07-10-2019 22:46:17 10.4 C 36 %
858 07-10-2019 22:56:17 10.4 C 36 %
859 07-10-2019 23:06:18 10.5 C 36 %
860 07-10-2019 23:16:17 10.5 C 35 %
861 07-10-2019 23:26:17 10.6 C 35 %
862 07-10-2019 23:36:17 10.6 C 35 %
863 07-10-2019 23:46:17 10.6 C 35 %
864 07-10-2019 23:56:17 10.7 C 35 %
865 08-10-2019 00:06:18 10.7 C 35 %
866 08-10-2019 00:16:17 10.7 C 35 %
867 08-10-2019 00:26:17 10.7 C 35 %
868 08-10-2019 00:36:18 10.8 C 35 %
869 08-10-2019 00:46:17 10.8 C 35 %
870 08-10-2019 00:56:17 11.1 C 30 %
871 08-10-2019 01:06:18 11.3 C 30 %
872 08-10-2019 01:16:17 11.3 C 30 %
873 08-10-2019 01:26:17 11.2 C 30 %
874 08-10-2019 01:36:17 11.3 C 30 %
875 08-10-2019 01:46:17 11.3 C 30 %
Sensor: Nr:Datum:Temp:Feuchte:
Aussen-T/F 876 08-10-2019 01:56:17 11.5 C 30 %
877 08-10-2019 02:06:18 11.2 C 30 %
878 08-10-2019 02:16:17 11 C 31 %
879 08-10-2019 02:26:17 11 C 32 %
880 08-10-2019 02:36:18 11.1 C 31 %
881 08-10-2019 02:46:17 11.4 C 31 %
882 08-10-2019 02:56:17 11.4 C 30 %
883 08-10-2019 03:06:18 11.5 C 30 %
884 08-10-2019 03:16:17 11.4 C 31 %
885 08-10-2019 03:26:17 11.2 C 31 %
886 08-10-2019 03:36:17 11.2 C 31 %
887 08-10-2019 03:46:17 11.3 C 32 %
888 08-10-2019 03:56:17 11.2 C 32 %
889 08-10-2019 04:06:18 11.2 C 32 %
890 08-10-2019 04:16:17 11.3 C 31 %
891 08-10-2019 04:26:17 11.5 C 30 %
892 08-10-2019 04:36:17 11.5 C 30 %
893 08-10-2019 04:46:18 11.4 C 30 %
894 08-10-2019 04:56:18 11.6 C 30 %
895 08-10-2019 05:06:17 11.7 C 29 %
896 08-10-2019 05:16:18 12 C 26 %
897 08-10-2019 05:26:18 12.1 C 26 %
898 08-10-2019 05:36:17 12.3 C 26 %
899 08-10-2019 05:46:18 12 C 26 %
900 08-10-2019 05:56:18 11.6 C 29 %
Sensor: Nr:Datum:Temp:Feuchte:
Aussen-T/F 901 08-10-2019 06:06:17 11.5 C 29 %
902 08-10-2019 06:16:17 11.4 C 30 %
903 08-10-2019 06:26:17 11.2 C 31 %
904 08-10-2019 06:36:17 11.1 C 31 %
905 08-10-2019 06:46:17 11 C 35 %
906 08-10-2019 06:56:17 10.9 C 36 %
907 08-10-2019 07:06:17 10.9 C 36 %
908 08-10-2019 07:16:17 10.9 C 36 %
909 08-10-2019 07:26:17 11.1 C 35 %
910 08-10-2019 07:36:17 11.1 C 35 %
911 08-10-2019 07:46:17 11.1 C 35 %
912 08-10-2019 07:56:17 11 C 35 %
913 08-10-2019 08:06:18 11.1 C 34 %
914 08-10-2019 08:16:17 11.2 C 34 %
915 08-10-2019 08:26:17 11.4 C 32 %
916 08-10-2019 08:36:18 11.3 C 32 %
917 08-10-2019 08:46:17 11.4 C 33 %
918 08-10-2019 08:56:17 11.4 C 33 %
919 08-10-2019 09:06:18 11.6 C 31 %
920 08-10-2019 09:16:17 11.6 C 31 %
921 08-10-2019 09:26:17 11.7 C 31 %
922 08-10-2019 09:36:18 11.8 C 30 %
923 08-10-2019 09:46:17 12 C 30 %
924 08-10-2019 09:56:17 12.1 C 29 %
925 08-10-2019 10:06:17 12 C 29 %
Sensor: Nr:Datum:Temp:Feuchte:
Aussen-T/F 926 08-10-2019 10:16:18 11.8 C 30 %
927 08-10-2019 10:26:18 12 C 30 %
928 08-10-2019 10:36:17 12.1 C 29 %
929 08-10-2019 10:46:17 12.6 C 28 %
930 08-10-2019 10:56:17 12.9 C 28 %
931 08-10-2019 11:06:17 13.1 C 27 %
932 08-10-2019 11:16:17 13.5 C 26 %
933 08-10-2019 11:26:17 13.6 C 26 %
934 08-10-2019 11:36:17 13.8 C 26 %
935 08-10-2019 11:46:18 13.6 C 26 %
936 08-10-2019 11:56:18 13.6 C 26 %
937 08-10-2019 12:06:17 13.7 C 26 %
938 08-10-2019 12:16:17 13.6 C 26 %
939 08-10-2019 12:26:17 13.7 C 26 %
940 08-10-2019 12:36:17 13.7 C 26 %
941 08-10-2019 12:46:18 13.8 C 26 %
942 08-10-2019 12:56:18 14 C 25 %
943 08-10-2019 13:06:17 14 C 25 %
944 08-10-2019 13:16:18 13.7 C 26 %
945 08-10-2019 13:26:18 13.8 C 27 %
946 08-10-2019 13:36:17 13.7 C 26 %
947 08-10-2019 13:46:17 13.8 C 27 %
948 08-10-2019 13:56:17 13.9 C 26 %
949 08-10-2019 14:06:17 14 C 26 %
950 08-10-2019 14:16:17 14.2 C 26 %
Sensor: Nr:Datum:Temp:Feuchte:
Aussen-T/F 951 08-10-2019 14:26:18 14.2 C 26 %
952 08-10-2019 14:36:17 14.3 C 26 %
953 08-10-2019 14:46:17 14.3 C 26 %
954 08-10-2019 14:56:17 14.2 C 26 %
955 08-10-2019 15:06:17 14.2 C 26 %
956 08-10-2019 15:16:17 14.2 C 26 %
957 08-10-2019 15:26:17 13.6 C 29 %
958 08-10-2019 15:36:17 13.6 C 29 %
959 08-10-2019 15:46:17 13.5 C 30 %
960 08-10-2019 15:56:17 13.6 C 30 %
961 08-10-2019 16:06:17 13.7 C 30 %
962 08-10-2019 16:16:17 13.5 C 30 %
963 08-10-2019 16:26:17 13.6 C 30 %
964 08-10-2019 16:36:18 13.6 C 30 %
965 08-10-2019 16:46:17 13.5 C 30 %
966 08-10-2019 16:56:17 13.5 C 30 %
967 08-10-2019 17:06:17 13.5 C 30 %
968 08-10-2019 17:16:17 13.4 C 32 %
969 08-10-2019 17:26:17 13.4 C 32 %
970 08-10-2019 17:36:17 13.3 C 32 %
971 08-10-2019 17:46:18 13.4 C 32 %
972 08-10-2019 17:56:18 13.5 C 33 %
973 08-10-2019 18:06:17 13.5 C 32 %
974 08-10-2019 18:16:17 13.5 C 32 %
975 08-10-2019 18:26:17 13.5 C 32 %
Sensor: Nr:Datum:Temp:Feuchte:
Aussen-T/F 976 08-10-2019 18:36:17 13.3 C 32 %
977 08-10-2019 18:46:18 13.1 C 34 %
978 08-10-2019 18:56:18 13.1 C 35 %
979 08-10-2019 19:06:17 13.2 C 35 %
980 08-10-2019 19:16:18 13.1 C 34 %
981 08-10-2019 19:26:18 13.6 C 35 %
982 08-10-2019 19:36:17 13.1 C 35 %
983 08-10-2019 19:46:17 13.1 C 35 %
984 08-10-2019 19:56:17 13 C 35 %
985 08-10-2019 20:06:17 13 C 35 %
986 08-10-2019 20:16:18 13 C 35 %
987 08-10-2019 20:26:18 12.9 C 35 %
988 08-10-2019 20:36:17 12.8 C 35 %
989 08-10-2019 20:46:17 12.7 C 35 %
990 08-10-2019 20:56:17 12.7 C 35 %
991 08-10-2019 21:06:18 12.7 C 35 %
992 08-10-2019 21:16:17 12.6 C 35 %
993 08-10-2019 21:26:17 12.6 C 35 %
994 08-10-2019 21:36:17 12.5 C 35 %
995 08-10-2019 21:46:17 12.5 C 35 %
996 08-10-2019 21:56:17 12.6 C 35 %
997 08-10-2019 22:06:18 12.4 C 35 %
998 08-10-2019 22:16:17 12.4 C 35 %
999 08-10-2019 22:26:17 12.2 C 35 %
1000 08-10-2019 22:36:18 12 C 35 %
Sensor: Nr:Datum:Temp:Feuchte:
Aussen-T/F 1001 08-10-2019 22:46:17 11.8 C 35 %
1002 08-10-2019 22:56:17 11.6 C 35 %
1003 08-10-2019 23:06:18 11.4 C 35 %
1004 08-10-2019 23:16:17 11.1 C 35 %
1005 08-10-2019 23:26:17 11.1 C 35 %
1006 08-10-2019 23:36:17 11 C 35 %
1007 08-10-2019 23:46:17 10.9 C 36 %
1008 08-10-2019 23:56:17 10.6 C 36 %
1009 09-10-2019 00:06:17 10.4 C 36 %
1010 09-10-2019 00:16:17 10.1 C 36 %
1011 09-10-2019 00:26:17 9.9 C 36 %
1012 09-10-2019 00:36:17 9.8 C 36 %
1013 09-10-2019 00:46:17 9.7 C 37 %
1014 09-10-2019 00:56:17 9.6 C 37 %
1015 09-10-2019 01:06:17 9.7 C 37 %
1016 09-10-2019 01:16:17 9.7 C 37 %
1017 09-10-2019 01:26:17 9.8 C 37 %
1018 09-10-2019 01:36:17 9.8 C 37 %
1019 09-10-2019 01:46:17 9.9 C 37 %
1020 09-10-2019 01:56:17 9.9 C 36 %
1021 09-10-2019 02:06:17 10.1 C 36 %
1022 09-10-2019 02:16:17 10.2 C 35 %
1023 09-10-2019 02:26:17 10 C 35 %
1024 09-10-2019 02:36:17 9.8 C 36 %
1025 09-10-2019 02:46:17 10.1 C 36 %
Sensor: Nr:Datum:Temp:Feuchte:
Aussen-T/F 1026 09-10-2019 02:56:17 10.5 C 36 %
1027 09-10-2019 03:06:18 10.4 C 36 %
1028 09-10-2019 03:16:17 10.2 C 36 %
1029 09-10-2019 03:26:17 9.7 C 36 %
1030 09-10-2019 03:36:18 9.6 C 36 %
1031 09-10-2019 03:46:17 10.3 C 36 %
1032 09-10-2019 03:56:17 11.1 C 35 %
1033 09-10-2019 04:06:17 11.2 C 31 %
1034 09-10-2019 04:16:17 11 C 30 %
1035 09-10-2019 04:26:17 11 C 31 %
1036 09-10-2019 04:36:17 11 C 31 %
1037 09-10-2019 04:46:17 11.1 C 31 %
1038 09-10-2019 04:56:17 10.5 C 32 %
1039 09-10-2019 05:06:18 10.3 C 35 %
1040 09-10-2019 05:16:17 10.4 C 34 %
1041 09-10-2019 05:26:17 10.6 C 33 %
1042 09-10-2019 05:36:18 10.8 C 32 %
1043 09-10-2019 05:46:17 11.1 C 30 %
1044 09-10-2019 05:56:17 11.1 C 30 %
1045 09-10-2019 06:06:17 11.2 C 30 %
1046 09-10-2019 06:16:17 11.3 C 30 %
1047 09-10-2019 06:26:17 11.1 C 30 %
1048 09-10-2019 06:36:17 11.1 C 30 %
1049 09-10-2019 06:46:18 11 C 30 %
1050 09-10-2019 06:56:18 11 C 29 %
Sensor: Nr:Datum:Temp:Feuchte:
Aussen-T/F 1051 09-10-2019 07:06:17 10.9 C 30 %
1052 09-10-2019 07:16:18 10.7 C 30 %
1053 09-10-2019 07:26:18 10.1 C 31 %
1054 09-10-2019 07:36:17 10.8 C 30 %
1055 09-10-2019 07:46:17 11.1 C 29 %
1056 09-10-2019 07:56:17 10.8 C 30 %
1057 09-10-2019 08:06:17 10.6 C 30 %
1058 09-10-2019 08:16:17 10.7 C 30 %
1059 09-10-2019 08:26:17 11 C 30 %
1060 09-10-2019 08:36:17 10.9 C 30 %
1061 09-10-2019 08:46:17 11.1 C 29 %
1062 09-10-2019 08:56:17 11.2 C 28 %
1063 09-10-2019 09:06:18 11.4 C 28 %
1064 09-10-2019 09:16:17 10.7 C 30 %
1065 09-10-2019 09:26:17 11 C 30 %
1066 09-10-2019 09:36:17 11.2 C 29 %
1067 09-10-2019 09:46:17 12.2 C 26 %
1068 09-10-2019 09:56:17 12.3 C 25 %
1069 09-10-2019 10:06:17 12.3 C 25 %
1070 09-10-2019 10:16:18 12.5 C 26 %
1071 09-10-2019 10:26:18 13.1 C 24 %
1072 09-10-2019 10:36:17 13.3 C 23 %
1073 09-10-2019 10:46:17 13.3 C 22 %
1074 09-10-2019 10:56:17 13.6 C 22 %
1075 09-10-2019 11:06:17 13.5 C 22 %
Sensor: Nr:Datum:Temp:Feuchte:
Aussen-T/F 1076 09-10-2019 11:16:17 13.6 C 23 %
1077 09-10-2019 11:26:17 14.1 C 21 %
1078 09-10-2019 11:36:17 14.1 C 22 %
1079 09-10-2019 11:46:17 13.8 C 20 %
1080 09-10-2019 11:56:17 13.8 C 21 %
1081 09-10-2019 12:06:17 13.8 C 21 %
1082 09-10-2019 12:16:17 13.6 C 21 %
1083 09-10-2019 12:26:17 12.8 C 25 %
1084 09-10-2019 12:36:18 13.5 C 24 %
1085 09-10-2019 12:46:17 12.6 C 26 %
1086 09-10-2019 12:56:17 12.6 C 27 %
1087 09-10-2019 13:06:17 12.5 C 28 %
1088 09-10-2019 13:16:17 12.3 C 30 %
1089 09-10-2019 13:26:17 13.1 C 28 %
1090 09-10-2019 13:36:17 14 C 25 %
1091 09-10-2019 13:46:18 13.7 C 26 %
1092 09-10-2019 13:56:18 13.7 C 25 %
1093 09-10-2019 14:06:17 12.7 C 26 %
1094 09-10-2019 14:16:18 12 C 27 %
1095 09-10-2019 14:26:18 11.6 C 31 %
1096 09-10-2019 14:36:17 11.6 C 31 %
1097 09-10-2019 14:46:18 11.6 C 29 %
1098 09-10-2019 14:56:18 11.5 C 30 %
1099 09-10-2019 15:06:17 11.5 C 28 %
1100 09-10-2019 15:16:17 12 C 26 %
Sensor: Nr:Datum:Temp:Feuchte:
Aussen-T/F 1101 09-10-2019 15:26:17 12.2 C 26 %
1102 09-10-2019 15:36:17 12.4 C 25 %
1103 09-10-2019 15:46:17 12.7 C 25 %
1104 09-10-2019 15:56:18 12.9 C 25 %
1105 09-10-2019 16:06:17 13 C 22 %
1106 09-10-2019 16:16:18 14.3 C 20 %
1107 09-10-2019 16:26:18 13.4 C 20 %
1108 09-10-2019 16:36:17 13.6 C 20 %
1109 09-10-2019 16:46:18 13.4 C 20 %
1110 09-10-2019 16:56:18 13.6 C 20 %
1111 09-10-2019 17:06:17 13.5 C 20 %
1112 09-10-2019 17:16:18 13.2 C 20 %
1113 09-10-2019 17:26:18 14.2 C 20 %
1114 09-10-2019 17:36:17 14.5 C 20 %
1115 09-10-2019 17:46:18 13.8 C 20 %
1116 09-10-2019 17:56:18 13 C 20 %
1117 09-10-2019 18:06:17 12.7 C 21 %
1118 09-10-2019 18:16:18 12.4 C 20 %
1119 09-10-2019 18:26:18 12.1 C 22 %
1120 09-10-2019 18:36:17 11.9 C 24 %
1121 09-10-2019 18:46:17 11.9 C 25 %
1122 09-10-2019 18:56:17 11.7 C 25 %
1123 09-10-2019 19:06:17 11.8 C 25 %
1124 09-10-2019 19:16:17 11.5 C 25 %
1125 09-10-2019 19:26:17 11.3 C 26 %
Sensor: Nr:Datum:Temp:Feuchte:
Aussen-T/F 1126 09-10-2019 19:36:18 11.2 C 26 %
1127 09-10-2019 19:46:17 11.3 C 25 %
1128 09-10-2019 19:56:17 11.4 C 25 %
1129 09-10-2019 20:06:18 11.2 C 25 %
1130 09-10-2019 20:16:17 10.8 C 26 %
1131 09-10-2019 20:26:17 10.7 C 26 %
1132 09-10-2019 20:36:17 10.7 C 26 %
1133 09-10-2019 20:46:17 10.8 C 26 %
1134 09-10-2019 20:56:17 10.8 C 26 %
1135 09-10-2019 21:06:17 11.1 C 25 %
1136 09-10-2019 21:16:17 10.9 C 26 %
1137 09-10-2019 21:26:17 10.8 C 26 %
1138 09-10-2019 21:36:18 10.8 C 27 %
1139 09-10-2019 21:46:17 11.2 C 25 %
1140 09-10-2019 21:56:17 11.1 C 25 %
1141 09-10-2019 22:06:17 11.3 C 25 %
1142 09-10-2019 22:16:17 11.1 C 25 %
1143 09-10-2019 22:26:17 11 C 25 %
1144 09-10-2019 22:36:18 11 C 24 %
1145 09-10-2019 22:46:17 11 C 24 %
1146 09-10-2019 22:56:17 10.8 C 25 %
1147 09-10-2019 23:06:18 10.7 C 25 %
1148 09-10-2019 23:16:17 10.7 C 25 %
1149 09-10-2019 23:26:17 11 C 24 %
1150 09-10-2019 23:36:17 10.6 C 25 %
Sensor: Nr:Datum:Temp:Feuchte:
Aussen-T/F 1151 09-10-2019 23:46:17 10.5 C 25 %
1152 09-10-2019 23:56:17 10.6 C 25 %
1153 10-10-2019 00:06:18 10.2 C 25 %
1154 10-10-2019 00:16:17 10.2 C 25 %
1155 10-10-2019 00:26:17 10.1 C 25 %
1156 10-10-2019 00:36:17 10.1 C 25 %
1157 10-10-2019 00:46:17 10 C 25 %
1158 10-10-2019 00:56:17 10 C 25 %
1159 10-10-2019 01:06:18 10.1 C 25 %
1160 10-10-2019 01:16:17 10.2 C 25 %
1161 10-10-2019 01:26:17 9.9 C 27 %
1162 10-10-2019 01:36:18 9.8 C 27 %
1163 10-10-2019 01:46:17 9.7 C 28 %
1164 10-10-2019 01:56:17 9.7 C 28 %
1165 10-10-2019 02:06:18 10.1 C 26 %
1166 10-10-2019 02:16:17 10.4 C 26 %
1167 10-10-2019 02:26:17 10.3 C 26 %
1168 10-10-2019 02:36:18 10.3 C 26 %
1169 10-10-2019 02:46:17 10.4 C 26 %
1170 10-10-2019 02:56:17 10.4 C 26 %
1171 10-10-2019 03:06:17 10.4 C 26 %
1172 10-10-2019 03:16:17 9.9 C 30 %
1173 10-10-2019 03:26:17 9.8 C 30 %
1174 10-10-2019 03:36:17 9.9 C 30 %
1175 10-10-2019 03:46:18 9.8 C 31 %
Sensor: Nr:Datum:Temp:Feuchte:
Aussen-T/F 1176 10-10-2019 03:56:18 10.1 C 29 %
1177 10-10-2019 04:06:17 9.7 C 30 %
1178 10-10-2019 04:16:17 10.2 C 28 %
1179 10-10-2019 04:26:17 10.2 C 28 %
1180 10-10-2019 04:36:17 10 C 29 %
1181 10-10-2019 04:46:18 9.8 C 31 %
1182 10-10-2019 04:56:18 9.6 C 35 %
1183 10-10-2019 05:06:17 9.5 C 34 %
1184 10-10-2019 05:16:18 9.6 C 33 %
1185 10-10-2019 05:26:18 9.8 C 31 %
1186 10-10-2019 05:36:17 9.9 C 31 %
1187 10-10-2019 05:46:18 9.8 C 31 %
1188 10-10-2019 05:56:18 10.1 C 30 %
1189 10-10-2019 06:06:17 10.1 C 30 %
1190 10-10-2019 06:16:18 10 C 30 %
1191 10-10-2019 06:26:18 9.9 C 31 %
1192 10-10-2019 06:36:17 9.8 C 31 %
1193 10-10-2019 06:46:17 9.7 C 32 %
1194 10-10-2019 06:56:17 9.7 C 31 %
1195 10-10-2019 07:06:17 9.7 C 30 %
1196 10-10-2019 07:16:17 9.7 C 30 %
1197 10-10-2019 07:26:17 9.7 C 30 %
1198 10-10-2019 07:36:17 9.8 C 29 %
1199 10-10-2019 07:46:17 9.7 C 29 %
1200 10-10-2019 07:56:17 9.5 C 30 %
Sensor: Nr:Datum:Temp:Feuchte:
Aussen-T/F 1201 10-10-2019 08:06:18 9.5 C 29 %
1202 10-10-2019 08:16:17 9.7 C 28 %
1203 10-10-2019 08:26:17 9.5 C 29 %
1204 10-10-2019 08:36:17 9.8 C 28 %
1205 10-10-2019 08:46:17 10 C 27 %
1206 10-10-2019 08:56:17 10.4 C 26 %
1207 10-10-2019 09:06:17 10.2 C 27 %
1208 10-10-2019 09:16:17 10.5 C 27 %
1209 10-10-2019 09:26:17 10.8 C 26 %
1210 10-10-2019 09:36:18 10.7 C 26 %
1211 10-10-2019 09:46:17 10.9 C 26 %
1212 10-10-2019 09:56:17 11 C 26 %
1213 10-10-2019 10:06:17 10.8 C 26 %
1214 10-10-2019 10:16:17 11.1 C 25 %
1215 10-10-2019 10:26:17 11 C 25 %
1216 10-10-2019 10:36:17 11.5 C 25 %
1217 10-10-2019 10:46:17 11.5 C 25 %
1218 10-10-2019 10:56:17 11.6 C 25 %
1219 10-10-2019 11:06:17 11.7 C 25 %
1220 10-10-2019 11:16:17 12.3 C 23 %
1221 10-10-2019 11:26:17 12.6 C 20 %
1222 10-10-2019 11:36:17 12.7 C 20 %
1223 10-10-2019 11:46:17 12.6 C 21 %
1224 10-10-2019 11:56:17 12.7 C 21 %
1225 10-10-2019 12:06:17 13.4 C 20 %
Sensor: Nr:Datum:Temp:Feuchte:
Aussen-T/F 1226 10-10-2019 12:16:18 13.4 C 20 %
1227 10-10-2019 12:26:18 13.5 C 20 %
1228 10-10-2019 12:36:17 13.6 C 20 %
1229 10-10-2019 12:46:17 14 C 20 %
1230 10-10-2019 12:56:17 14.2 C 20 %
1231 10-10-2019 13:06:17 14.6 C 20 %
1232 10-10-2019 13:16:18 14.5 C 20 %
1233 10-10-2019 13:26:18 14.7 C 20 %
1234 10-10-2019 13:36:17 15.2 C 20 %
1235 10-10-2019 13:46:18 14.3 C 20 %
1236 10-10-2019 13:56:18 14.8 C 20 %
1237 10-10-2019 14:06:17 14.7 C 20 %
1238 10-10-2019 14:16:17 15.5 C 20 %
1239 10-10-2019 14:26:17 14.7 C 20 %
1240 10-10-2019 14:36:17 13.7 C 20 %
1241 10-10-2019 14:46:18 15 C 20 %
1242 10-10-2019 14:56:18 15.2 C 20 %
1243 10-10-2019 15:06:17 15 C 20 %
1244 10-10-2019 15:16:18 15.3 C 20 %
1245 10-10-2019 15:26:18 15.5 C 20 %
1246 10-10-2019 15:36:17 15.4 C 20 %
1247 10-10-2019 15:46:17 15.1 C 20 %
1248 10-10-2019 15:56:17 15.3 C 20 %
1249 10-10-2019 16:06:17 16.4 C 20 %
1250 10-10-2019 16:16:18 16 C 20 %
Sensor: Nr:Datum:Temp:Feuchte:
Aussen-T/F 1251 10-10-2019 16:26:18 17.5 C 20 %
1252 10-10-2019 16:36:17 15.5 C 20 %
1253 10-10-2019 16:46:17 15.1 C 20 %
1254 10-10-2019 16:56:17 12.9 C 22 %
1255 10-10-2019 17:06:18 13 C 20 %
1256 10-10-2019 17:16:18 15.7 C 20 %
1257 10-10-2019 17:26:18 15.4 C 20 %
1258 10-10-2019 17:36:18 13.7 C 20 %
1259 10-10-2019 17:46:18 13.6 C 20 %
1260 10-10-2019 17:56:18 13.6 C 20 %
1261 10-10-2019 18:06:17 13.2 C 20 %
1262 10-10-2019 18:16:17 13.2 C 20 %
1263 10-10-2019 18:26:17 13.1 C 20 %
1264 10-10-2019 18:36:17 12.8 C 22 %
1265 10-10-2019 18:46:18 12.2 C 22 %
1266 10-10-2019 18:56:18 11.8 C 25 %
1267 10-10-2019 19:06:17 11.5 C 26 %
1268 10-10-2019 19:16:17 11.1 C 27 %
1269 10-10-2019 19:26:17 11 C 27 %
1270 10-10-2019 19:36:17 11.2 C 26 %
1271 10-10-2019 19:46:17 11.5 C 26 %
1272 10-10-2019 19:56:17 12 C 25 %
1273 10-10-2019 20:06:17 12.1 C 24 %
1274 10-10-2019 20:16:17 11.9 C 25 %
1275 10-10-2019 20:26:17 12 C 25 %
Sensor: Nr:Datum:Temp:Feuchte:
Aussen-T/F 1276 10-10-2019 20:36:18 11.9 C 26 %
1277 10-10-2019 20:46:17 11.4 C 26 %
1278 10-10-2019 20:56:17 11.2 C 27 %
1279 10-10-2019 21:06:17 10.8 C 28 %
1280 10-10-2019 21:16:17 10 C 30 %
1281 10-10-2019 21:26:17 10 C 31 %
1282 10-10-2019 21:36:17 9.7 C 33 %
1283 10-10-2019 21:46:17 9.4 C 35 %
1284 10-10-2019 21:56:17 9.4 C 35 %
1285 10-10-2019 22:06:17 9.1 C 36 %
1286 10-10-2019 22:16:17 9.5 C 37 %
1287 10-10-2019 22:26:17 9.3 C 36 %
1288 10-10-2019 22:36:17 9.2 C 36 %
1289 10-10-2019 22:46:17 9.1 C 36 %
1290 10-10-2019 22:56:17 9.2 C 37 %
1291 10-10-2019 23:06:17 9.1 C 37 %
1292 10-10-2019 23:16:18 9 C 37 %
1293 10-10-2019 23:26:18 8.8 C 37 %
1294 10-10-2019 23:36:17 8.7 C 37 %
1295 10-10-2019 23:46:18 8.9 C 37 %
1296 10-10-2019 23:56:18 9 C 37 %
1297 11-10-2019 00:06:17 9 C 37 %
1298 11-10-2019 00:16:17 8.8 C 37 %
1299 11-10-2019 00:26:17 8.6 C 37 %
1300 11-10-2019 00:36:17 8.8 C 37 %
Sensor: Nr:Datum:Temp:Feuchte:
Aussen-T/F 1301 11-10-2019 00:46:17 8.9 C 37 %
1302 11-10-2019 00:56:17 8.8 C 37 %
1303 11-10-2019 01:06:17 8.4 C 36 %
1304 11-10-2019 01:16:17 8.2 C 36 %
1305 11-10-2019 01:26:17 8.3 C 37 %
1306 11-10-2019 01:36:18 8.5 C 37 %
1307 11-10-2019 01:46:17 8 C 36 %
1308 11-10-2019 01:56:17 8.1 C 37 %
1309 11-10-2019 02:06:18 7.8 C 37 %
1310 11-10-2019 02:16:17 8 C 37 %
1311 11-10-2019 02:26:17 8 C 37 %
1312 11-10-2019 02:36:17 8.2 C 38 %
1313 11-10-2019 02:46:17 8.1 C 37 %
1314 11-10-2019 02:56:17 8 C 37 %
1315 11-10-2019 03:06:17 7.9 C 37 %
1316 11-10-2019 03:16:18 7.9 C 38 %
1317 11-10-2019 03:26:18 8.3 C 37 %
1318 11-10-2019 03:36:17 8.8 C 37 %
1319 11-10-2019 03:46:17 9.2 C 36 %
1320 11-10-2019 03:56:17 9.8 C 32 %
1321 11-10-2019 04:06:17 9.9 C 30 %
1322 11-10-2019 04:16:17 9.8 C 30 %
1323 11-10-2019 04:26:17 9 C 31 %
1324 11-10-2019 04:36:18 9.1 C 31 %
1325 11-10-2019 04:46:17 9.1 C 31 %
Sensor: Nr:Datum:Temp:Feuchte:
Aussen-T/F 1326 11-10-2019 04:56:17 9.2 C 32 %
1327 11-10-2019 05:06:17 9.4 C 31 %
1328 11-10-2019 05:16:17 9 C 31 %
1329 11-10-2019 05:26:17 9.2 C 31 %
1330 11-10-2019 05:36:17 9.2 C 31 %
1331 11-10-2019 05:46:17 8.8 C 32 %
1332 11-10-2019 05:56:17 8.4 C 33 %
1333 11-10-2019 06:06:18 8.4 C 35 %
1334 11-10-2019 06:16:17 8.7 C 36 %
1335 11-10-2019 06:26:17 8.8 C 35 %
1336 11-10-2019 06:36:18 8.9 C 35 %
1337 11-10-2019 06:46:17 9 C 35 %
1338 11-10-2019 06:56:17 9 C 35 %
1339 11-10-2019 07:06:17 9.1 C 35 %
1340 11-10-2019 07:16:17 9.3 C 34 %
1341 11-10-2019 07:26:17 9.7 C 32 %
1342 11-10-2019 07:36:17 9.7 C 32 %
1343 11-10-2019 07:46:17 9.8 C 32 %
1344 11-10-2019 07:56:17 10.1 C 33 %
1345 11-10-2019 08:06:17 10.2 C 32 %
1346 11-10-2019 08:16:17 10.3 C 33 %
1347 11-10-2019 08:26:17 11 C 31 %
1348 11-10-2019 08:36:17 11.2 C 31 %
1349 11-10-2019 08:46:17 11.6 C 30 %
1350 11-10-2019 08:56:17 11.9 C 30 %
Sensor: Nr:Datum:Temp:Feuchte:
Aussen-T/F 1351 11-10-2019 09:06:17 12.1 C 28 %
1352 11-10-2019 09:16:17 12.4 C 28 %
1353 11-10-2019 09:26:17 12.5 C 28 %
1354 11-10-2019 09:36:18 12.6 C 29 %
1355 11-10-2019 09:46:17 12.7 C 29 %
1356 11-10-2019 09:56:17 12.8 C 28 %
1357 11-10-2019 10:06:17 13 C 27 %
1358 11-10-2019 10:16:17 13.1 C 27 %
1359 11-10-2019 10:26:17 13.2 C 27 %
1360 11-10-2019 10:36:18 13.8 C 26 %
1361 11-10-2019 10:46:17 13.9 C 26 %
1362 11-10-2019 10:56:17 14 C 25 %
1363 11-10-2019 11:06:17 14.8 C 25 %
1364 11-10-2019 11:16:18 15.3 C 22 %
1365 11-10-2019 11:26:18 15.8 C 21 %
1366 11-10-2019 11:36:17 15.8 C 21 %
1367 11-10-2019 11:46:17 15.8 C 20 %
1368 11-10-2019 11:56:17 15.7 C 20 %
1369 11-10-2019 12:06:17 15.6 C 20 %
1370 11-10-2019 12:16:17 15.8 C 20 %
1371 11-10-2019 12:26:17 16.4 C 20 %
1372 11-10-2019 12:36:18 16.6 C 20 %
1373 11-10-2019 12:46:17 16.1 C 20 %
1374 11-10-2019 12:56:17 16 C 20 %
1375 11-10-2019 13:06:18 16.7 C 20 %
Sensor: Nr:Datum:Temp:Feuchte:
Aussen-T/F 1376 11-10-2019 13:16:17 16.6 C 20 %
1377 11-10-2019 13:26:17 16.6 C 20 %
1378 11-10-2019 13:36:17 16.9 C 20 %
1379 11-10-2019 13:46:17 17 C 20 %
1380 11-10-2019 13:56:17 16.5 C 20 %
1381 11-10-2019 14:06:17 16.4 C 20 %
1382 11-10-2019 14:16:17 16.4 C 20 %
1383 11-10-2019 14:26:17 16.3 C 20 %
1384 11-10-2019 14:36:17 16.2 C 20 %
1385 11-10-2019 14:46:17 16.4 C 20 %
1386 11-10-2019 14:56:17 16.8 C 20 %
1387 11-10-2019 15:06:17 17 C 20 %
1388 11-10-2019 15:16:17 16.8 C 20 %
1389 11-10-2019 15:26:18 16.8 C 20 %
1390 11-10-2019 15:36:17 16.7 C 20 %
1391 11-10-2019 15:46:18 16.8 C 20 %
1392 11-10-2019 15:56:18 16.6 C 20 %
1393 11-10-2019 16:06:17 16.8 C 20 %
1394 11-10-2019 16:16:17 16.7 C 20 %
1395 11-10-2019 16:26:17 16.7 C 20 %
1396 11-10-2019 16:36:18 16.7 C 20 %
1397 11-10-2019 16:46:17 16.8 C 20 %
1398 11-10-2019 16:56:17 16.8 C 20 %
1399 11-10-2019 17:06:17 17.1 C 20 %
1400 11-10-2019 17:16:17 16.9 C 20 %
Sensor: Nr:Datum:Temp:Feuchte:
Aussen-T/F 1401 11-10-2019 17:26:17 16.8 C 20 %
1402 11-10-2019 17:36:18 16.8 C 20 %
1403 11-10-2019 17:46:17 16.7 C 20 %
1404 11-10-2019 17:56:17 16.8 C 20 %
1405 11-10-2019 18:06:18 16.2 C 20 %
1406 11-10-2019 18:16:17 15.9 C 20 %
1407 11-10-2019 18:26:17 15.6 C 20 %
1408 11-10-2019 18:36:18 14.9 C 23 %
1409 11-10-2019 18:46:17 14.4 C 25 %
1410 11-10-2019 18:56:17 14 C 26 %
1411 11-10-2019 19:06:17 14 C 26 %
1412 11-10-2019 19:16:17 13.5 C 27 %
1413 11-10-2019 19:26:17 13.3 C 29 %
1414 11-10-2019 19:36:17 13.1 C 29 %
1415 11-10-2019 19:46:17 13 C 30 %
1416 11-10-2019 19:56:17 13.2 C 30 %
1417 11-10-2019 20:06:17 13.2 C 30 %
1418 11-10-2019 20:16:18 13.1 C 30 %
1419 11-10-2019 20:26:18 13 C 30 %
1420 11-10-2019 20:36:17 12.9 C 30 %
1421 11-10-2019 20:46:17 12.5 C 31 %
1422 11-10-2019 20:56:17 12.6 C 31 %
1423 11-10-2019 21:06:17 12.5 C 32 %
1424 11-10-2019 21:16:18 12.1 C 32 %
1425 11-10-2019 21:26:18 12 C 32 %
Sensor: Nr:Datum:Temp:Feuchte:
Aussen-T/F 1426 11-10-2019 21:36:17 11.7 C 35 %
1427 11-10-2019 21:46:17 11.5 C 35 %
1428 11-10-2019 21:56:17 11.3 C 35 %
1429 11-10-2019 22:06:17 11.2 C 35 %
1430 11-10-2019 22:16:17 11.2 C 36 %
1431 11-10-2019 22:26:17 11.2 C 36 %
1432 11-10-2019 22:36:18 11.1 C 36 %
1433 11-10-2019 22:46:17 11.2 C 37 %
1434 11-10-2019 22:56:17 11.2 C 36 %
1435 11-10-2019 23:06:17 11 C 36 %
1436 11-10-2019 23:16:17 11.1 C 36 %
1437 11-10-2019 23:26:17 11 C 36 %
1438 11-10-2019 23:36:18 10.8 C 37 %
1439 11-10-2019 23:46:17 10.6 C 36 %
1440 11-10-2019 23:56:17 10.5 C 37 %
1441 12-10-2019 00:06:17 10.4 C 37 %
1442 12-10-2019 00:16:18 10.5 C 37 %
1443 12-10-2019 00:26:18 10.4 C 37 %
1444 12-10-2019 00:36:17 10.2 C 36 %
1445 12-10-2019 00:46:17 9.9 C 37 %
1446 12-10-2019 00:56:17 9.8 C 37 %
1447 12-10-2019 01:06:17 9.8 C 37 %
1448 12-10-2019 01:16:17 9.7 C 37 %
1449 12-10-2019 01:26:17 9.6 C 37 %
1450 12-10-2019 01:36:17 9.8 C 37 %
Sensor: Nr:Datum:Temp:Feuchte:
Aussen-T/F 1451 12-10-2019 01:46:17 9.8 C 37 %
1452 12-10-2019 01:56:17 9.7 C 37 %
1453 12-10-2019 02:06:17 9.7 C 37 %
1454 12-10-2019 02:16:17 9.6 C 37 %
1455 12-10-2019 02:26:17 9.6 C 37 %
1456 12-10-2019 02:36:17 9.4 C 37 %
1457 12-10-2019 02:46:17 9.4 C 37 %
1458 12-10-2019 02:56:17 9.2 C 37 %
1459 12-10-2019 03:06:17 9.3 C 37 %
1460 12-10-2019 03:16:17 9.2 C 37 %
1461 12-10-2019 03:26:17 9.1 C 37 %
1462 12-10-2019 03:36:17 9 C 37 %
1463 12-10-2019 03:46:17 9 C 37 %
1464 12-10-2019 03:56:17 9 C 37 %
1465 12-10-2019 04:06:17 9.1 C 37 %
1466 12-10-2019 04:16:17 9.7 C 37 %
1467 12-10-2019 04:26:17 9.3 C 37 %
1468 12-10-2019 04:36:17 9.2 C 36 %
1469 12-10-2019 04:46:17 9 C 36 %
1470 12-10-2019 04:56:18 9 C 37 %
1471 12-10-2019 05:06:17 9.1 C 37 %
1472 12-10-2019 05:16:17 8.8 C 37 %
1473 12-10-2019 05:26:17 8.6 C 37 %
1474 12-10-2019 05:36:17 8.3 C 37 %
1475 12-10-2019 05:46:17 8.4 C 37 %
Sensor: Nr:Datum:Temp:Feuchte:
Aussen-T/F 1476 12-10-2019 05:56:17 8.2 C 37 %
1477 12-10-2019 06:06:18 8.3 C 37 %
1478 12-10-2019 06:16:17 8.1 C 37 %
1479 12-10-2019 06:26:17 8.1 C 37 %
1480 12-10-2019 06:36:18 7.9 C 37 %
1481 12-10-2019 06:46:17 7.8 C 37 %
1482 12-10-2019 06:56:17 8.1 C 37 %
1483 12-10-2019 07:06:18 8.2 C 37 %
1484 12-10-2019 07:16:17 8 C 37 %
1485 12-10-2019 07:26:17 7.8 C 37 %
1486 12-10-2019 07:36:17 7.8 C 37 %
1487 12-10-2019 07:46:17 7.9 C 37 %
1488 12-10-2019 07:56:17 8.2 C 37 %
1489 12-10-2019 08:06:17 8.5 C 37 %
1490 12-10-2019 08:16:17 8.1 C 37 %
1491 12-10-2019 08:26:17 7.9 C 37 %
1492 12-10-2019 08:36:17 7.9 C 37 %
1493 12-10-2019 08:46:17 7.9 C 37 %
1494 12-10-2019 08:56:17 8.1 C 37 %
1495 12-10-2019 09:06:17 8.2 C 37 %
1496 12-10-2019 09:16:18 8.3 C 37 %
1497 12-10-2019 09:26:18 8.5 C 37 %
1498 12-10-2019 09:36:17 9 C 37 %
1499 12-10-2019 09:46:17 9.4 C 37 %
1500 12-10-2019 09:56:17 10 C 36 %
Sensor: Nr:Datum:Temp:Feuchte:
Aussen-T/F 1501 12-10-2019 10:06:17 10.6 C 37 %
1502 12-10-2019 10:16:17 10.8 C 36 %
1503 12-10-2019 10:26:18 11.4 C 36 %
1504 12-10-2019 10:36:17 11.6 C 36 %
1505 12-10-2019 10:46:18 12.8 C 35 %
1506 12-10-2019 10:56:18 13.8 C 27 %
1507 12-10-2019 11:06:17 13.7 C 26 %
1508 12-10-2019 11:16:17 14.2 C 25 %
1509 12-10-2019 11:26:17 14.5 C 22 %
1510 12-10-2019 11:36:18 15.2 C 20 %
1511 12-10-2019 11:46:17 15.4 C 20 %
1512 12-10-2019 11:56:17 15.7 C 20 %
1513 12-10-2019 12:06:17 15.6 C 20 %
1514 12-10-2019 12:16:17 16.3 C 20 %
1515 12-10-2019 12:26:17 15.9 C 20 %
1516 12-10-2019 12:36:18 16 C 20 %
1517 12-10-2019 12:46:17 16.2 C 20 %
1518 12-10-2019 12:56:17 16.5 C 20 %
1519 12-10-2019 13:06:17 17.5 C 20 %
1520 12-10-2019 13:16:17 17.5 C 20 %
1521 12-10-2019 13:26:17 18.9 C 20 %
1522 12-10-2019 13:36:17 20.7 C 20 %
1523 12-10-2019 13:46:17 20.1 C 20 %
1524 12-10-2019 13:56:17 20 C 20 %
1525 12-10-2019 14:06:17 20.4 C 20 %
Sensor: Nr:Datum:Temp:Feuchte:
Aussen-T/F 1526 12-10-2019 14:16:17 21.3 C 20 %
1527 12-10-2019 14:26:17 21.1 C 20 %
1528 12-10-2019 14:36:17 20.7 C 20 %
1529 12-10-2019 14:46:17 20.3 C 20 %
1530 12-10-2019 14:56:17 20.1 C 20 %
1531 12-10-2019 15:06:17 20.2 C 20 %
1532 12-10-2019 15:16:17 20.6 C 20 %
1533 12-10-2019 15:26:17 20.6 C 20 %
1534 12-10-2019 15:36:17 20.6 C 20 %
1535 12-10-2019 15:46:17 20.4 C 20 %
1536 12-10-2019 15:56:17 20.2 C 20 %
1537 12-10-2019 16:06:17 20.2 C 20 %
1538 12-10-2019 16:16:17 19.5 C 20 %
1539 12-10-2019 16:26:18 19.5 C 20 %
1540 12-10-2019 16:36:18 19.6 C 20 %
1541 12-10-2019 16:46:17 19.7 C 20 %
1542 12-10-2019 16:56:17 19.9 C 20 %
1543 12-10-2019 17:06:17 19.5 C 20 %
1544 12-10-2019 17:16:17 19.2 C 20 %
1545 12-10-2019 17:26:18 19 C 20 %
1546 12-10-2019 17:36:17 18.7 C 20 %
1547 12-10-2019 17:46:18 18.4 C 20 %
1548 12-10-2019 17:56:18 17.9 C 20 %
1549 12-10-2019 18:06:17 17.3 C 20 %
1550 12-10-2019 18:16:17 17 C 20 %
Sensor: Nr:Datum:Temp:Feuchte:
Aussen-T/F 1551 12-10-2019 18:26:17 16.6 C 20 %
1552 12-10-2019 18:36:18 15.9 C 21 %
1553 12-10-2019 18:46:17 15.4 C 23 %
1554 12-10-2019 18:56:17 15.2 C 24 %
1555 12-10-2019 19:06:17 15.1 C 24 %
1556 12-10-2019 19:16:17 14.7 C 26 %
1557 12-10-2019 19:26:17 14.5 C 26 %
1558 12-10-2019 19:36:17 14.5 C 26 %
1559 12-10-2019 19:46:17 14.5 C 26 %
1560 12-10-2019 19:56:17 14.4 C 26 %
1561 12-10-2019 20:06:17 14.4 C 26 %
1562 12-10-2019 20:16:17 14 C 27 %
1563 12-10-2019 20:26:17 14 C 27 %
1564 12-10-2019 20:36:18 13.8 C 29 %
1565 12-10-2019 20:46:17 13.7 C 30 %
1566 12-10-2019 20:56:17 13.6 C 30 %
1567 12-10-2019 21:06:17 13.5 C 31 %
1568 12-10-2019 21:16:17 13.6 C 31 %
1569 12-10-2019 21:26:17 14 C 31 %
1570 12-10-2019 21:36:17 13.9 C 30 %
1571 12-10-2019 21:46:18 14.7 C 27 %
1572 12-10-2019 21:56:18 14.9 C 26 %
1573 12-10-2019 22:06:17 14.7 C 26 %
1574 12-10-2019 22:16:17 14.4 C 27 %
1575 12-10-2019 22:26:17 14 C 28 %
Sensor: Nr:Datum:Temp:Feuchte:
Aussen-T/F 1576 12-10-2019 22:36:17 13.8 C 30 %
1577 12-10-2019 22:46:17 14.1 C 31 %
1578 12-10-2019 22:56:17 13.9 C 31 %
1579 12-10-2019 23:06:17 13.7 C 32 %
1580 12-10-2019 23:16:17 13.4 C 32 %
1581 12-10-2019 23:26:17 13.4 C 33 %
1582 12-10-2019 23:36:18 13.3 C 33 %
1583 12-10-2019 23:46:17 13.1 C 34 %
1584 12-10-2019 23:56:17 13.1 C 35 %
1585 13-10-2019 00:06:17 13.2 C 35 %
1586 13-10-2019 00:16:18 12.9 C 35 %
1587 13-10-2019 00:26:18 12.6 C 35 %
1588 13-10-2019 00:36:17 12.7 C 35 %
1589 13-10-2019 00:46:17 12.4 C 35 %
1590 13-10-2019 00:56:17 12.5 C 36 %
1591 13-10-2019 01:06:18 12.4 C 35 %
1592 13-10-2019 01:16:17 12.3 C 35 %
1593 13-10-2019 01:26:17 12.3 C 35 %
1594 13-10-2019 01:36:17 12.2 C 35 %
1595 13-10-2019 01:46:17 12.1 C 35 %
1596 13-10-2019 01:56:17 12 C 35 %
1597 13-10-2019 02:06:17 12.4 C 36 %
1598 13-10-2019 02:16:18 12.7 C 36 %
1599 13-10-2019 02:26:18 12.7 C 36 %
1600 13-10-2019 02:36:17 13 C 35 %
Sensor: Nr:Datum:Temp:Feuchte:
Aussen-T/F 1601 13-10-2019 02:46:17 13.2 C 35 %
1602 13-10-2019 02:56:17 13.1 C 35 %
1603 13-10-2019 03:06:17 12.5 C 35 %
1604 13-10-2019 03:16:17 12.6 C 35 %
1605 13-10-2019 03:26:17 12.7 C 35 %
1606 13-10-2019 03:36:18 12.3 C 35 %
1607 13-10-2019 03:46:17 12.7 C 35 %
1608 13-10-2019 03:56:17 12.8 C 35 %
1609 13-10-2019 04:06:17 12.4 C 35 %
1610 13-10-2019 04:16:17 12.2 C 35 %
1611 13-10-2019 04:26:17 11.9 C 35 %
1612 13-10-2019 04:36:18 11.9 C 36 %
1613 13-10-2019 04:46:17 12 C 35 %
1614 13-10-2019 04:56:17 12.4 C 35 %
1615 13-10-2019 05:06:18 13 C 35 %
1616 13-10-2019 05:16:17 12.9 C 35 %
1617 13-10-2019 05:26:17 13 C 35 %
1618 13-10-2019 05:36:17 13 C 35 %
1619 13-10-2019 05:46:17 12.9 C 35 %
1620 13-10-2019 05:56:17 13.1 C 35 %
1621 13-10-2019 06:06:17 12.9 C 35 %
1622 13-10-2019 06:16:17 13.2 C 35 %
1623 13-10-2019 06:26:17 13.2 C 35 %
1624 13-10-2019 06:36:17 13.1 C 35 %
1625 13-10-2019 06:46:17 13 C 35 %
Sensor: Nr:Datum:Temp:Feuchte:
Aussen-T/F 1626 13-10-2019 06:56:17 13.2 C 35 %
1627 13-10-2019 07:06:17 13 C 35 %
1628 13-10-2019 07:16:18 13 C 35 %
1629 13-10-2019 07:26:18 13 C 35 %
1630 13-10-2019 07:36:17 13.2 C 35 %
1631 13-10-2019 07:46:17 13 C 35 %
1632 13-10-2019 07:56:17 13 C 35 %
1633 13-10-2019 08:06:17 12.7 C 35 %
1634 13-10-2019 08:16:18 12.2 C 35 %
1635 13-10-2019 08:26:18 12 C 35 %
1636 13-10-2019 08:36:17 11.8 C 35 %
1637 13-10-2019 08:46:18 12.7 C 35 %
1638 13-10-2019 08:56:18 12.5 C 35 %
1639 13-10-2019 09:06:17 12.8 C 35 %
1640 13-10-2019 09:16:18 13.1 C 35 %
1641 13-10-2019 09:26:18 13.6 C 35 %
1642 13-10-2019 09:36:17 13.2 C 34 %
1643 13-10-2019 09:46:18 13 C 34 %
1644 13-10-2019 09:56:18 13 C 34 %
1645 13-10-2019 10:06:17 13.6 C 35 %
1646 13-10-2019 10:16:17 14.1 C 35 %
1647 13-10-2019 10:26:17 14 C 33 %
1648 13-10-2019 10:36:17 14.3 C 33 %
1649 13-10-2019 10:46:17 14.9 C 33 %
1650 13-10-2019 10:56:17 15 C 32 %
Sensor: Nr:Datum:Temp:Feuchte:
Aussen-T/F 1651 13-10-2019 11:06:17 15.3 C 32 %
1652 13-10-2019 11:16:17 15.5 C 31 %
1653 13-10-2019 11:26:17 15.3 C 31 %
1654 13-10-2019 11:36:18 16.1 C 30 %
1655 13-10-2019 11:46:17 15.9 C 32 %
1656 13-10-2019 11:56:17 16.3 C 32 %
1657 13-10-2019 12:06:18 16.8 C 30 %
1658 13-10-2019 12:16:17 17.1 C 28 %
1659 13-10-2019 12:26:17 17.8 C 27 %
1660 13-10-2019 12:36:17 18.7 C 26 %
1661 13-10-2019 12:46:17 19.3 C 23 %
1662 13-10-2019 12:56:17 19.5 C 23 %
1663 13-10-2019 13:06:17 19.7 C 24 %
1664 13-10-2019 13:16:17 20 C 22 %
1665 13-10-2019 13:26:17 20.9 C 20 %
1666 13-10-2019 13:36:17 22.7 C 20 %
1667 13-10-2019 13:46:17 23.2 C 20 %
1668 13-10-2019 13:56:17 22.1 C 20 %
1669 13-10-2019 14:06:18 22.5 C 20 %
1670 13-10-2019 14:16:17 23.4 C 20 %
1671 13-10-2019 14:26:17 24.8 C 20 %
1672 13-10-2019 14:36:18 23.2 C 20 %
1673 13-10-2019 14:46:17 22.5 C 20 %
1674 13-10-2019 14:56:17 21.9 C 20 %
1675 13-10-2019 15:06:17 21.3 C 20 %
Sensor: Nr:Datum:Temp:Feuchte:
Aussen-T/F 1676 13-10-2019 15:16:17 21.6 C 20 %
1677 13-10-2019 15:26:17 22.1 C 20 %
1678 13-10-2019 15:36:17 22.5 C 20 %
1679 13-10-2019 15:46:17 22.1 C 20 %
1680 13-10-2019 15:56:17 22 C 20 %
1681 13-10-2019 16:06:17 22.3 C 20 %
1682 13-10-2019 16:16:18 23.1 C 20 %
1683 13-10-2019 16:26:18 23.6 C 20 %
1684 13-10-2019 16:36:17 25.1 C 20 %
1685 13-10-2019 16:46:18 25.4 C 20 %
1686 13-10-2019 16:56:18 24.8 C 20 %
1687 13-10-2019 17:06:17 25.7 C 20 %
1688 13-10-2019 17:16:17 25 C 20 %
1689 13-10-2019 17:26:17 24 C 20 %
1690 13-10-2019 17:36:18 23.6 C 20 %
1691 13-10-2019 17:46:17 22.2 C 20 %
1692 13-10-2019 17:56:17 21 C 20 %
1693 13-10-2019 18:06:18 20 C 20 %
1694 13-10-2019 18:16:17 19.4 C 20 %
1695 13-10-2019 18:26:17 19.1 C 20 %
1696 13-10-2019 18:36:17 18.7 C 21 %
1697 13-10-2019 18:46:17 18.6 C 21 %
1698 13-10-2019 18:56:17 18.2 C 22 %
1699 13-10-2019 19:06:17 18.1 C 22 %
1700 13-10-2019 19:16:18 18.1 C 22 %
Sensor: Nr:Datum:Temp:Feuchte:
Aussen-T/F 1701 13-10-2019 19:26:18 18.1 C 22 %
1702 13-10-2019 19:36:17 18.1 C 22 %
1703 13-10-2019 19:46:17 17.9 C 23 %
1704 13-10-2019 19:56:17 17.8 C 23 %
1705 13-10-2019 20:06:17 17.8 C 23 %
1706 13-10-2019 20:16:17 17.9 C 23 %
1707 13-10-2019 20:26:17 17.7 C 23 %
1708 13-10-2019 20:36:18 17.5 C 24 %
1709 13-10-2019 20:46:17 17.2 C 24 %
1710 13-10-2019 20:56:17 17.2 C 24 %
1711 13-10-2019 21:06:18 16.9 C 25 %
1712 13-10-2019 21:16:17 16.8 C 25 %
1713 13-10-2019 21:26:17 16.9 C 25 %
1714 13-10-2019 21:36:18 16.6 C 25 %
1715 13-10-2019 21:46:17 16.3 C 25 %
1716 13-10-2019 21:56:17 16.6 C 25 %
1717 13-10-2019 22:06:17 16.4 C 25 %
1718 13-10-2019 22:16:17 16.2 C 25 %
1719 13-10-2019 22:26:17 16.2 C 25 %
1720 13-10-2019 22:36:17 16 C 25 %
1721 13-10-2019 22:46:17 16.4 C 24 %
1722 13-10-2019 22:56:17 16.4 C 22 %
1723 13-10-2019 23:06:17 16.1 C 23 %
1724 13-10-2019 23:16:17 15.9 C 25 %
1725 13-10-2019 23:26:17 15.5 C 25 %
Sensor: Nr:Datum:Temp:Feuchte:
Aussen-T/F 1726 13-10-2019 23:36:17 15.4 C 26 %
1727 13-10-2019 23:46:18 15.4 C 26 %
1728 13-10-2019 23:56:18 15.4 C 26 %
1729 14-10-2019 00:06:17 15.4 C 25 %
1730 14-10-2019 00:16:17 14.9 C 26 %
1731 14-10-2019 00:26:17 14.7 C 27 %
1732 14-10-2019 00:36:17 14.8 C 27 %
1733 14-10-2019 00:46:17 14.9 C 27 %
1734 14-10-2019 00:56:17 15 C 26 %
1735 14-10-2019 01:06:17 14.8 C 27 %
1736 14-10-2019 01:16:17 14.8 C 27 %
1737 14-10-2019 01:26:17 14.6 C 27 %
1738 14-10-2019 01:36:18 14.4 C 28 %
1739 14-10-2019 01:46:17 14.6 C 27 %
1740 14-10-2019 01:56:17 14.6 C 27 %
1741 14-10-2019 02:06:17 14.5 C 27 %
1742 14-10-2019 02:16:17 14.3 C 27 %
1743 14-10-2019 02:26:17 14.1 C 28 %
1744 14-10-2019 02:36:18 14 C 29 %
1745 14-10-2019 02:46:17 13.8 C 30 %
1746 14-10-2019 02:56:17 13.6 C 30 %
1747 14-10-2019 03:06:17 13.4 C 31 %
1748 14-10-2019 03:16:17 13.2 C 31 %
1749 14-10-2019 03:26:17 13.4 C 34 %
1750 14-10-2019 03:36:17 13.3 C 32 %
Sensor: Nr:Datum:Temp:Feuchte:
Aussen-T/F 1751 14-10-2019 03:46:17 13 C 32 %
1752 14-10-2019 03:56:17 12.8 C 34 %
1753 14-10-2019 04:06:17 12.8 C 35 %
1754 14-10-2019 04:16:17 12.6 C 35 %
1755 14-10-2019 04:26:18 12.4 C 35 %
1756 14-10-2019 04:36:17 12.3 C 35 %
1757 14-10-2019 04:46:17 12.2 C 35 %
1758 14-10-2019 04:56:17 12.3 C 35 %
1759 14-10-2019 05:06:17 12.4 C 36 %
1760 14-10-2019 05:16:17 12.8 C 36 %
1761 14-10-2019 05:26:17 12.8 C 36 %
1762 14-10-2019 05:36:18 12.9 C 36 %
1763 14-10-2019 05:46:17 12.8 C 35 %
1764 14-10-2019 05:56:17 12.7 C 35 %
1765 14-10-2019 06:06:17 12.3 C 34 %
1766 14-10-2019 06:16:17 12 C 34 %
1767 14-10-2019 06:26:17 12 C 35 %
1768 14-10-2019 06:36:18 11.9 C 36 %
1769 14-10-2019 06:46:17 11.7 C 35 %
1770 14-10-2019 06:56:17 11.7 C 36 %
1771 14-10-2019 07:06:17 11.6 C 36 %
1772 14-10-2019 07:16:17 11.8 C 36 %
1773 14-10-2019 07:26:17 11.9 C 36 %
1774 14-10-2019 07:36:17 12.1 C 36 %
1775 14-10-2019 07:46:17 12.5 C 36 %
Sensor: Nr:Datum:Temp:Feuchte:
Aussen-T/F 1776 14-10-2019 07:56:17 12.4 C 36 %
1777 14-10-2019 08:06:17 12.4 C 35 %
1778 14-10-2019 08:16:17 12.2 C 35 %
1779 14-10-2019 08:26:17 12.3 C 35 %
1780 14-10-2019 08:36:18 12.5 C 35 %
1781 14-10-2019 08:46:17 12.5 C 35 %
1782 14-10-2019 08:56:17 12.6 C 35 %
1783 14-10-2019 09:06:17 12.8 C 34 %
1784 14-10-2019 09:16:17 12.9 C 34 %
1785 14-10-2019 09:26:17 13 C 32 %
1786 14-10-2019 09:36:18 13 C 32 %
1787 14-10-2019 09:46:17 13 C 32 %
1788 14-10-2019 09:56:17 13.1 C 33 %
1789 14-10-2019 10:06:18 13.1 C 33 %
1790 14-10-2019 10:16:17 13.1 C 33 %
1791 14-10-2019 10:26:17 13.2 C 33 %
1792 14-10-2019 10:36:17 13.3 C 34 %
1793 14-10-2019 10:46:17 13.7 C 35 %
1794 14-10-2019 10:56:17 13.9 C 35 %
1795 14-10-2019 11:06:17 14.1 C 33 %
1796 14-10-2019 11:16:17 14.5 C 32 %
1797 14-10-2019 11:26:17 14.7 C 32 %
1798 14-10-2019 11:36:17 15.4 C 29 %
1799 14-10-2019 11:46:18 15.4 C 29 %
1800 14-10-2019 11:56:18 16.1 C 27 %
Sensor: Nr:Datum:Temp:Feuchte:
Aussen-T/F 1801 14-10-2019 12:06:17 16.5 C 26 %
1802 14-10-2019 12:16:17 17.1 C 25 %
1803 14-10-2019 12:26:17 17.2 C 25 %
1804 14-10-2019 12:36:17 17.3 C 25 %
1805 14-10-2019 12:46:17 17.5 C 24 %
1806 14-10-2019 12:56:17 18.1 C 23 %
1807 14-10-2019 13:06:17 18.2 C 23 %
1808 14-10-2019 13:16:17 19 C 21 %
1809 14-10-2019 13:26:17 19.9 C 20 %
1810 14-10-2019 13:36:17 21.6 C 20 %
1811 14-10-2019 13:46:17 23 C 20 %
1812 14-10-2019 13:56:17 22.6 C 20 %
1813 14-10-2019 14:06:17 22.9 C 20 %
1814 14-10-2019 14:16:17 24.6 C 20 %
1815 14-10-2019 14:26:17 22.5 C 20 %
1816 14-10-2019 14:36:18 21.8 C 20 %
1817 14-10-2019 14:46:17 21.4 C 20 %
1818 14-10-2019 14:56:17 21 C 20 %
1819 14-10-2019 15:06:17 20.1 C 20 %
1820 14-10-2019 15:16:17 21.1 C 20 %
1821 14-10-2019 15:26:17 20.9 C 20 %
1822 14-10-2019 15:36:18 20.6 C 20 %
1823 14-10-2019 15:46:17 20.5 C 20 %
1824 14-10-2019 15:56:17 20.9 C 20 %
1825 14-10-2019 16:06:17 21.3 C 20 %
Sensor: Nr:Datum:Temp:Feuchte:
Aussen-T/F 1826 14-10-2019 16:16:18 21.3 C 20 %
1827 14-10-2019 16:26:18 22.4 C 20 %
1828 14-10-2019 16:36:17 23.7 C 20 %
1829 14-10-2019 16:46:17 23.6 C 20 %
1830 14-10-2019 16:56:17 23.8 C 20 %
1831 14-10-2019 17:06:17 22.8 C 20 %
1832 14-10-2019 17:16:18 22.9 C 20 %
1833 14-10-2019 17:26:18 22.4 C 20 %
1834 14-10-2019 17:36:17 21.6 C 20 %
1835 14-10-2019 17:46:17 21.2 C 20 %
1836 14-10-2019 17:56:17 20 C 20 %
1837 14-10-2019 18:06:17 19.6 C 20 %
1838 14-10-2019 18:16:17 18.6 C 20 %
1839 14-10-2019 18:26:17 18.2 C 20 %
1840 14-10-2019 18:36:18 17.9 C 20 %
1841 14-10-2019 18:46:17 17.5 C 20 %
1842 14-10-2019 18:56:17 17.2 C 21 %
1843 14-10-2019 19:06:17 16.8 C 22 %
1844 14-10-2019 19:16:17 16.9 C 22 %
1845 14-10-2019 19:26:17 16.4 C 23 %
1846 14-10-2019 19:36:17 16.4 C 24 %
1847 14-10-2019 19:46:17 16.4 C 24 %
1848 14-10-2019 19:56:17 16.3 C 24 %
1849 14-10-2019 20:06:18 16.1 C 24 %
1850 14-10-2019 20:16:17 15.8 C 25 %
Sensor: Nr:Datum:Temp:Feuchte:
Aussen-T/F 1851 14-10-2019 20:26:17 16.2 C 25 %
1852 14-10-2019 20:36:17 15.7 C 25 %
1853 14-10-2019 20:46:17 15.7 C 25 %
1854 14-10-2019 20:56:18 15.7 C 25 %
1855 14-10-2019 21:06:17 15.1 C 25 %
1856 14-10-2019 21:16:17 15.2 C 25 %
1857 14-10-2019 21:26:17 15 C 25 %
1858 14-10-2019 21:36:17 14.8 C 26 %
1859 14-10-2019 21:46:17 14.7 C 27 %
1860 14-10-2019 21:56:17 14.2 C 28 %
1861 14-10-2019 22:06:17 14.1 C 28 %
1862 14-10-2019 22:16:17 14.2 C 30 %
1863 14-10-2019 22:26:17 14.2 C 30 %
1864 14-10-2019 22:36:17 14.2 C 30 %
1865 14-10-2019 22:46:17 14.2 C 29 %
1866 14-10-2019 22:56:17 14.7 C 28 %
1867 14-10-2019 23:06:17 14.5 C 27 %
1868 14-10-2019 23:16:17 14.7 C 27 %
1869 14-10-2019 23:26:17 14.6 C 27 %
1870 14-10-2019 23:36:17 14.4 C 27 %
1871 14-10-2019 23:46:17 14.5 C 27 %
1872 14-10-2019 23:56:17 14.4 C 27 %
1873 15-10-2019 00:06:17 14.5 C 27 %
1874 15-10-2019 00:16:17 14.3 C 27 %
1875 15-10-2019 00:26:18 14.4 C 27 %
Sensor: Nr:Datum:Temp:Feuchte:
Aussen-T/F 1876 15-10-2019 00:36:17 14.4 C 27 %
1877 15-10-2019 00:47:17 14.1 C 27 %
1878 15-10-2019 00:57:17 14.1 C 28 %
1879 15-10-2019 01:06:18 14 C 29 %
1880 15-10-2019 01:16:17 13.5 C 30 %
1881 15-10-2019 01:26:17 13.4 C 31 %
1882 15-10-2019 01:36:17 13.4 C 32 %
1883 15-10-2019 01:46:17 13.4 C 32 %
1884 15-10-2019 01:56:17 13.2 C 31 %
1885 15-10-2019 02:07:17 12.9 C 32 %
1886 15-10-2019 02:16:17 12.7 C 33 %
1887 15-10-2019 02:26:17 12.7 C 35 %
1888 15-10-2019 02:36:17 12.5 C 34 %
1889 15-10-2019 02:46:17 12.2 C 34 %
1890 15-10-2019 02:56:18 12.3 C 35 %
1891 15-10-2019 03:06:17 11.9 C 36 %
1892 15-10-2019 03:16:18 12.1 C 36 %
1893 15-10-2019 03:26:18 12.1 C 36 %
1894 15-10-2019 03:36:17 11.7 C 36 %
1895 15-10-2019 03:46:17 11.8 C 36 %
1896 15-10-2019 03:56:18 11.7 C 36 %
1897 15-10-2019 04:06:17 11.8 C 36 %
1898 15-10-2019 04:17:17 11.6 C 36 %
1899 15-10-2019 04:27:17 11.7 C 36 %
1900 15-10-2019 04:36:18 11.7 C 37 %
Sensor: Nr:Datum:Temp:Feuchte:
Aussen-T/F 1901 15-10-2019 04:47:17 11.5 C 36 %
1902 15-10-2019 04:57:17 11.4 C 36 %
1903 15-10-2019 05:06:17 11.2 C 36 %
1904 15-10-2019 05:16:17 11.3 C 36 %
1905 15-10-2019 05:26:17 11.4 C 36 %
1906 15-10-2019 05:36:18 11.2 C 36 %
1907 15-10-2019 05:46:17 11.1 C 36 %
1908 15-10-2019 05:56:17 11.3 C 36 %
1909 15-10-2019 06:07:17 11.2 C 36 %
1910 15-10-2019 06:16:17 11.2 C 36 %
1911 15-10-2019 06:26:17 11.5 C 36 %
1912 15-10-2019 06:37:17 11.7 C 36 %
1913 15-10-2019 06:47:17 11.6 C 36 %
1914 15-10-2019 06:56:17 11.4 C 36 %
1915 15-10-2019 07:06:18 11.5 C 36 %
1916 15-10-2019 07:17:17 11.3 C 36 %
1917 15-10-2019 07:26:17 11.3 C 36 %
1918 15-10-2019 07:36:18 11.2 C 36 %
1919 15-10-2019 07:47:17 11.2 C 36 %
1920 15-10-2019 07:57:17 11 C 36 %
1921 15-10-2019 08:06:18 11.2 C 36 %
1922 15-10-2019 08:17:17 11.2 C 36 %
1923 15-10-2019 08:27:17 11.2 C 36 %
1924 15-10-2019 08:37:17 11.3 C 36 %
1925 15-10-2019 08:46:18 11.4 C 36 %
Sensor: Nr:Datum:Temp:Feuchte:
Aussen-T/F 1926 15-10-2019 08:56:18 11.6 C 36 %
1927 15-10-2019 09:07:17 11.8 C 36 %
1928 15-10-2019 09:17:17 11.9 C 36 %
1929 15-10-2019 09:27:17 12.2 C 35 %
1930 15-10-2019 09:37:17 12.4 C 35 %
1931 15-10-2019 09:47:17 12.6 C 35 %
1932 15-10-2019 09:57:17 12.9 C 35 %
1933 15-10-2019 10:07:17 12.9 C 32 %
1934 15-10-2019 10:17:17 13.5 C 32 %
1935 15-10-2019 10:27:17 13.4 C 30 %
1936 15-10-2019 10:36:17 13.3 C 30 %
1937 15-10-2019 10:47:17 13.9 C 30 %
1938 15-10-2019 10:57:17 14.6 C 28 %
1939 15-10-2019 11:07:17 15.2 C 27 %
1940 15-10-2019 11:17:17 15.2 C 27 %
1941 15-10-2019 11:27:17 16.5 C 23 %
1942 15-10-2019 11:36:18 17 C 21 %
1943 15-10-2019 11:47:17 17.1 C 21 %
1944 15-10-2019 11:57:17 17.4 C 21 %
1945 15-10-2019 12:07:17 17.8 C 20 %
1946 15-10-2019 12:17:17 18.3 C 20 %
1947 15-10-2019 12:27:17 18.4 C 20 %
1948 15-10-2019 12:37:17 18.6 C 20 %
1949 15-10-2019 12:47:17 18.4 C 20 %
1950 15-10-2019 12:57:17 18.5 C 20 %
Sensor: Nr:Datum:Temp:Feuchte:
Aussen-T/F 1951 15-10-2019 13:06:18 18.6 C 20 %
1952 15-10-2019 13:17:17 18.5 C 20 %
1953 15-10-2019 13:27:17 18.4 C 20 %
1954 15-10-2019 13:37:17 18.2 C 20 %
1955 15-10-2019 13:47:17 18.2 C 20 %
1956 15-10-2019 13:57:17 18 C 20 %
1957 15-10-2019 14:07:17 18 C 20 %
1958 15-10-2019 14:17:17 18 C 20 %
1959 15-10-2019 14:27:17 17.9 C 20 %
1960 15-10-2019 14:37:17 17.7 C 20 %
1961 15-10-2019 14:47:17 17.7 C 20 %
1962 15-10-2019 14:57:17 17.7 C 20 %
1963 15-10-2019 15:07:17 17.8 C 20 %
1964 15-10-2019 15:17:17 17.6 C 20 %
1965 15-10-2019 15:27:17 17 C 20 %
1966 15-10-2019 15:37:18 16.4 C 20 %
1967 15-10-2019 15:47:17 16.5 C 20 %
1968 15-10-2019 15:57:17 16.6 C 20 %
1969 15-10-2019 16:07:18 16.6 C 20 %
1970 15-10-2019 16:17:17 16.8 C 20 %
1971 15-10-2019 16:27:17 16.8 C 20 %
1972 15-10-2019 16:37:17 17 C 20 %
1973 15-10-2019 16:47:17 16.8 C 20 %
1974 15-10-2019 16:57:17 16.6 C 20 %
1975 15-10-2019 17:07:17 16.2 C 20 %
Sensor: Nr:Datum:Temp:Feuchte:
Aussen-T/F 1976 15-10-2019 17:17:18 16 C 21 %
1977 15-10-2019 17:27:18 15.4 C 25 %
1978 15-10-2019 17:37:17 15 C 27 %
1979 15-10-2019 17:47:17 14.9 C 28 %
1980 15-10-2019 17:57:18 14.7 C 30 %
1981 15-10-2019 18:07:17 14.6 C 29 %
1982 15-10-2019 18:17:18 14.4 C 28 %
1983 15-10-2019 18:27:18 14.1 C 29 %
1984 15-10-2019 18:37:17 14 C 31 %
1985 15-10-2019 18:47:17 14 C 31 %
1986 15-10-2019 18:57:17 13.9 C 31 %
1987 15-10-2019 19:07:17 13.8 C 31 %
1988 15-10-2019 19:17:17 13.7 C 32 %
1989 15-10-2019 19:27:17 13.7 C 33 %
1990 15-10-2019 19:37:17 13.6 C 33 %
1991 15-10-2019 19:47:17 13.6 C 33 %
1992 15-10-2019 19:57:17 13.5 C 33 %
1993 15-10-2019 20:07:18 13.5 C 35 %
1994 15-10-2019 20:17:17 13.3 C 35 %
1995 15-10-2019 20:27:17 13.3 C 35 %
1996 15-10-2019 20:37:17 13.2 C 35 %
1997 15-10-2019 20:47:17 13.2 C 35 %
1998 15-10-2019 20:57:17 13.1 C 35 %
1999 15-10-2019 21:07:18 13.1 C 35 %
2000 15-10-2019 21:17:17 13.1 C 35 %
Sensor: Nr:Datum:Temp:Feuchte:
Aussen-T/F 2001 15-10-2019 21:27:17 13 C 35 %
2002 15-10-2019 21:37:17 13 C 35 %
2003 15-10-2019 21:47:17 13 C 35 %
2004 15-10-2019 21:57:17 12.9 C 35 %
2005 15-10-2019 22:07:17 12.9 C 35 %
2006 15-10-2019 22:17:17 13 C 34 %
2007 15-10-2019 22:27:17 13 C 34 %
2008 15-10-2019 22:37:17 13.1 C 32 %
2009 15-10-2019 22:47:17 12.9 C 34 %
2010 15-10-2019 22:57:17 12.9 C 34 %
2011 15-10-2019 23:07:17 13 C 34 %
2012 15-10-2019 23:17:18 13 C 27 %
2013 15-10-2019 23:27:18 12.7 C 27 %
2014 15-10-2019 23:37:17 12.2 C 27 %
2015 15-10-2019 23:47:17 12.3 C 26 %
2016 15-10-2019 23:57:17 11.9 C 29 %
2017 16-10-2019 00:07:17 11.8 C 29 %
2018 16-10-2019 00:17:17 11.8 C 29 %
2019 16-10-2019 00:27:17 11.9 C 29 %
2020 16-10-2019 00:37:18 11.5 C 31 %
2021 16-10-2019 00:47:17 11.4 C 33 %
2022 16-10-2019 00:57:17 11.4 C 35 %
2023 16-10-2019 01:07:18 11.4 C 35 %
2024 16-10-2019 01:17:17 11.3 C 35 %
2025 16-10-2019 01:27:17 11.4 C 35 %
Sensor: Nr:Datum:Temp:Feuchte:
Aussen-T/F 2026 16-10-2019 01:37:17 11.3 C 35 %
2027 16-10-2019 01:47:17 11.4 C 35 %
2028 16-10-2019 01:57:17 11.3 C 35 %
2029 16-10-2019 02:07:17 11.3 C 36 %
2030 16-10-2019 02:17:17 11.2 C 36 %
2031 16-10-2019 02:27:17 11.3 C 36 %
2032 16-10-2019 02:37:17 11.4 C 35 %
2033 16-10-2019 02:47:18 11.3 C 35 %
2034 16-10-2019 02:57:18 11.3 C 35 %
2035 16-10-2019 03:07:17 11.4 C 35 %
2036 16-10-2019 03:17:17 11.3 C 33 %
2037 16-10-2019 03:27:17 11.3 C 33 %
2038 16-10-2019 03:37:18 11.5 C 31 %
2039 16-10-2019 03:47:17 11.4 C 30 %
2040 16-10-2019 03:57:17 11.4 C 30 %
2041 16-10-2019 04:07:18 11.5 C 29 %
2042 16-10-2019 04:17:17 11.4 C 30 %
2043 16-10-2019 04:27:17 11.4 C 29 %
2044 16-10-2019 04:37:17 11.3 C 30 %
2045 16-10-2019 04:47:17 11.2 C 31 %
2046 16-10-2019 04:57:17 11.2 C 31 %
2047 16-10-2019 05:07:18 11.2 C 29 %
2048 16-10-2019 05:17:17 11.1 C 31 %
2049 16-10-2019 05:27:17 11.2 C 30 %
2050 16-10-2019 05:37:18 11.1 C 30 %
Sensor: Nr:Datum:Temp:Feuchte:
Aussen-T/F 2051 16-10-2019 05:47:17 10.9 C 31 %
2052 16-10-2019 05:57:17 11 C 30 %
2053 16-10-2019 06:07:17 11 C 28 %
2054 16-10-2019 06:17:17 11.1 C 27 %
2055 16-10-2019 06:27:17 10.9 C 26 %
2056 16-10-2019 06:37:17 11.1 C 26 %
2057 16-10-2019 06:47:17 11.6 C 25 %
2058 16-10-2019 06:57:17 11.6 C 25 %
2059 16-10-2019 07:07:17 11 C 26 %
2060 16-10-2019 07:17:17 10.6 C 29 %
2061 16-10-2019 07:27:17 10.4 C 30 %
2062 16-10-2019 07:37:18 10.5 C 28 %
2063 16-10-2019 07:47:17 10.5 C 28 %
2064 16-10-2019 07:57:17 10.5 C 27 %
2065 16-10-2019 08:07:18 10.5 C 27 %
2066 16-10-2019 08:17:17 10.4 C 27 %
2067 16-10-2019 08:27:17 10.7 C 26 %
2068 16-10-2019 08:37:17 10.1 C 29 %
2069 16-10-2019 08:47:17 9.8 C 32 %
2070 16-10-2019 08:57:17 9.8 C 33 %
2071 16-10-2019 09:07:17 9.9 C 32 %
2072 16-10-2019 09:17:17 9.9 C 35 %
2073 16-10-2019 09:27:17 10.7 C 36 %
2074 16-10-2019 09:37:17 11.4 C 27 %
2075 16-10-2019 09:47:17 12 C 24 %
Sensor: Nr:Datum:Temp:Feuchte:
Aussen-T/F 2076 16-10-2019 09:57:17 12.2 C 23 %
2077 16-10-2019 10:07:17 12.5 C 22 %
2078 16-10-2019 10:17:17 12.6 C 22 %
2079 16-10-2019 10:27:17 12.7 C 20 %
2080 16-10-2019 10:37:18 13.2 C 20 %
2081 16-10-2019 10:47:17 13.6 C 20 %
2082 16-10-2019 10:57:17 13.6 C 20 %
2083 16-10-2019 11:07:17 14.1 C 20 %
2084 16-10-2019 11:17:17 14.4 C 20 %
2085 16-10-2019 11:27:17 14.3 C 20 %
2086 16-10-2019 11:37:17 14.3 C 20 %
2087 16-10-2019 11:47:17 14.7 C 20 %
2088 16-10-2019 11:57:17 14.9 C 20 %
2089 16-10-2019 12:07:17 14.9 C 20 %
2090 16-10-2019 12:17:17 15 C 20 %
2091 16-10-2019 12:27:17 14.6 C 20 %
2092 16-10-2019 12:37:17 14.2 C 20 %
2093 16-10-2019 12:47:17 13.6 C 20 %
2094 16-10-2019 12:57:17 13.3 C 25 %
2095 16-10-2019 13:07:17 13.4 C 27 %
2096 16-10-2019 13:17:17 13.5 C 27 %
2097 16-10-2019 13:27:17 13.5 C 27 %
2098 16-10-2019 13:37:18 13.4 C 27 %
2099 16-10-2019 13:47:17 13.3 C 29 %
2100 16-10-2019 13:57:17 13 C 28 %
Sensor: Nr:Datum:Temp:Feuchte:
Aussen-T/F 2101 16-10-2019 14:07:17 13 C 30 %
2102 16-10-2019 14:17:17 13 C 30 %
2103 16-10-2019 14:27:17 13 C 30 %
2104 16-10-2019 14:37:17 13 C 30 %
2105 16-10-2019 14:47:17 13 C 30 %
2106 16-10-2019 14:57:17 13.1 C 29 %
2107 16-10-2019 15:07:17 13.6 C 27 %
2108 16-10-2019 15:17:17 13.8 C 26 %
2109 16-10-2019 15:27:17 13.8 C 26 %
2110 16-10-2019 15:37:18 14.5 C 25 %
2111 16-10-2019 15:47:17 14.6 C 25 %
2112 16-10-2019 15:57:17 14.3 C 25 %
2113 16-10-2019 16:07:17 14.4 C 24 %
2114 16-10-2019 16:17:17 15.4 C 21 %
2115 16-10-2019 16:27:17 15.8 C 20 %
2116 16-10-2019 16:37:18 15.1 C 20 %
2117 16-10-2019 16:47:17 14.8 C 25 %
2118 16-10-2019 16:57:17 14.6 C 25 %
2119 16-10-2019 17:07:17 14.2 C 26 %
2120 16-10-2019 17:17:17 14.2 C 27 %
2121 16-10-2019 17:27:17 14.1 C 27 %
2122 16-10-2019 17:37:18 14.3 C 27 %
2123 16-10-2019 17:47:17 14.6 C 26 %
2124 16-10-2019 17:57:17 14 C 26 %
2125 16-10-2019 18:07:17 13.8 C 30 %
Sensor: Nr:Datum:Temp:Feuchte:
Aussen-T/F 2126 16-10-2019 18:17:17 13.7 C 30 %
2127 16-10-2019 18:27:17 13.4 C 32 %
2128 16-10-2019 18:37:18 13.4 C 33 %
2129 16-10-2019 18:47:17 13.3 C 33 %
2130 16-10-2019 18:57:17 13.2 C 34 %
2131 16-10-2019 19:07:18 13.2 C 34 %
2132 16-10-2019 19:17:17 13.1 C 34 %
2133 16-10-2019 19:27:17 13.1 C 34 %
2134 16-10-2019 19:37:17 13.1 C 34 %
2135 16-10-2019 19:47:17 13.1 C 35 %
2136 16-10-2019 19:57:17 13.1 C 34 %
2137 16-10-2019 20:07:17 13 C 34 %
2138 16-10-2019 20:17:18 12.9 C 35 %
2139 16-10-2019 20:27:18 12.7 C 35 %
2140 16-10-2019 20:37:17 12.7 C 35 %
2141 16-10-2019 20:47:17 12.5 C 35 %
2142 16-10-2019 20:57:17 12.4 C 35 %
2143 16-10-2019 21:07:17 12.3 C 35 %
2144 16-10-2019 21:17:17 12.1 C 35 %
2145 16-10-2019 21:27:17 12.1 C 35 %
2146 16-10-2019 21:37:17 12 C 35 %
2147 16-10-2019 21:47:17 12.1 C 35 %
2148 16-10-2019 21:57:17 12.1 C 35 %
2149 16-10-2019 22:07:17 12.1 C 35 %
2150 16-10-2019 22:17:17 12 C 35 %
Sensor: Nr:Datum:Temp:Feuchte:
Aussen-T/F 2151 16-10-2019 22:27:17 12 C 35 %
2152 16-10-2019 22:37:18 12.1 C 35 %
2153 16-10-2019 22:47:17 12.1 C 35 %
2154 16-10-2019 22:57:17 12 C 34 %
2155 16-10-2019 23:07:18 12.1 C 34 %
2156 16-10-2019 23:17:17 12 C 33 %
2157 16-10-2019 23:27:17 12.1 C 33 %
2158 16-10-2019 23:37:17 11.9 C 34 %
2159 16-10-2019 23:47:17 12.2 C 30 %
2160 16-10-2019 23:57:17 12.2 C 30 %
2161 17-10-2019 00:07:17 12.3 C 30 %
2162 17-10-2019 00:17:17 12.4 C 30 %
2163 17-10-2019 00:27:17 12.3 C 30 %
2164 17-10-2019 00:37:17 12.3 C 31 %
2165 17-10-2019 00:47:17 12.3 C 31 %
2166 17-10-2019 00:57:17 12.3 C 32 %
2167 17-10-2019 01:07:18 12.2 C 32 %
2168 17-10-2019 01:17:17 12.2 C 33 %
2169 17-10-2019 01:27:17 12 C 34 %
2170 17-10-2019 01:37:18 11.7 C 35 %
2171 17-10-2019 01:47:17 11.7 C 35 %
2172 17-10-2019 01:57:17 11.4 C 35 %
2173 17-10-2019 02:07:18 11.7 C 35 %
2174 17-10-2019 02:17:17 11.8 C 34 %
2175 17-10-2019 02:27:17 12 C 32 %
Sensor: Nr:Datum:Temp:Feuchte:
Aussen-T/F 2176 17-10-2019 02:37:17 12 C 31 %
2177 17-10-2019 02:47:18 12.2 C 31 %
2178 17-10-2019 02:57:18 12.4 C 30 %
2179 17-10-2019 03:07:17 12.4 C 30 %
2180 17-10-2019 03:17:17 12.3 C 30 %
2181 17-10-2019 03:27:18 12.3 C 30 %
2182 17-10-2019 03:37:17 12.6 C 28 %
2183 17-10-2019 03:47:17 13 C 25 %
2184 17-10-2019 03:57:17 13.1 C 25 %
2185 17-10-2019 04:07:17 13.4 C 25 %
2186 17-10-2019 04:17:17 13.1 C 25 %
2187 17-10-2019 04:27:17 13.4 C 25 %
2188 17-10-2019 04:37:17 13.3 C 25 %
2189 17-10-2019 04:47:17 13.4 C 25 %
2190 17-10-2019 04:57:17 13.6 C 23 %
2191 17-10-2019 05:07:18 13.6 C 25 %
2192 17-10-2019 05:17:17 13.7 C 23 %
2193 17-10-2019 05:27:17 14.1 C 21 %
2194 17-10-2019 05:37:17 14.1 C 21 %
2195 17-10-2019 05:47:17 13.8 C 23 %
2196 17-10-2019 05:57:17 13.8 C 22 %
2197 17-10-2019 06:07:17 13.8 C 23 %
2198 17-10-2019 06:17:17 13.7 C 23 %
2199 17-10-2019 06:27:17 14 C 22 %
2200 17-10-2019 06:37:18 13.7 C 23 %
Sensor: Nr:Datum:Temp:Feuchte:
Aussen-T/F 2201 17-10-2019 06:47:17 14.1 C 21 %
2202 17-10-2019 06:57:17 13.8 C 23 %
2203 17-10-2019 07:07:17 13.7 C 23 %
2204 17-10-2019 07:17:18 13.5 C 25 %
2205 17-10-2019 07:27:18 13.5 C 25 %
2206 17-10-2019 07:37:17 13.8 C 24 %
2207 17-10-2019 07:47:18 14.1 C 22 %
2208 17-10-2019 07:57:18 14.2 C 22 %
2209 17-10-2019 08:07:17 13.7 C 25 %
2210 17-10-2019 08:17:17 13.8 C 25 %
2211 17-10-2019 08:27:17 15.2 C 20 %
2212 17-10-2019 08:37:17 15.3 C 20 %
2213 17-10-2019 08:47:17 15.2 C 20 %
2214 17-10-2019 08:57:17 15.3 C 20 %
2215 17-10-2019 09:07:17 15.3 C 20 %
2216 17-10-2019 09:17:17 15.4 C 20 %
2217 17-10-2019 09:27:17 15.5 C 20 %
2218 17-10-2019 09:37:18 15.5 C 20 %
2219 17-10-2019 09:47:17 15.5 C 20 %
2220 17-10-2019 09:57:17 15.4 C 20 %
2221 17-10-2019 10:07:18 15.7 C 20 %
2222 17-10-2019 10:17:17 15.9 C 20 %
2223 17-10-2019 10:27:17 16.2 C 20 %
2224 17-10-2019 10:37:17 16.4 C 20 %
2225 17-10-2019 10:47:17 16.5 C 20 %
Sensor: Nr:Datum:Temp:Feuchte:
Aussen-T/F 2226 17-10-2019 10:57:17 16.6 C 20 %
2227 17-10-2019 11:07:17 17 C 20 %
2228 17-10-2019 11:17:17 17.2 C 20 %
2229 17-10-2019 11:27:18 17.2 C 20 %
2230 17-10-2019 11:37:17 17.1 C 20 %
2231 17-10-2019 11:47:17 16.9 C 20 %
2232 17-10-2019 11:57:17 16.8 C 20 %
2233 17-10-2019 12:07:17 16.5 C 20 %
2234 17-10-2019 12:17:17 16.4 C 20 %
2235 17-10-2019 12:27:18 16.3 C 20 %
2236 17-10-2019 12:37:17 16.6 C 20 %
2237 17-10-2019 12:47:17 16.8 C 20 %
2238 17-10-2019 12:57:17 17.2 C 20 %
2239 17-10-2019 13:07:18 17.1 C 20 %
2240 17-10-2019 13:17:17 17 C 20 %
2241 17-10-2019 13:27:17 16.8 C 20 %
2242 17-10-2019 13:37:17 17 C 20 %
2243 17-10-2019 13:47:17 17.2 C 20 %
2244 17-10-2019 13:57:17 17.3 C 20 %
2245 17-10-2019 14:07:17 17.3 C 20 %
2246 17-10-2019 14:17:17 16.7 C 20 %
2247 17-10-2019 14:27:17 16.4 C 20 %
2248 17-10-2019 14:37:17 16.2 C 20 %
2249 17-10-2019 14:47:18 16.6 C 20 %
2250 17-10-2019 14:57:18 16.7 C 20 %
Sensor: Nr:Datum:Temp:Feuchte:
Aussen-T/F 2251 17-10-2019 15:07:17 16.7 C 20 %
2252 17-10-2019 15:17:17 16.8 C 20 %
2253 17-10-2019 15:27:17 16.7 C 20 %
2254 17-10-2019 15:37:17 16.2 C 20 %
2255 17-10-2019 15:47:17 16 C 20 %
2256 17-10-2019 15:57:17 15.1 C 25 %
2257 17-10-2019 16:07:18 14.9 C 30 %
2258 17-10-2019 16:17:17 14.9 C 30 %
2259 17-10-2019 16:27:17 14.8 C 31 %
2260 17-10-2019 16:37:17 14.7 C 31 %
2261 17-10-2019 16:47:17 14.6 C 34 %
2262 17-10-2019 16:57:17 14.5 C 35 %
2263 17-10-2019 17:07:18 14.5 C 35 %
2264 17-10-2019 17:17:17 14.4 C 35 %
2265 17-10-2019 17:27:17 14.4 C 35 %
2266 17-10-2019 17:37:17 14.3 C 35 %
2267 17-10-2019 17:47:17 14.2 C 35 %
2268 17-10-2019 17:57:17 14.2 C 35 %
2269 17-10-2019 18:07:17 14.2 C 35 %
2270 17-10-2019 18:17:18 14 C 35 %
2271 17-10-2019 18:27:18 13.9 C 36 %
2272 17-10-2019 18:37:17 13.8 C 36 %
2273 17-10-2019 18:47:17 13.7 C 35 %
2274 17-10-2019 18:57:17 13.7 C 36 %
2275 17-10-2019 19:07:17 13.6 C 36 %
Sensor: Nr:Datum:Temp:Feuchte:
Aussen-T/F 2276 17-10-2019 19:17:17 13.5 C 35 %
2277 17-10-2019 19:27:17 13.5 C 35 %
2278 17-10-2019 19:37:17 13.5 C 35 %
2279 17-10-2019 19:47:17 13.5 C 35 %
2280 17-10-2019 19:57:17 13.5 C 35 %
2281 17-10-2019 20:07:17 13.5 C 35 %
2282 17-10-2019 20:17:17 13.5 C 35 %
2283 17-10-2019 20:27:18 13.5 C 35 %
2284 17-10-2019 20:37:17 13.5 C 35 %
2285 17-10-2019 20:47:17 13.4 C 35 %
2286 17-10-2019 20:57:17 13.4 C 35 %
2287 17-10-2019 21:07:17 13.4 C 35 %
2288 17-10-2019 21:17:17 13.4 C 35 %
2289 17-10-2019 21:27:17 13.4 C 35 %
2290 17-10-2019 21:37:17 13.4 C 35 %
2291 17-10-2019 21:47:17 13.5 C 35 %
2292 17-10-2019 21:57:17 13.4 C 35 %
2293 17-10-2019 22:07:17 13.4 C 35 %
2294 17-10-2019 22:17:17 13.3 C 35 %
2295 17-10-2019 22:27:18 13.3 C 35 %
2296 17-10-2019 22:37:17 13.3 C 35 %
2297 17-10-2019 22:47:17 13.4 C 35 %
2298 17-10-2019 22:57:17 13.4 C 35 %
2299 17-10-2019 23:07:17 13.4 C 35 %
2300 17-10-2019 23:17:17 13.4 C 35 %
Sensor: Nr:Datum:Temp:Feuchte:
Aussen-T/F 2301 17-10-2019 23:27:17 13.4 C 35 %
2302 17-10-2019 23:37:17 13.5 C 35 %
2303 17-10-2019 23:47:18 13.5 C 35 %
2304 17-10-2019 23:57:18 13.4 C 35 %
2305 18-10-2019 00:07:17 13.4 C 35 %
2306 18-10-2019 00:17:17 13.4 C 35 %
2307 18-10-2019 00:27:17 13.4 C 34 %
2308 18-10-2019 00:37:17 13.4 C 34 %
2309 18-10-2019 00:47:17 13.3 C 34 %
2310 18-10-2019 00:57:17 12.8 C 34 %
2311 18-10-2019 01:07:17 12.6 C 35 %
2312 18-10-2019 01:17:17 12.4 C 35 %
2313 18-10-2019 01:27:17 12.1 C 35 %
2314 18-10-2019 01:37:18 12.2 C 35 %
2315 18-10-2019 01:47:17 12.1 C 35 %
2316 18-10-2019 01:57:17 11.8 C 35 %
2317 18-10-2019 02:07:18 11.8 C 36 %
2318 18-10-2019 02:17:18 11.5 C 36 %
2319 18-10-2019 02:27:18 11.4 C 36 %
2320 18-10-2019 02:37:17 11.5 C 36 %
2321 18-10-2019 02:47:17 11.3 C 36 %
2322 18-10-2019 02:57:17 11.5 C 37 %
2323 18-10-2019 03:07:17 11.4 C 36 %
2324 18-10-2019 03:17:17 11.1 C 36 %
2325 18-10-2019 03:27:17 10.9 C 37 %
Sensor: Nr:Datum:Temp:Feuchte:
Aussen-T/F 2326 18-10-2019 03:37:17 10.7 C 37 %
2327 18-10-2019 03:47:17 10.7 C 37 %
2328 18-10-2019 03:57:17 10.7 C 37 %
2329 18-10-2019 04:07:17 10.7 C 37 %
2330 18-10-2019 04:17:17 10.8 C 37 %
2331 18-10-2019 04:27:17 11.1 C 36 %
2332 18-10-2019 04:37:18 10.9 C 37 %
2333 18-10-2019 04:47:17 10.9 C 37 %
2334 18-10-2019 04:57:17 10.9 C 37 %
2335 18-10-2019 05:07:18 10.9 C 37 %
2336 18-10-2019 05:17:17 10.8 C 37 %
2337 18-10-2019 05:27:17 11.1 C 36 %
2338 18-10-2019 05:37:17 11.5 C 36 %
2339 18-10-2019 05:47:17 11.8 C 36 %
2340 18-10-2019 05:57:17 11.9 C 36 %
2341 18-10-2019 06:07:18 12.2 C 36 %
2342 18-10-2019 06:17:17 11.9 C 36 %
2343 18-10-2019 06:27:17 12 C 35 %
2344 18-10-2019 06:37:18 12.1 C 35 %
2345 18-10-2019 06:47:17 12.1 C 35 %
2346 18-10-2019 06:57:17 12 C 35 %
2347 18-10-2019 07:07:18 12.1 C 35 %
2348 18-10-2019 07:17:17 12.1 C 35 %
2349 18-10-2019 07:27:17 11.9 C 36 %
2350 18-10-2019 07:37:17 11.7 C 36 %
Sensor: Nr:Datum:Temp:Feuchte:
Aussen-T/F 2351 18-10-2019 07:47:17 11.9 C 36 %
2352 18-10-2019 07:57:17 12 C 35 %
2353 18-10-2019 08:07:17 12.1 C 35 %
2354 18-10-2019 08:17:18 12.3 C 35 %
2355 18-10-2019 08:27:18 12.4 C 35 %
2356 18-10-2019 08:37:17 12.4 C 35 %
2357 18-10-2019 08:47:18 12.4 C 35 %
2358 18-10-2019 08:57:18 12.6 C 35 %
2359 18-10-2019 09:07:17 12.7 C 35 %
2360 18-10-2019 09:17:17 12.8 C 35 %
2361 18-10-2019 09:27:17 12.9 C 35 %
2362 18-10-2019 09:37:18 13.3 C 35 %
2363 18-10-2019 09:47:17 13.4 C 35 %
2364 18-10-2019 09:57:17 13.4 C 35 %
2365 18-10-2019 10:07:18 13.7 C 34 %
2366 18-10-2019 10:17:17 13.9 C 33 %
2367 18-10-2019 10:27:17 14.3 C 33 %
2368 18-10-2019 10:37:17 14.4 C 32 %
2369 18-10-2019 10:47:17 14.7 C 32 %
2370 18-10-2019 10:57:17 15 C 30 %
2371 18-10-2019 11:07:17 15.1 C 27 %
2372 18-10-2019 11:17:17 15.2 C 27 %
2373 18-10-2019 11:27:17 15.7 C 20 %
2374 18-10-2019 11:37:17 16.1 C 20 %
2375 18-10-2019 11:47:18 15.7 C 20 %
Sensor: Nr:Datum:Temp:Feuchte:
Aussen-T/F 2376 18-10-2019 11:57:18 15.7 C 20 %
2377 18-10-2019 12:07:17 15.6 C 20 %
2378 18-10-2019 12:17:17 16.4 C 20 %
2379 18-10-2019 12:27:17 16.8 C 20 %
2380 18-10-2019 12:37:17 16.9 C 20 %
2381 18-10-2019 12:47:18 16.8 C 20 %
2382 18-10-2019 12:57:18 17 C 20 %
2383 18-10-2019 13:07:17 17 C 20 %
2384 18-10-2019 13:17:17 17 C 20 %
2385 18-10-2019 13:27:17 13.8 C 20 %
2386 18-10-2019 13:37:17 12.4 C 20 %
2387 18-10-2019 13:47:17 12.1 C 22 %
2388 18-10-2019 13:57:17 11.9 C 23 %
2389 18-10-2019 14:07:17 12.4 C 20 %
2390 18-10-2019 14:17:17 13.4 C 20 %
2391 18-10-2019 14:27:17 13.7 C 20 %
2392 18-10-2019 14:37:18 13.4 C 20 %
2393 18-10-2019 14:47:17 13.3 C 20 %
2394 18-10-2019 14:57:17 13.8 C 20 %
2395 18-10-2019 15:07:17 13.7 C 20 %
2396 18-10-2019 15:17:17 14.4 C 20 %
2397 18-10-2019 15:27:17 14.4 C 20 %
2398 18-10-2019 15:37:17 14.4 C 20 %
2399 18-10-2019 15:47:17 14.2 C 20 %
2400 18-10-2019 15:57:18 14.4 C 20 %
Sensor: Nr:Datum:Temp:Feuchte:
Aussen-T/F 2401 18-10-2019 16:07:17 14.3 C 20 %
2402 18-10-2019 16:17:17 14.6 C 20 %
2403 18-10-2019 16:27:17 14.9 C 20 %
2404 18-10-2019 16:37:18 16.1 C 20 %
2405 18-10-2019 16:47:17 17.5 C 20 %
2406 18-10-2019 16:57:17 16.8 C 20 %
2407 18-10-2019 17:07:17 16.9 C 20 %
2408 18-10-2019 17:17:17 16.6 C 20 %
2409 18-10-2019 17:27:17 16.5 C 20 %
2410 18-10-2019 17:37:18 16.6 C 20 %
2411 18-10-2019 17:47:17 15.2 C 20 %
2412 18-10-2019 17:57:17 14.5 C 20 %
2413 18-10-2019 18:07:17 12.8 C 20 %
2414 18-10-2019 18:17:17 12.3 C 20 %
2415 18-10-2019 18:27:17 11.5 C 20 %
2416 18-10-2019 18:37:18 11.2 C 20 %
2417 18-10-2019 18:47:17 10.8 C 21 %
2418 18-10-2019 18:57:17 10.6 C 22 %
2419 18-10-2019 19:07:17 10.4 C 25 %
2420 18-10-2019 19:17:17 10.4 C 23 %
2421 18-10-2019 19:27:17 10 C 25 %
2422 18-10-2019 19:37:18 9.7 C 26 %
2423 18-10-2019 19:47:17 9.5 C 28 %
2424 18-10-2019 19:57:17 9 C 30 %
2425 18-10-2019 20:07:18 9.1 C 30 %
Sensor: Nr:Datum:Temp:Feuchte:
Aussen-T/F 2426 18-10-2019 20:17:17 9 C 30 %
2427 18-10-2019 20:27:17 9 C 31 %
2428 18-10-2019 20:37:17 9 C 31 %
2429 18-10-2019 20:47:17 9 C 31 %
2430 18-10-2019 20:57:17 8.7 C 32 %
2431 18-10-2019 21:07:17 8.5 C 32 %
2432 18-10-2019 21:17:17 8.5 C 33 %
2433 18-10-2019 21:27:17 8.3 C 33 %
2434 18-10-2019 21:37:17 8.4 C 35 %
2435 18-10-2019 21:47:17 8.5 C 35 %
2436 18-10-2019 21:57:17 8.6 C 36 %
2437 18-10-2019 22:07:17 8.6 C 35 %
2438 18-10-2019 22:17:17 8.7 C 36 %
2439 18-10-2019 22:27:17 8.7 C 36 %
2440 18-10-2019 22:37:17 8.6 C 35 %
2441 18-10-2019 22:47:17 8.7 C 35 %
2442 18-10-2019 22:57:17 8.6 C 35 %
2443 18-10-2019 23:07:17 8.7 C 36 %
2444 18-10-2019 23:17:17 8.6 C 35 %
2445 18-10-2019 23:27:17 8.6 C 35 %
2446 18-10-2019 23:37:17 8.7 C 35 %
2447 18-10-2019 23:47:17 8.6 C 35 %
2448 18-10-2019 23:57:17 8.5 C 34 %
2449 19-10-2019 00:07:17 8.5 C 35 %
2450 19-10-2019 00:17:17 8.5 C 35 %
Sensor: Nr:Datum:Temp:Feuchte:
Aussen-T/F 2451 19-10-2019 00:27:17 8.9 C 35 %
2452 19-10-2019 00:37:17 9.1 C 31 %
2453 19-10-2019 00:47:17 9.1 C 30 %
2454 19-10-2019 00:57:17 9 C 30 %
2455 19-10-2019 01:07:17 9.3 C 30 %
2456 19-10-2019 01:17:17 9.1 C 30 %
2457 19-10-2019 01:27:17 9.5 C 28 %
2458 19-10-2019 01:37:17 9.3 C 29 %
2459 19-10-2019 01:47:17 9 C 30 %
2460 19-10-2019 01:57:17 8.8 C 31 %
2461 19-10-2019 02:07:17 9 C 32 %
2462 19-10-2019 02:17:17 9 C 32 %
2463 19-10-2019 02:27:17 9.1 C 32 %
2464 19-10-2019 02:37:17 9.2 C 32 %
2465 19-10-2019 02:47:17 9.2 C 32 %
2466 19-10-2019 02:57:18 9.3 C 32 %
2467 19-10-2019 03:07:17 9.3 C 32 %
2468 19-10-2019 03:17:18 9.3 C 32 %
2469 19-10-2019 03:27:18 9.3 C 32 %
2470 19-10-2019 03:37:17 9.3 C 31 %
2471 19-10-2019 03:47:17 9.4 C 31 %
2472 19-10-2019 03:57:17 9.4 C 31 %
2473 19-10-2019 04:07:17 9.4 C 31 %
2474 19-10-2019 04:17:18 9.4 C 31 %
2475 19-10-2019 04:27:18 9.5 C 32 %
Sensor: Nr:Datum:Temp:Feuchte:
Aussen-T/F 2476 19-10-2019 04:37:17 9.7 C 31 %
2477 19-10-2019 04:47:18 9.8 C 31 %
2478 19-10-2019 04:57:18 10 C 30 %
2479 19-10-2019 05:07:17 10.2 C 30 %
2480 19-10-2019 05:17:18 10.2 C 30 %
2481 19-10-2019 05:27:18 10.5 C 28 %
2482 19-10-2019 05:37:17 10.5 C 28 %
2483 19-10-2019 05:47:17 10.2 C 28 %
2484 19-10-2019 05:57:17 10.2 C 29 %
2485 19-10-2019 06:07:17 10.2 C 29 %
2486 19-10-2019 06:17:18 10.2 C 30 %
2487 19-10-2019 06:27:18 10 C 30 %
2488 19-10-2019 06:37:17 9.9 C 32 %
2489 19-10-2019 06:47:17 9.8 C 32 %
2490 19-10-2019 06:57:17 10 C 31 %
2491 19-10-2019 07:07:17 10 C 31 %
2492 19-10-2019 07:17:17 10.1 C 31 %
2493 19-10-2019 07:27:17 10.1 C 31 %
2494 19-10-2019 07:37:17 10.3 C 30 %
2495 19-10-2019 07:47:17 10.3 C 30 %
2496 19-10-2019 07:57:17 10.3 C 31 %
2497 19-10-2019 08:07:18 10.4 C 31 %
2498 19-10-2019 08:17:17 10.6 C 31 %
2499 19-10-2019 08:27:17 10.8 C 30 %
2500 19-10-2019 08:37:17 10.9 C 30 %
Sensor: Nr:Datum:Temp:Feuchte:
Aussen-T/F 2501 19-10-2019 08:47:17 11 C 30 %
2502 19-10-2019 08:57:17 11.1 C 29 %
2503 19-10-2019 09:07:17 11.4 C 28 %
2504 19-10-2019 09:17:17 11.7 C 27 %
2505 19-10-2019 09:27:17 12 C 26 %
2506 19-10-2019 09:37:18 12.1 C 25 %
2507 19-10-2019 09:47:17 12.4 C 22 %
2508 19-10-2019 09:57:17 12.9 C 23 %
2509 19-10-2019 10:07:18 13 C 20 %
2510 19-10-2019 10:17:17 13.3 C 20 %
2511 19-10-2019 10:27:17 13.3 C 20 %
2512 19-10-2019 10:37:18 13.2 C 20 %
2513 19-10-2019 10:47:17 12.9 C 23 %
2514 19-10-2019 10:57:17 13.1 C 25 %
2515 19-10-2019 11:07:18 13.2 C 24 %
2516 19-10-2019 11:17:17 13.3 C 25 %
2517 19-10-2019 11:27:17 13.4 C 25 %
2518 19-10-2019 11:37:17 13.8 C 24 %
2519 19-10-2019 11:47:17 14.5 C 20 %
2520 19-10-2019 11:57:17 14.9 C 20 %
2521 19-10-2019 12:07:17 15.7 C 20 %
2522 19-10-2019 12:17:17 15.6 C 20 %
2523 19-10-2019 12:27:17 15.8 C 20 %
2524 19-10-2019 12:37:17 16.1 C 20 %
2525 19-10-2019 12:47:18 16 C 20 %
Sensor: Nr:Datum:Temp:Feuchte:
Aussen-T/F 2526 19-10-2019 12:57:18 16.4 C 20 %
2527 19-10-2019 13:07:17 16.7 C 20 %
2528 19-10-2019 13:17:17 17 C 20 %
2529 19-10-2019 13:27:17 16.4 C 20 %
2530 19-10-2019 13:37:18 17.1 C 20 %
2531 19-10-2019 13:47:17 17.3 C 20 %
2532 19-10-2019 13:57:17 17.7 C 20 %
2533 19-10-2019 14:07:17 17.7 C 20 %
2534 19-10-2019 14:17:17 17.7 C 20 %
2535 19-10-2019 14:27:18 17.6 C 20 %
2536 19-10-2019 14:37:18 17.8 C 20 %
2537 19-10-2019 14:47:18 17.8 C 20 %
2538 19-10-2019 14:57:18 17.5 C 20 %
2539 19-10-2019 15:07:18 17.5 C 20 %
2540 19-10-2019 15:17:17 18.3 C 20 %
2541 19-10-2019 15:27:17 17.9 C 20 %
2542 19-10-2019 15:37:17 17.7 C 20 %
2543 19-10-2019 15:47:17 17.3 C 20 %
2544 19-10-2019 15:57:17 17.2 C 20 %
2545 19-10-2019 16:07:17 17.3 C 20 %
2546 19-10-2019 16:17:17 17.9 C 20 %
2547 19-10-2019 16:27:17 17.2 C 20 %
2548 19-10-2019 16:37:17 17.4 C 20 %
2549 19-10-2019 16:47:17 18.9 C 20 %
2550 19-10-2019 16:57:17 18.3 C 20 %
Sensor: Nr:Datum:Temp:Feuchte:
Aussen-T/F 2551 19-10-2019 17:07:17 17.3 C 20 %
2552 19-10-2019 17:17:17 16.9 C 20 %
2553 19-10-2019 17:27:17 16.5 C 20 %
2554 19-10-2019 17:37:17 16 C 20 %
2555 19-10-2019 17:47:17 15.5 C 20 %
2556 19-10-2019 17:57:17 15.1 C 20 %
2557 19-10-2019 18:07:17 14.4 C 27 %
2558 19-10-2019 18:17:17 14.1 C 30 %
2559 19-10-2019 18:27:17 14 C 30 %
2560 19-10-2019 18:37:17 13.5 C 32 %
2561 19-10-2019 18:47:17 13.4 C 35 %
2562 19-10-2019 18:57:17 13.4 C 36 %
2563 19-10-2019 19:07:17 13.3 C 36 %
2564 19-10-2019 19:17:17 13.3 C 36 %
2565 19-10-2019 19:27:17 13.2 C 36 %
2566 19-10-2019 19:37:18 13.2 C 36 %
2567 19-10-2019 19:47:17 13.2 C 36 %
2568 19-10-2019 19:57:17 13.1 C 36 %
2569 19-10-2019 20:07:17 13.1 C 36 %
2570 19-10-2019 20:17:17 13 C 36 %
2571 19-10-2019 20:27:17 12.9 C 36 %
2572 19-10-2019 20:37:18 12.9 C 36 %
2573 19-10-2019 20:47:17 12.9 C 36 %
2574 19-10-2019 20:57:17 13 C 35 %
2575 19-10-2019 21:07:18 13 C 35 %
Sensor: Nr:Datum:Temp:Feuchte:
Aussen-T/F 2576 19-10-2019 21:17:18 13 C 35 %
2577 19-10-2019 21:27:18 13 C 35 %
2578 19-10-2019 21:37:18 13 C 34 %
2579 19-10-2019 21:47:17 12.9 C 35 %
2580 19-10-2019 21:57:17 12.8 C 35 %
2581 19-10-2019 22:07:17 12.8 C 36 %
2582 19-10-2019 22:17:17 12.7 C 36 %
2583 19-10-2019 22:27:17 12.6 C 36 %
2584 19-10-2019 22:37:17 12.6 C 36 %
2585 19-10-2019 22:47:17 12.5 C 36 %
2586 19-10-2019 22:57:17 12.5 C 36 %
2587 19-10-2019 23:07:17 12.4 C 36 %
2588 19-10-2019 23:17:17 12.4 C 36 %
2589 19-10-2019 23:27:17 12.4 C 36 %
2590 19-10-2019 23:37:17 12.4 C 36 %
2591 19-10-2019 23:47:17 12.3 C 36 %
2592 19-10-2019 23:57:17 12.4 C 36 %
2593 20-10-2019 00:07:17 12.4 C 36 %
2594 20-10-2019 00:17:17 12.4 C 36 %
2595 20-10-2019 00:27:17 12.5 C 36 %
2596 20-10-2019 00:37:17 12.5 C 36 %
2597 20-10-2019 00:47:17 12.5 C 36 %
2598 20-10-2019 00:57:17 12.5 C 36 %
2599 20-10-2019 01:07:18 12.6 C 36 %
2600 20-10-2019 01:17:17 12.6 C 36 %
Sensor: Nr:Datum:Temp:Feuchte:
Aussen-T/F 2601 20-10-2019 01:27:17 12.6 C 36 %
2602 20-10-2019 01:37:17 12.6 C 36 %
2603 20-10-2019 01:47:17 12.6 C 36 %
2604 20-10-2019 01:57:17 12.6 C 36 %
2605 20-10-2019 02:07:17 12.6 C 36 %
2606 20-10-2019 02:17:17 12.6 C 35 %
2607 20-10-2019 02:27:17 12.5 C 35 %
2608 20-10-2019 02:37:17 12.5 C 35 %
2609 20-10-2019 02:47:17 12.5 C 35 %
2610 20-10-2019 02:57:17 12.5 C 35 %
2611 20-10-2019 03:07:18 12.5 C 35 %
2612 20-10-2019 03:17:18 12.5 C 35 %
2613 20-10-2019 03:27:18 12.5 C 35 %
2614 20-10-2019 03:37:18 12.6 C 35 %
2615 20-10-2019 03:47:17 12.6 C 35 %
2616 20-10-2019 03:57:17 12.6 C 35 %
2617 20-10-2019 04:07:17 12.6 C 35 %
2618 20-10-2019 04:17:17 12.6 C 35 %
2619 20-10-2019 04:27:17 12.6 C 35 %
2620 20-10-2019 04:37:17 12.6 C 35 %
2621 20-10-2019 04:47:17 12.5 C 35 %
2622 20-10-2019 04:57:17 12.5 C 35 %
2623 20-10-2019 05:07:18 12.5 C 35 %
2624 20-10-2019 05:17:17 12.4 C 35 %
2625 20-10-2019 05:27:17 12.3 C 35 %
Sensor: Nr:Datum:Temp:Feuchte:
Aussen-T/F 2626 20-10-2019 05:37:17 12.3 C 35 %
2627 20-10-2019 05:47:17 12.3 C 35 %
2628 20-10-2019 05:57:17 12.2 C 35 %
2629 20-10-2019 06:07:17 12.2 C 35 %
2630 20-10-2019 06:17:17 12.1 C 35 %
2631 20-10-2019 06:27:17 12 C 35 %
2632 20-10-2019 06:37:18 12 C 35 %
2633 20-10-2019 06:47:17 12 C 35 %
2634 20-10-2019 06:57:17 12 C 35 %
2635 20-10-2019 07:07:17 12 C 35 %
2636 20-10-2019 07:17:17 12 C 35 %
2637 20-10-2019 07:27:17 12.1 C 35 %
2638 20-10-2019 07:37:17 12.1 C 35 %
2639 20-10-2019 07:47:17 12.1 C 35 %
2640 20-10-2019 07:57:17 12 C 35 %
2641 20-10-2019 08:07:17 12 C 35 %
2642 20-10-2019 08:17:17 12 C 35 %
2643 20-10-2019 08:27:17 12.1 C 35 %
2644 20-10-2019 08:37:18 12.2 C 35 %
2645 20-10-2019 08:47:17 12.2 C 35 %
2646 20-10-2019 08:57:17 12.3 C 35 %
2647 20-10-2019 09:07:17 12.5 C 35 %
2648 20-10-2019 09:17:17 12.4 C 35 %
2649 20-10-2019 09:27:17 12.4 C 35 %
2650 20-10-2019 09:37:17 12.5 C 35 %
Sensor: Nr:Datum:Temp:Feuchte:
Aussen-T/F 2651 20-10-2019 09:47:17 12.4 C 35 %
2652 20-10-2019 09:57:17 12.4 C 35 %
2653 20-10-2019 10:07:17 12.5 C 35 %
2654 20-10-2019 10:17:17 12.7 C 35 %
2655 20-10-2019 10:27:17 12.6 C 35 %
2656 20-10-2019 10:37:17 12.7 C 35 %
2657 20-10-2019 10:47:17 12.7 C 35 %
2658 20-10-2019 10:57:17 12.6 C 34 %
2659 20-10-2019 11:07:18 12.8 C 35 %
2660 20-10-2019 11:17:17 12.8 C 35 %
2661 20-10-2019 11:27:17 12.8 C 34 %
2662 20-10-2019 11:37:17 12.9 C 34 %
2663 20-10-2019 11:47:17 13 C 33 %
2664 20-10-2019 11:57:17 13.1 C 33 %
2665 20-10-2019 12:07:18 13.2 C 33 %
2666 20-10-2019 12:17:17 13.2 C 33 %
2667 20-10-2019 12:27:17 13.4 C 34 %
2668 20-10-2019 12:37:17 13.4 C 34 %
2669 20-10-2019 12:47:17 13.6 C 33 %
2670 20-10-2019 12:57:17 13.5 C 33 %
2671 20-10-2019 13:07:17 13.5 C 33 %
2672 20-10-2019 13:17:17 13.5 C 33 %
2673 20-10-2019 13:27:17 13.5 C 33 %
2674 20-10-2019 13:37:17 13.5 C 34 %
2675 20-10-2019 13:47:17 13.6 C 35 %
Sensor: Nr:Datum:Temp:Feuchte:
Aussen-T/F 2676 20-10-2019 13:57:17 13.9 C 33 %
2677 20-10-2019 14:07:17 13.8 C 33 %
2678 20-10-2019 14:17:17 13.7 C 33 %
2679 20-10-2019 14:27:17 13.7 C 33 %
2680 20-10-2019 14:37:17 13.9 C 34 %
2681 20-10-2019 14:47:17 14.1 C 34 %
2682 20-10-2019 14:57:17 14.1 C 33 %
2683 20-10-2019 15:07:17 14 C 33 %
2684 20-10-2019 15:17:17 14 C 35 %
2685 20-10-2019 15:27:17 14 C 35 %
2686 20-10-2019 15:37:17 14.1 C 35 %
2687 20-10-2019 15:47:17 14.1 C 35 %
2688 20-10-2019 15:57:17 14.2 C 35 %
2689 20-10-2019 16:07:17 14.4 C 35 %
2690 20-10-2019 16:17:17 14.5 C 34 %
2691 20-10-2019 16:27:17 14.4 C 34 %
2692 20-10-2019 16:37:18 14.5 C 34 %
2693 20-10-2019 16:47:17 14.5 C 34 %
2694 20-10-2019 16:57:17 14.5 C 34 %
2695 20-10-2019 17:07:17 14.5 C 34 %
2696 20-10-2019 17:17:17 14.4 C 34 %
2697 20-10-2019 17:27:17 14.2 C 35 %
2698 20-10-2019 17:37:18 14.1 C 35 %
2699 20-10-2019 17:47:17 14.1 C 35 %
2700 20-10-2019 17:57:17 14 C 35 %
Sensor: Nr:Datum:Temp:Feuchte:
Aussen-T/F 2701 20-10-2019 18:07:17 14 C 35 %
2702 20-10-2019 18:17:17 13.9 C 35 %
2703 20-10-2019 18:27:17 13.8 C 35 %
2704 20-10-2019 18:37:17 13.8 C 35 %
2705 20-10-2019 18:47:17 13.8 C 35 %
2706 20-10-2019 18:57:17 13.7 C 35 %
2707 20-10-2019 19:07:17 13.6 C 35 %
2708 20-10-2019 19:17:17 13.6 C 35 %
2709 20-10-2019 19:27:17 13.6 C 35 %
2710 20-10-2019 19:37:17 13.5 C 35 %
2711 20-10-2019 19:47:17 13.6 C 35 %
2712 20-10-2019 19:57:17 13.7 C 35 %
2713 20-10-2019 20:07:18 13.6 C 35 %
2714 20-10-2019 20:17:17 13.6 C 35 %
2715 20-10-2019 20:27:17 13.4 C 35 %
2716 20-10-2019 20:37:17 13 C 35 %
2717 20-10-2019 20:47:17 13.4 C 35 %
2718 20-10-2019 20:57:17 13.4 C 35 %
2719 20-10-2019 21:07:18 13.5 C 35 %
2720 20-10-2019 21:17:17 13.6 C 35 %
2721 20-10-2019 21:27:17 13.5 C 35 %
2722 20-10-2019 21:37:17 13.5 C 35 %
2723 20-10-2019 21:47:17 13.5 C 35 %
2724 20-10-2019 21:57:17 13.5 C 35 %
2725 20-10-2019 22:07:17 13.5 C 35 %
Sensor: Nr:Datum:Temp:Feuchte:
Aussen-T/F 2726 20-10-2019 22:17:17 13.5 C 35 %
2727 20-10-2019 22:27:17 13.4 C 35 %
2728 20-10-2019 22:37:17 13.4 C 35 %
2729 20-10-2019 22:47:17 13.4 C 35 %
2730 20-10-2019 22:57:17 13.3 C 35 %
2731 20-10-2019 23:07:17 13.4 C 35 %
2732 20-10-2019 23:17:17 13.4 C 35 %
2733 20-10-2019 23:27:17 13.4 C 35 %
2734 20-10-2019 23:37:17 13.5 C 35 %
2735 20-10-2019 23:47:17 13.6 C 35 %
2736 20-10-2019 23:57:17 13.6 C 35 %
2737 21-10-2019 00:07:17 13.5 C 35 %
2738 21-10-2019 00:17:17 13.4 C 35 %
2739 21-10-2019 00:27:17 13.8 C 35 %
2740 21-10-2019 00:37:17 13.8 C 35 %
2741 21-10-2019 00:47:17 14 C 35 %
2742 21-10-2019 00:57:17 14 C 34 %
2743 21-10-2019 01:07:17 13.7 C 34 %
2744 21-10-2019 01:17:17 13.6 C 34 %
2745 21-10-2019 01:27:17 13.5 C 34 %
2746 21-10-2019 01:37:17 13.5 C 34 %
2747 21-10-2019 01:47:17 13.3 C 34 %
2748 21-10-2019 01:57:17 13.3 C 34 %
2749 21-10-2019 02:07:18 13.2 C 34 %
2750 21-10-2019 02:17:17 13 C 34 %
Sensor: Nr:Datum:Temp:Feuchte:
Aussen-T/F 2751 21-10-2019 02:27:17 12.9 C 35 %
2752 21-10-2019 02:37:17 13.1 C 34 %
2753 21-10-2019 02:47:17 13.1 C 35 %
2754 21-10-2019 02:57:17 13 C 34 %
2755 21-10-2019 03:07:18 13.2 C 35 %
2756 21-10-2019 03:17:17 13.1 C 35 %
2757 21-10-2019 03:27:17 13 C 35 %
2758 21-10-2019 03:37:17 13 C 34 %
2759 21-10-2019 03:47:17 13 C 34 %
2760 21-10-2019 03:57:17 12.8 C 35 %
2761 21-10-2019 04:07:17 12.8 C 35 %
2762 21-10-2019 04:17:17 12.6 C 35 %
2763 21-10-2019 04:27:17 12.2 C 34 %
2764 21-10-2019 04:37:17 12 C 34 %
2765 21-10-2019 04:47:17 12.2 C 35 %
2766 21-10-2019 04:57:17 12.3 C 35 %
2767 21-10-2019 05:07:18 12.4 C 35 %
2768 21-10-2019 05:17:18 12.8 C 35 %
2769 21-10-2019 05:27:18 13 C 35 %
2770 21-10-2019 05:37:17 13 C 35 %
2771 21-10-2019 05:47:17 13 C 35 %
2772 21-10-2019 05:57:17 12.8 C 35 %
2773 21-10-2019 06:07:17 12.9 C 35 %
2774 21-10-2019 06:17:17 12.9 C 35 %
2775 21-10-2019 06:27:17 13.1 C 35 %
Sensor: Nr:Datum:Temp:Feuchte:
Aussen-T/F 2776 21-10-2019 06:37:17 13.2 C 35 %
2777 21-10-2019 06:47:17 13.1 C 35 %
2778 21-10-2019 06:57:17 13 C 35 %
2779 21-10-2019 07:07:17 12.7 C 35 %
2780 21-10-2019 07:17:17 12.5 C 35 %
2781 21-10-2019 07:27:17 12.4 C 34 %
2782 21-10-2019 07:37:18 12.3 C 35 %
2783 21-10-2019 07:47:17 12.2 C 35 %
2784 21-10-2019 07:57:17 12.1 C 35 %
2785 21-10-2019 08:07:17 12 C 34 %
2786 21-10-2019 08:17:17 12 C 34 %
2787 21-10-2019 08:27:17 11.7 C 35 %
2788 21-10-2019 08:37:17 12 C 35 %
2789 21-10-2019 08:47:17 12.1 C 35 %
2790 21-10-2019 08:57:17 12.2 C 35 %
2791 21-10-2019 09:07:18 12.2 C 35 %
2792 21-10-2019 09:17:17 12.2 C 35 %
2793 21-10-2019 09:27:17 12.1 C 35 %
2794 21-10-2019 09:37:17 12.3 C 35 %
2795 21-10-2019 09:47:17 12.1 C 35 %
2796 21-10-2019 09:57:17 12.2 C 35 %
2797 21-10-2019 10:07:17 12.2 C 35 %
2798 21-10-2019 10:17:17 12.5 C 35 %
2799 21-10-2019 10:27:17 13.1 C 38 %
2800 21-10-2019 10:37:17 13.5 C 39 %
Sensor: Nr:Datum:Temp:Feuchte:
Aussen-T/F 2801 21-10-2019 10:47:17 13.8 C 39 %
2802 21-10-2019 10:57:17 13.3 C 36 %
2803 21-10-2019 11:07:18 13.4 C 35 %
2804 21-10-2019 11:17:18 13.3 C 33 %
2805 21-10-2019 11:27:18 13.3 C 33 %
2806 21-10-2019 11:37:18 13.8 C 32 %
2807 21-10-2019 11:47:17 13.7 C 32 %
2808 21-10-2019 11:57:17 14.2 C 31 %
2809 21-10-2019 12:07:17 14.1 C 30 %
2810 21-10-2019 12:17:17 14.6 C 30 %
2811 21-10-2019 12:27:17 14.9 C 27 %
2812 21-10-2019 12:37:17 15.4 C 24 %
2813 21-10-2019 12:47:17 15.9 C 20 %
2814 21-10-2019 12:57:17 16.1 C 20 %
2815 21-10-2019 13:07:18 16.5 C 20 %
2816 21-10-2019 13:17:18 17.2 C 20 %
2817 21-10-2019 13:27:18 17.5 C 20 %
2818 21-10-2019 13:37:18 18.2 C 20 %
2819 21-10-2019 13:47:17 18.1 C 20 %
2820 21-10-2019 13:57:17 17.5 C 20 %
2821 21-10-2019 14:07:17 17.1 C 20 %
2822 21-10-2019 14:17:17 16.8 C 20 %
2823 21-10-2019 14:27:17 17.1 C 20 %
2824 21-10-2019 14:37:17 17 C 20 %
2825 21-10-2019 14:47:17 16.6 C 20 %
Sensor: Nr:Datum:Temp:Feuchte:
Aussen-T/F 2826 21-10-2019 14:57:17 16.6 C 20 %
2827 21-10-2019 15:07:18 16.6 C 20 %
2828 21-10-2019 15:17:17 16.2 C 20 %
2829 21-10-2019 15:27:17 16.5 C 20 %
2830 21-10-2019 15:37:17 16.6 C 20 %
2831 21-10-2019 15:47:17 17.1 C 20 %
2832 21-10-2019 15:57:17 17.1 C 20 %
2833 21-10-2019 16:07:17 16.4 C 20 %
2834 21-10-2019 16:17:17 15.9 C 20 %
2835 21-10-2019 16:27:17 15.7 C 20 %
2836 21-10-2019 16:37:17 15.4 C 20 %
2837 21-10-2019 16:47:17 15.2 C 20 %
2838 21-10-2019 16:57:17 15.2 C 20 %
2839 21-10-2019 17:07:18 14.7 C 20 %
2840 21-10-2019 17:17:17 14.7 C 20 %
2841 21-10-2019 17:27:17 14.8 C 20 %
2842 21-10-2019 17:37:17 14.1 C 20 %
2843 21-10-2019 17:47:17 13.8 C 20 %
2844 21-10-2019 17:57:17 13.9 C 20 %
2845 21-10-2019 18:07:17 14 C 20 %
2846 21-10-2019 18:17:17 13.4 C 20 %
2847 21-10-2019 18:27:17 13.1 C 20 %
2848 21-10-2019 18:37:17 12.8 C 20 %
2849 21-10-2019 18:47:17 12.6 C 20 %
2850 21-10-2019 18:57:17 12.4 C 21 %
Sensor: Nr:Datum:Temp:Feuchte:
Aussen-T/F 2851 21-10-2019 19:07:18 12.2 C 24 %
2852 21-10-2019 19:17:18 11.9 C 25 %
2853 21-10-2019 19:27:18 11.8 C 25 %
2854 21-10-2019 19:37:18 11.8 C 25 %
2855 21-10-2019 19:47:17 11.8 C 25 %
2856 21-10-2019 19:57:17 11.5 C 25 %
2857 21-10-2019 20:07:17 11.2 C 26 %
2858 21-10-2019 20:17:17 11.1 C 28 %
2859 21-10-2019 20:27:17 11 C 29 %
2860 21-10-2019 20:37:17 10.9 C 29 %
2861 21-10-2019 20:47:17 10.9 C 30 %
2862 21-10-2019 20:57:17 11 C 28 %
2863 21-10-2019 21:07:18 11 C 28 %
2864 21-10-2019 21:17:17 10.9 C 29 %
2865 21-10-2019 21:27:17 11 C 28 %
2866 21-10-2019 21:37:17 11 C 27 %
2867 21-10-2019 21:47:17 10.7 C 30 %
2868 21-10-2019 21:57:17 10.8 C 30 %
2869 21-10-2019 22:07:17 10.9 C 31 %
2870 21-10-2019 22:17:17 10.9 C 30 %
2871 21-10-2019 22:27:17 11 C 28 %
2872 21-10-2019 22:37:17 11 C 28 %
2873 21-10-2019 22:47:17 11.1 C 26 %
2874 21-10-2019 22:57:17 11.1 C 28 %
2875 21-10-2019 23:07:18 11.1 C 27 %
Sensor: Nr:Datum:Temp:Feuchte:
Aussen-T/F 2876 21-10-2019 23:17:18 11 C 27 %
2877 21-10-2019 23:27:18 10.6 C 28 %
2878 21-10-2019 23:37:18 10.2 C 30 %
2879 21-10-2019 23:47:17 10.4 C 29 %
2880 21-10-2019 23:57:18 10.2 C 30 %
2881 22-10-2019 00:07:17 10.2 C 30 %
2882 22-10-2019 00:17:17 10.2 C 31 %
2883 22-10-2019 00:27:17 10.4 C 31 %
2884 22-10-2019 00:37:17 10.3 C 31 %
2885 22-10-2019 00:47:17 10.4 C 30 %
2886 22-10-2019 00:57:17 10.4 C 31 %
2887 22-10-2019 01:07:17 10.5 C 31 %
2888 22-10-2019 01:17:17 10.6 C 31 %
2889 22-10-2019 01:27:17 10.6 C 30 %
2890 22-10-2019 01:37:17 10.5 C 31 %
2891 22-10-2019 01:47:17 10.5 C 31 %
2892 22-10-2019 01:57:17 10.7 C 30 %
2893 22-10-2019 02:07:18 10.5 C 30 %
2894 22-10-2019 02:17:17 10.4 C 30 %
2895 22-10-2019 02:27:18 10.5 C 29 %
2896 22-10-2019 02:37:18 10.5 C 29 %
2897 22-10-2019 02:47:17 10.4 C 29 %
2898 22-10-2019 02:57:17 10.4 C 29 %
2899 22-10-2019 03:07:17 10.5 C 30 %
2900 22-10-2019 03:17:17 10.4 C 31 %
Sensor: Nr:Datum:Temp:Feuchte:
Aussen-T/F 2901 22-10-2019 03:27:17 10.4 C 30 %
2902 22-10-2019 03:37:17 10.5 C 29 %
2903 22-10-2019 03:47:17 10.4 C 30 %
2904 22-10-2019 03:57:17 10.3 C 31 %
2905 22-10-2019 04:07:18 10.3 C 31 %
2906 22-10-2019 04:17:17 10.2 C 31 %
2907 22-10-2019 04:27:17 9.8 C 31 %
2908 22-10-2019 04:37:18 9.7 C 32 %
2909 22-10-2019 04:47:17 9.7 C 32 %
2910 22-10-2019 04:57:18 9.6 C 32 %
2911 22-10-2019 05:07:17 9.3 C 32 %
2912 22-10-2019 05:17:17 9.1 C 33 %
2913 22-10-2019 05:27:17 9 C 35 %
2914 22-10-2019 05:37:17 9.2 C 36 %
2915 22-10-2019 05:47:17 9.5 C 36 %
2916 22-10-2019 05:57:17 9.6 C 35 %
2917 22-10-2019 06:07:18 9.6 C 35 %
2918 22-10-2019 06:17:17 9.5 C 34 %
2919 22-10-2019 06:27:17 9.5 C 35 %
2920 22-10-2019 06:37:17 9.6 C 33 %
2921 22-10-2019 06:47:17 9.6 C 32 %
2922 22-10-2019 06:57:17 9.6 C 33 %
2923 22-10-2019 07:07:17 9.6 C 34 %
2924 22-10-2019 07:17:17 9.6 C 34 %
2925 22-10-2019 07:27:17 9.2 C 33 %
Sensor: Nr:Datum:Temp:Feuchte:
Aussen-T/F 2926 22-10-2019 07:37:17 9 C 34 %
2927 22-10-2019 07:47:17 9 C 35 %
2928 22-10-2019 07:57:17 9.3 C 34 %
2929 22-10-2019 08:07:17 9.4 C 32 %
2930 22-10-2019 08:17:17 9.5 C 32 %
2931 22-10-2019 08:27:17 9.6 C 33 %
2932 22-10-2019 08:37:17 9.6 C 35 %
2933 22-10-2019 08:47:17 9.7 C 35 %
2934 22-10-2019 08:57:17 9.8 C 34 %
2935 22-10-2019 09:07:18 9.9 C 34 %
2936 22-10-2019 09:17:17 10.1 C 30 %
2937 22-10-2019 09:27:17 10.5 C 25 %
2938 22-10-2019 09:37:17 10.6 C 22 %
2939 22-10-2019 09:47:17 10.8 C 22 %
2940 22-10-2019 09:57:17 11 C 21 %
2941 22-10-2019 10:07:17 11.1 C 20 %
2942 22-10-2019 10:17:17 11.7 C 20 %
2943 22-10-2019 10:27:17 11.9 C 20 %
2944 22-10-2019 10:37:18 12 C 20 %
2945 22-10-2019 10:47:17 12.5 C 20 %
2946 22-10-2019 10:57:17 12.4 C 20 %
2947 22-10-2019 11:07:17 13.1 C 20 %
2948 22-10-2019 11:17:17 12.9 C 20 %
2949 22-10-2019 11:27:17 13.3 C 20 %
2950 22-10-2019 11:37:17 13.5 C 20 %
Sensor: Nr:Datum:Temp:Feuchte:
Aussen-T/F 2951 22-10-2019 11:47:17 13.4 C 20 %
2952 22-10-2019 11:57:17 13.8 C 20 %
2953 22-10-2019 12:07:17 13.4 C 20 %
2954 22-10-2019 12:17:17 13.6 C 20 %
2955 22-10-2019 12:27:17 13.8 C 20 %
2956 22-10-2019 12:37:17 14 C 20 %
2957 22-10-2019 12:47:17 14.5 C 20 %
2958 22-10-2019 12:57:17 14.6 C 20 %
2959 22-10-2019 13:07:17 14.5 C 20 %
2960 22-10-2019 13:17:17 14.3 C 20 %
2961 22-10-2019 13:27:18 15.1 C 20 %
2962 22-10-2019 13:37:18 18.5 C 20 %
2963 22-10-2019 13:47:18 18.3 C 20 %
2964 22-10-2019 13:57:18 20.2 C 20 %
2965 22-10-2019 14:07:18 19 C 20 %
2966 22-10-2019 14:17:18 18.3 C 20 %
2967 22-10-2019 14:27:18 15.6 C 20 %
2968 22-10-2019 14:37:17 15.1 C 20 %
2969 22-10-2019 14:47:17 14.8 C 20 %
2970 22-10-2019 14:57:17 14.5 C 20 %
2971 22-10-2019 15:07:17 14.2 C 20 %
2972 22-10-2019 15:17:17 14.3 C 20 %
2973 22-10-2019 15:27:17 14.7 C 20 %
2974 22-10-2019 15:37:17 14 C 20 %
2975 22-10-2019 15:47:17 14.1 C 20 %
Sensor: Nr:Datum:Temp:Feuchte:
Aussen-T/F 2976 22-10-2019 15:57:17 13.7 C 20 %
2977 22-10-2019 16:07:18 14.7 C 20 %
2978 22-10-2019 16:17:17 14.1 C 20 %
2979 22-10-2019 16:27:17 13.7 C 20 %
2980 22-10-2019 16:37:18 15 C 20 %
2981 22-10-2019 16:47:17 13.9 C 20 %
2982 22-10-2019 16:57:17 13.7 C 20 %
2983 22-10-2019 17:07:17 16.4 C 20 %
2984 22-10-2019 17:17:17 16.8 C 20 %
2985 22-10-2019 17:27:17 16.1 C 20 %
2986 22-10-2019 17:37:18 14.4 C 20 %
2987 22-10-2019 17:47:17 13.3 C 20 %
2988 22-10-2019 17:57:17 12.5 C 20 %
2989 22-10-2019 18:07:17 12.1 C 20 %
2990 22-10-2019 18:17:17 11.8 C 20 %
2991 22-10-2019 18:27:17 11.4 C 20 %
2992 22-10-2019 18:37:17 11.4 C 23 %
2993 22-10-2019 18:47:17 11.1 C 25 %
2994 22-10-2019 18:57:17 11.2 C 26 %
2995 22-10-2019 19:07:18 11 C 26 %
2996 22-10-2019 19:17:17 10.8 C 28 %
2997 22-10-2019 19:27:17 10.6 C 30 %
2998 22-10-2019 19:37:18 10.3 C 32 %
2999 22-10-2019 19:47:17 10.3 C 33 %
3000 22-10-2019 19:57:17 10.4 C 33 %
Sensor: Nr:Datum:Temp:Feuchte:
Aussen-T/F 3001 22-10-2019 20:07:17 10 C 32 %
3002 22-10-2019 20:17:17 10 C 32 %
3003 22-10-2019 20:27:17 9.5 C 35 %
3004 22-10-2019 20:37:18 9.6 C 35 %
3005 22-10-2019 20:47:17 9.5 C 35 %
3006 22-10-2019 20:57:17 9.5 C 36 %
3007 22-10-2019 21:07:18 9.4 C 36 %
3008 22-10-2019 21:17:17 9 C 35 %
3009 22-10-2019 21:27:17 9.1 C 36 %
3010 22-10-2019 21:37:18 9.1 C 36 %
3011 22-10-2019 21:47:17 9.1 C 36 %
3012 22-10-2019 21:57:17 9.4 C 37 %
3013 22-10-2019 22:07:17 9.6 C 38 %
3014 22-10-2019 22:17:17 9.6 C 38 %
3015 22-10-2019 22:27:17 9.5 C 36 %
3016 22-10-2019 22:37:17 9.4 C 36 %
3017 22-10-2019 22:47:17 9.6 C 37 %
3018 22-10-2019 22:57:17 9.4 C 36 %
3019 22-10-2019 23:07:17 9.4 C 36 %
3020 22-10-2019 23:17:18 9.4 C 36 %
3021 22-10-2019 23:27:18 9.1 C 35 %
3022 22-10-2019 23:37:17 8.7 C 36 %
3023 22-10-2019 23:47:17 8.7 C 36 %
3024 22-10-2019 23:57:18 8.4 C 36 %
3025 23-10-2019 00:07:17 8.2 C 36 %
Sensor: Nr:Datum:Temp:Feuchte:
Aussen-T/F 3026 23-10-2019 00:17:18 8.1 C 36 %
3027 23-10-2019 00:27:18 8 C 36 %
3028 23-10-2019 00:37:17 7.9 C 37 %
3029 23-10-2019 00:47:17 7.8 C 37 %
3030 23-10-2019 00:57:17 7.8 C 37 %
3031 23-10-2019 01:07:17 7.9 C 37 %
3032 23-10-2019 01:17:17 7.8 C 38 %
3033 23-10-2019 01:27:17 7.6 C 37 %
3034 23-10-2019 01:37:17 7.6 C 37 %
3035 23-10-2019 01:47:17 7.6 C 37 %
3036 23-10-2019 01:57:18 7.5 C 37 %
3037 23-10-2019 02:07:17 7.4 C 37 %
3038 23-10-2019 02:17:18 7.3 C 37 %
3039 23-10-2019 02:27:18 7.4 C 38 %
3040 23-10-2019 02:37:17 7.3 C 37 %
3041 23-10-2019 02:47:17 7.1 C 37 %
3042 23-10-2019 02:57:17 7.4 C 38 %
3043 23-10-2019 03:07:17 7.3 C 37 %
3044 23-10-2019 03:17:17 7.1 C 37 %
3045 23-10-2019 03:27:17 7.1 C 37 %
3046 23-10-2019 03:37:17 7.1 C 37 %
3047 23-10-2019 03:47:17 7.3 C 37 %
3048 23-10-2019 03:57:17 7.4 C 38 %
3049 23-10-2019 04:07:17 7.3 C 37 %
3050 23-10-2019 04:17:17 6.9 C 37 %
Sensor: Nr:Datum:Temp:Feuchte:
Aussen-T/F 3051 23-10-2019 04:27:17 6.9 C 38 %
3052 23-10-2019 04:37:17 6.8 C 38 %
3053 23-10-2019 04:47:17 6.7 C 37 %
3054 23-10-2019 04:57:17 7.2 C 38 %
3055 23-10-2019 05:07:17 7.8 C 38 %
3056 23-10-2019 05:17:17 8 C 37 %
3057 23-10-2019 05:27:17 7.9 C 37 %
3058 23-10-2019 05:37:18 7.9 C 37 %
3059 23-10-2019 05:47:17 7.4 C 37 %
3060 23-10-2019 05:57:17 7.8 C 37 %
3061 23-10-2019 06:07:18 7.7 C 37 %
3062 23-10-2019 06:17:17 7.4 C 37 %
3063 23-10-2019 06:27:18 7.3 C 37 %
3064 23-10-2019 06:37:17 7.3 C 37 %
3065 23-10-2019 06:47:17 7.8 C 37 %
3066 23-10-2019 06:57:18 7.7 C 37 %
3067 23-10-2019 07:07:17 7.5 C 37 %
3068 23-10-2019 07:17:17 7.3 C 37 %
3069 23-10-2019 07:27:18 7.3 C 37 %
3070 23-10-2019 07:37:17 7 C 36 %
3071 23-10-2019 07:47:17 7 C 37 %
3072 23-10-2019 07:57:17 6.7 C 37 %
3073 23-10-2019 08:07:17 6.8 C 37 %
3074 23-10-2019 08:17:17 7 C 37 %
3075 23-10-2019 08:27:17 7.5 C 37 %
Sensor: Nr:Datum:Temp:Feuchte:
Aussen-T/F 3076 23-10-2019 08:37:17 7.6 C 37 %
3077 23-10-2019 08:47:17 7.7 C 37 %
3078 23-10-2019 08:57:17 7.7 C 37 %
3079 23-10-2019 09:07:18 7.7 C 37 %
3080 23-10-2019 09:17:17 8.3 C 37 %
3081 23-10-2019 09:27:17 8.3 C 37 %
3082 23-10-2019 09:37:17 8.6 C 37 %
3083 23-10-2019 09:47:17 8.5 C 37 %
3084 23-10-2019 09:57:17 8.8 C 37 %
3085 23-10-2019 10:07:17 8.9 C 37 %
3086 23-10-2019 10:17:17 9.1 C 36 %
3087 23-10-2019 10:27:17 9.2 C 36 %
3088 23-10-2019 10:37:17 9.5 C 36 %
3089 23-10-2019 10:47:17 10.1 C 36 %
3090 23-10-2019 10:57:17 10.1 C 36 %
3091 23-10-2019 11:07:17 10.5 C 34 %
3092 23-10-2019 11:17:17 10.8 C 34 %
3093 23-10-2019 11:27:17 11.2 C 32 %
3094 23-10-2019 11:37:17 11.4 C 28 %
3095 23-10-2019 11:47:17 11.6 C 27 %
3096 23-10-2019 11:57:17 11.9 C 26 %
3097 23-10-2019 12:07:17 12 C 25 %
3098 23-10-2019 12:17:17 12.2 C 25 %
3099 23-10-2019 12:27:17 12.2 C 25 %
3100 23-10-2019 12:37:17 12.3 C 25 %
Sensor: Nr:Datum:Temp:Feuchte:
Aussen-T/F 3101 23-10-2019 12:47:18 12.6 C 24 %
3102 23-10-2019 12:57:18 12.7 C 23 %
3103 23-10-2019 13:07:17 13 C 21 %
3104 23-10-2019 13:17:17 13.1 C 20 %
3105 23-10-2019 13:27:17 13.3 C 21 %
3106 23-10-2019 13:37:17 13.6 C 20 %
3107 23-10-2019 13:47:17 13.9 C 20 %
3108 23-10-2019 13:57:18 13.9 C 20 %
3109 23-10-2019 14:07:17 14.2 C 20 %
3110 23-10-2019 14:17:17 14.3 C 20 %
3111 23-10-2019 14:27:17 14.2 C 20 %
3112 23-10-2019 14:37:17 14.5 C 20 %
3113 23-10-2019 14:47:18 14.2 C 20 %
3114 23-10-2019 14:57:18 14.4 C 20 %
3115 23-10-2019 15:07:17 14.5 C 20 %
3116 23-10-2019 15:17:17 14.4 C 20 %
3117 23-10-2019 15:27:17 14.6 C 20 %
3118 23-10-2019 15:37:17 14.7 C 20 %
3119 23-10-2019 15:47:17 14.7 C 20 %
3120 23-10-2019 15:57:17 14.7 C 20 %
3121 23-10-2019 16:07:17 14.9 C 20 %
3122 23-10-2019 16:17:17 14.9 C 20 %
3123 23-10-2019 16:27:17 15.1 C 20 %
3124 23-10-2019 16:37:17 15.1 C 20 %
3125 23-10-2019 16:47:17 15 C 20 %
Sensor: Nr:Datum:Temp:Feuchte:
Aussen-T/F 3126 23-10-2019 16:57:17 15 C 20 %
3127 23-10-2019 17:07:18 14.7 C 22 %
3128 23-10-2019 17:17:17 14.4 C 23 %
3129 23-10-2019 17:27:17 14.4 C 23 %
3130 23-10-2019 17:37:17 14.4 C 23 %
3131 23-10-2019 17:47:17 14.1 C 24 %
3132 23-10-2019 17:57:17 13.9 C 25 %
3133 23-10-2019 18:07:17 13.7 C 26 %
3134 23-10-2019 18:17:17 13.5 C 27 %
3135 23-10-2019 18:27:17 13.3 C 27 %
3136 23-10-2019 18:37:18 13.3 C 28 %
3137 23-10-2019 18:47:17 13.3 C 28 %
3138 23-10-2019 18:57:17 12.8 C 30 %
3139 23-10-2019 19:07:17 12.8 C 30 %
3140 23-10-2019 19:17:17 12.8 C 30 %
3141 23-10-2019 19:27:17 12.8 C 30 %
3142 23-10-2019 19:37:17 12.8 C 30 %
3143 23-10-2019 19:47:17 12.8 C 30 %
3144 23-10-2019 19:57:17 12.8 C 30 %
3145 23-10-2019 20:07:17 12.8 C 30 %
3146 23-10-2019 20:17:17 12.8 C 30 %
3147 23-10-2019 20:27:17 12.8 C 30 %
3148 23-10-2019 20:37:17 12.8 C 30 %
3149 23-10-2019 20:47:17 12.8 C 30 %
3150 23-10-2019 20:57:17 12.8 C 30 %
Sensor: Nr:Datum:Temp:Feuchte:
Aussen-T/F 3151 23-10-2019 21:07:17 12.7 C 30 %
3152 23-10-2019 21:17:17 12.8 C 30 %
3153 23-10-2019 21:27:17 12.8 C 30 %
3154 23-10-2019 21:37:17 12.8 C 30 %
3155 23-10-2019 21:47:17 12.7 C 30 %
3156 23-10-2019 21:57:18 12.7 C 30 %
3157 23-10-2019 22:07:17 12.5 C 30 %
3158 23-10-2019 22:17:17 12.4 C 32 %
3159 23-10-2019 22:27:17 12.5 C 32 %
3160 23-10-2019 22:37:17 12.5 C 31 %
3161 23-10-2019 22:47:18 12.4 C 32 %
3162 23-10-2019 22:57:18 12.4 C 32 %
3163 23-10-2019 23:07:17 12.4 C 33 %
3164 23-10-2019 23:17:17 12.4 C 32 %
3165 23-10-2019 23:27:17 12.3 C 32 %
3166 23-10-2019 23:37:17 12.2 C 32 %
3167 23-10-2019 23:47:17 12 C 33 %
3168 23-10-2019 23:57:17 12 C 33 %
3169 24-10-2019 00:07:18 11.9 C 34 %
3170 24-10-2019 00:17:17 11.8 C 35 %
3171 24-10-2019 00:27:17 11.7 C 35 %
3172 24-10-2019 00:37:17 11.7 C 35 %
3173 24-10-2019 00:47:17 11.5 C 36 %
3174 24-10-2019 00:57:17 11.4 C 36 %
3175 24-10-2019 01:07:18 11.4 C 36 %
Sensor: Nr:Datum:Temp:Feuchte:
Aussen-T/F 3176 24-10-2019 01:17:17 11.4 C 36 %
3177 24-10-2019 01:27:17 11.4 C 36 %
3178 24-10-2019 01:37:17 11.7 C 37 %
3179 24-10-2019 01:47:17 11.9 C 37 %
3180 24-10-2019 01:57:17 11.9 C 37 %
3181 24-10-2019 02:07:17 12 C 35 %
3182 24-10-2019 02:17:17 12 C 35 %
3183 24-10-2019 02:27:17 11.4 C 35 %
3184 24-10-2019 02:37:17 11.4 C 36 %
3185 24-10-2019 02:47:17 11.4 C 36 %
3186 24-10-2019 02:57:17 11.4 C 36 %
3187 24-10-2019 03:07:17 11.3 C 36 %
3188 24-10-2019 03:17:17 11.1 C 36 %
3189 24-10-2019 03:27:17 11 C 36 %
3190 24-10-2019 03:37:17 11 C 36 %
3191 24-10-2019 03:47:18 10.8 C 37 %
3192 24-10-2019 03:57:18 10.8 C 37 %
3193 24-10-2019 04:07:17 10.6 C 37 %
3194 24-10-2019 04:17:17 10.4 C 37 %
3195 24-10-2019 04:27:17 10.8 C 37 %
3196 24-10-2019 04:37:17 10.9 C 37 %
3197 24-10-2019 04:47:18 11 C 37 %
3198 24-10-2019 04:57:18 11 C 37 %
3199 24-10-2019 05:07:17 11.2 C 36 %
3200 24-10-2019 05:17:17 11.3 C 36 %
Sensor: Nr:Datum:Temp:Feuchte:
Aussen-T/F 3201 24-10-2019 05:27:17 11.3 C 36 %
3202 24-10-2019 05:37:18 11.4 C 36 %
3203 24-10-2019 05:47:17 11.4 C 36 %
3204 24-10-2019 05:57:17 11.3 C 36 %
3205 24-10-2019 06:07:18 11.3 C 36 %
3206 24-10-2019 06:17:17 11 C 36 %
3207 24-10-2019 06:27:17 11.2 C 36 %
3208 24-10-2019 06:37:17 11.5 C 36 %
3209 24-10-2019 06:47:17 11.8 C 36 %
3210 24-10-2019 06:57:17 11.8 C 36 %
3211 24-10-2019 07:07:17 11.7 C 36 %
3212 24-10-2019 07:17:17 11.7 C 35 %
3213 24-10-2019 07:27:17 11.9 C 35 %
3214 24-10-2019 07:37:17 12 C 34 %
3215 24-10-2019 07:47:18 11.8 C 35 %
3216 24-10-2019 07:57:18 11.8 C 35 %
3217 24-10-2019 08:07:17 12 C 34 %
3218 24-10-2019 08:17:17 12.1 C 33 %
3219 24-10-2019 08:27:17 12.2 C 33 %
3220 24-10-2019 08:37:17 12.2 C 32 %
3221 24-10-2019 08:47:18 12.2 C 32 %
3222 24-10-2019 08:57:18 12.4 C 33 %
3223 24-10-2019 09:07:17 12.5 C 32 %
3224 24-10-2019 09:17:17 12.7 C 31 %
3225 24-10-2019 09:27:17 12.7 C 30 %
Sensor: Nr:Datum:Temp:Feuchte:
Aussen-T/F 3226 24-10-2019 09:37:17 12.7 C 30 %
3227 24-10-2019 09:47:17 12.9 C 31 %
3228 24-10-2019 09:57:18 13.2 C 28 %
3229 24-10-2019 10:07:17 13.4 C 26 %
3230 24-10-2019 10:17:17 13.5 C 27 %
3231 24-10-2019 10:27:17 13.9 C 27 %
3232 24-10-2019 10:37:17 14.1 C 25 %
3233 24-10-2019 10:47:17 14.3 C 23 %
3234 24-10-2019 10:57:17 14.8 C 24 %
3235 24-10-2019 11:07:18 15 C 20 %
3236 24-10-2019 11:17:17 15.2 C 20 %
3237 24-10-2019 11:27:18 15.2 C 20 %
3238 24-10-2019 11:37:17 15.4 C 20 %
3239 24-10-2019 11:47:17 15 C 20 %
3240 24-10-2019 11:57:17 15.1 C 20 %
3241 24-10-2019 12:07:17 14.6 C 23 %
3242 24-10-2019 12:17:17 14.4 C 25 %
3243 24-10-2019 12:27:17 14.8 C 24 %
3244 24-10-2019 12:37:17 14.8 C 24 %
3245 24-10-2019 12:47:18 15.8 C 21 %
3246 24-10-2019 12:57:18 16.2 C 20 %
3247 24-10-2019 13:07:17 16.4 C 20 %
3248 24-10-2019 13:17:17 16.1 C 21 %
3249 24-10-2019 13:27:17 16.1 C 20 %
3250 24-10-2019 13:37:17 18.5 C 20 %
Sensor: Nr:Datum:Temp:Feuchte:
Aussen-T/F 3251 24-10-2019 13:47:17 19.8 C 20 %
3252 24-10-2019 13:57:17 19.3 C 20 %
3253 24-10-2019 14:07:18 17.2 C 20 %
3254 24-10-2019 14:17:17 17.3 C 20 %
3255 24-10-2019 14:27:18 17.9 C 20 %
3256 24-10-2019 14:37:17 18.3 C 20 %
3257 24-10-2019 14:47:17 18.3 C 20 %
3258 24-10-2019 14:57:17 18.7 C 20 %
3259 24-10-2019 15:07:17 18.9 C 20 %
3260 24-10-2019 15:17:17 19.6 C 20 %
3261 24-10-2019 15:27:17 19.6 C 20 %
3262 24-10-2019 15:37:17 18.9 C 20 %
3263 24-10-2019 15:47:18 18.5 C 20 %
3264 24-10-2019 15:57:18 18.3 C 20 %
3265 24-10-2019 16:07:17 18.2 C 20 %
3266 24-10-2019 16:17:17 18.6 C 20 %
3267 24-10-2019 16:27:17 19.1 C 20 %
3268 24-10-2019 16:37:17 20.1 C 20 %
3269 24-10-2019 16:47:17 20.9 C 20 %
3270 24-10-2019 16:57:17 19.5 C 20 %
3271 24-10-2019 17:07:17 19.5 C 20 %
3272 24-10-2019 17:17:17 19.8 C 20 %
3273 24-10-2019 17:27:17 19.1 C 20 %
3274 24-10-2019 17:37:17 17 C 20 %
3275 24-10-2019 17:47:17 16.6 C 20 %
Sensor: Nr:Datum:Temp:Feuchte:
Aussen-T/F 3276 24-10-2019 17:57:17 16.6 C 20 %
3277 24-10-2019 18:07:17 15.7 C 20 %
3278 24-10-2019 18:17:17 15 C 20 %
3279 24-10-2019 18:27:17 14.9 C 20 %
3280 24-10-2019 18:37:17 14.8 C 20 %
3281 24-10-2019 18:47:18 14.9 C 20 %
3282 24-10-2019 18:57:18 14.6 C 20 %
3283 24-10-2019 19:07:18 14.3 C 21 %
3284 24-10-2019 19:17:17 14.1 C 21 %
3285 24-10-2019 19:27:17 14 C 22 %
3286 24-10-2019 19:37:17 14 C 22 %
3287 24-10-2019 19:47:17 13.6 C 23 %
3288 24-10-2019 19:57:17 13.4 C 24 %
3289 24-10-2019 20:07:18 13.4 C 25 %
3290 24-10-2019 20:17:17 13.4 C 25 %
3291 24-10-2019 20:27:17 13.2 C 25 %
3292 24-10-2019 20:37:17 13.2 C 25 %
3293 24-10-2019 20:47:17 13.1 C 25 %
3294 24-10-2019 20:57:17 13.1 C 24 %
3295 24-10-2019 21:07:17 13.2 C 24 %
3296 24-10-2019 21:17:17 13 C 25 %
3297 24-10-2019 21:27:17 12.9 C 26 %
3298 24-10-2019 21:37:17 12.7 C 26 %
3299 24-10-2019 21:47:17 12.6 C 27 %
3300 24-10-2019 21:57:17 12.5 C 27 %
Sensor: Nr:Datum:Temp:Feuchte:
Aussen-T/F 3301 24-10-2019 22:07:18 12.4 C 28 %
3302 24-10-2019 22:17:17 12.4 C 29 %
3303 24-10-2019 22:27:17 12.3 C 29 %
3304 24-10-2019 22:37:17 12.2 C 30 %
3305 24-10-2019 22:47:17 12.5 C 31 %
3306 24-10-2019 22:57:17 12.7 C 30 %
3307 24-10-2019 23:07:18 12.8 C 30 %
3308 24-10-2019 23:17:17 13 C 27 %
3309 24-10-2019 23:27:18 13 C 27 %
3310 24-10-2019 23:37:17 12.7 C 28 %
3311 24-10-2019 23:47:17 12.1 C 30 %
3312 24-10-2019 23:57:17 11.6 C 31 %
3313 25-10-2019 00:07:17 11.6 C 32 %
3314 25-10-2019 00:17:17 11.5 C 35 %
3315 25-10-2019 00:27:17 11.3 C 35 %
3316 25-10-2019 00:37:17 11.3 C 35 %
3317 25-10-2019 00:47:18 11.3 C 35 %
3318 25-10-2019 00:57:18 11.5 C 36 %
3319 25-10-2019 01:07:17 11.3 C 35 %
3320 25-10-2019 01:17:17 11.1 C 35 %
3321 25-10-2019 01:27:17 11.2 C 36 %
3322 25-10-2019 01:37:17 11.1 C 35 %
3323 25-10-2019 01:47:17 11 C 34 %
3324 25-10-2019 01:57:17 10.8 C 35 %
3325 25-10-2019 02:07:17 10.8 C 35 %
Sensor: Nr:Datum:Temp:Feuchte:
Aussen-T/F 3326 25-10-2019 02:17:17 10.8 C 36 %
3327 25-10-2019 02:27:17 10.9 C 35 %
3328 25-10-2019 02:37:18 10.6 C 35 %
3329 25-10-2019 02:47:17 11.8 C 35 %
3330 25-10-2019 02:57:17 11.4 C 30 %
3331 25-10-2019 03:07:17 11.3 C 30 %
3332 25-10-2019 03:17:17 11.9 C 27 %
3333 25-10-2019 03:27:17 12.4 C 25 %
3334 25-10-2019 03:37:17 12 C 26 %
3335 25-10-2019 03:47:17 12.5 C 26 %
3336 25-10-2019 03:57:18 12.7 C 26 %
3337 25-10-2019 04:07:17 12.1 C 26 %
3338 25-10-2019 04:17:17 12.4 C 26 %
3339 25-10-2019 04:27:17 12.9 C 24 %
3340 25-10-2019 04:37:17 13.3 C 20 %
3341 25-10-2019 04:47:17 13.5 C 20 %
3342 25-10-2019 04:57:17 12.3 C 25 %
3343 25-10-2019 05:07:17 11.7 C 26 %
3344 25-10-2019 05:17:17 11.7 C 26 %
3345 25-10-2019 05:27:17 12.3 C 24 %
3346 25-10-2019 05:37:18 12.8 C 22 %
3347 25-10-2019 05:47:17 12.6 C 23 %
3348 25-10-2019 05:57:17 12.1 C 25 %
3349 25-10-2019 06:07:17 11.8 C 27 %
3350 25-10-2019 06:17:17 11.8 C 27 %
Sensor: Nr:Datum:Temp:Feuchte:
Aussen-T/F 3351 25-10-2019 06:27:17 12.8 C 24 %
3352 25-10-2019 06:37:18 13.5 C 20 %
3353 25-10-2019 06:47:17 13.4 C 21 %
3354 25-10-2019 06:57:17 13.2 C 21 %
3355 25-10-2019 07:07:17 13.9 C 20 %
3356 25-10-2019 07:17:17 12.7 C 23 %
3357 25-10-2019 07:27:17 12.4 C 25 %
3358 25-10-2019 07:37:17 12.7 C 25 %
3359 25-10-2019 07:47:18 12.7 C 25 %
3360 25-10-2019 07:57:18 12.8 C 23 %
3361 25-10-2019 08:07:17 12.5 C 25 %
3362 25-10-2019 08:17:17 12.2 C 25 %
3363 25-10-2019 08:27:17 11.9 C 28 %
3364 25-10-2019 08:37:17 11.9 C 28 %
3365 25-10-2019 08:47:18 11.8 C 29 %
3366 25-10-2019 08:57:18 12 C 28 %
3367 25-10-2019 09:07:17 12.1 C 28 %
3368 25-10-2019 09:17:17 12.6 C 27 %
3369 25-10-2019 09:27:17 13 C 24 %
3370 25-10-2019 09:37:17 13.1 C 21 %
3371 25-10-2019 09:47:17 13.5 C 20 %
3372 25-10-2019 09:57:17 13.4 C 21 %
3373 25-10-2019 10:07:18 13 C 23 %
3374 25-10-2019 10:17:17 13 C 23 %
3375 25-10-2019 10:27:17 13.9 C 20 %
Sensor: Nr:Datum:Temp:Feuchte:
Aussen-T/F 3376 25-10-2019 10:37:17 14.2 C 20 %
3377 25-10-2019 10:47:17 14.4 C 20 %
3378 25-10-2019 10:57:17 14.8 C 20 %
3379 25-10-2019 11:07:17 14.8 C 20 %
3380 25-10-2019 11:17:17 14.9 C 20 %
3381 25-10-2019 11:27:17 15.1 C 20 %
3382 25-10-2019 11:37:18 15 C 20 %
3383 25-10-2019 11:47:17 15.1 C 20 %
3384 25-10-2019 11:57:17 15.1 C 20 %
3385 25-10-2019 12:07:17 15.2 C 20 %
3386 25-10-2019 12:17:17 15.2 C 20 %
3387 25-10-2019 12:27:17 15.3 C 20 %
3388 25-10-2019 12:37:17 15.4 C 20 %
3389 25-10-2019 12:47:17 15.8 C 20 %
3390 25-10-2019 12:57:18 16 C 20 %
3391 25-10-2019 13:07:17 16.6 C 20 %
3392 25-10-2019 13:17:17 16.6 C 20 %
3393 25-10-2019 13:27:17 17.3 C 20 %
3394 25-10-2019 13:37:17 16.7 C 20 %
3395 25-10-2019 13:47:18 17.2 C 20 %
3396 25-10-2019 13:57:18 17.1 C 20 %
3397 25-10-2019 14:07:17 17.9 C 20 %
3398 25-10-2019 14:17:17 17.5 C 20 %
3399 25-10-2019 14:27:17 16.8 C 20 %
3400 25-10-2019 14:37:17 16.9 C 20 %
Sensor: Nr:Datum:Temp:Feuchte:
Aussen-T/F 3401 25-10-2019 14:47:17 16.6 C 20 %
3402 25-10-2019 14:57:18 16.7 C 20 %
3403 25-10-2019 15:07:17 16.8 C 20 %
3404 25-10-2019 15:17:17 16.7 C 20 %
3405 25-10-2019 15:27:17 16.7 C 20 %
3406 25-10-2019 15:37:17 16.8 C 20 %
3407 25-10-2019 15:47:17 16.5 C 20 %
3408 25-10-2019 15:57:17 16.8 C 20 %
3409 25-10-2019 16:07:18 16.9 C 20 %
3410 25-10-2019 16:17:17 16.6 C 20 %
3411 25-10-2019 16:27:17 17 C 20 %
3412 25-10-2019 16:37:17 16.7 C 20 %
3413 25-10-2019 16:47:18 16.6 C 20 %
3414 25-10-2019 16:57:18 17.2 C 20 %
3415 25-10-2019 17:07:17 17.1 C 20 %
3416 25-10-2019 17:17:17 16 C 20 %
3417 25-10-2019 17:27:17 15.7 C 20 %
3418 25-10-2019 17:37:17 14.2 C 20 %
3419 25-10-2019 17:47:17 13.6 C 20 %
3420 25-10-2019 17:57:17 13.4 C 20 %
3421 25-10-2019 18:07:17 12.8 C 20 %
3422 25-10-2019 18:17:17 12.3 C 20 %
3423 25-10-2019 18:27:17 12.3 C 20 %
3424 25-10-2019 18:37:17 12.2 C 20 %
3425 25-10-2019 18:47:18 11.8 C 22 %
Sensor: Nr:Datum:Temp:Feuchte:
Aussen-T/F 3426 25-10-2019 18:57:18 11.7 C 24 %
3427 25-10-2019 19:07:17 11.7 C 25 %
3428 25-10-2019 19:17:17 11.2 C 26 %
3429 25-10-2019 19:27:17 11.1 C 27 %
3430 25-10-2019 19:37:17 11.1 C 27 %
3431 25-10-2019 19:47:18 11 C 28 %
3432 25-10-2019 19:57:18 10.9 C 28 %
3433 25-10-2019 20:07:17 11 C 28 %
3434 25-10-2019 20:17:17 10.7 C 28 %
3435 25-10-2019 20:27:17 10.6 C 28 %
3436 25-10-2019 20:37:17 10.5 C 29 %
3437 25-10-2019 20:47:18 10.5 C 30 %
3438 25-10-2019 20:57:18 10.6 C 30 %
3439 25-10-2019 21:07:17 10.7 C 29 %
3440 25-10-2019 21:17:17 10.3 C 30 %
3441 25-10-2019 21:27:17 10.1 C 30 %
3442 25-10-2019 21:37:17 10.3 C 32 %
3443 25-10-2019 21:47:18 10 C 31 %
3444 25-10-2019 21:57:18 10 C 33 %
3445 25-10-2019 22:07:17 10.8 C 34 %
3446 25-10-2019 22:17:17 11 C 30 %
3447 25-10-2019 22:27:17 11 C 30 %
3448 25-10-2019 22:37:17 11 C 29 %
3449 25-10-2019 22:47:17 11.2 C 29 %
3450 25-10-2019 22:57:17 11.5 C 28 %
Sensor: Nr:Datum:Temp:Feuchte:
Aussen-T/F 3451 25-10-2019 23:07:17 11.6 C 28 %
3452 25-10-2019 23:17:17 12.2 C 25 %
3453 25-10-2019 23:27:17 12.5 C 25 %
3454 25-10-2019 23:37:17 12.5 C 24 %
3455 25-10-2019 23:47:17 12.8 C 22 %
3456 25-10-2019 23:57:17 13 C 21 %
3457 26-10-2019 00:07:17 13.2 C 20 %
3458 26-10-2019 00:17:17 13.5 C 20 %
3459 26-10-2019 00:27:17 13.4 C 20 %
3460 26-10-2019 00:37:18 13.2 C 20 %
3461 26-10-2019 00:47:17 13.6 C 20 %
3462 26-10-2019 00:57:17 13.3 C 20 %
3463 26-10-2019 01:07:17 13 C 20 %
3464 26-10-2019 01:17:17 13.1 C 20 %
3465 26-10-2019 01:27:17 13.1 C 20 %
3466 26-10-2019 01:37:17 13.7 C 20 %
3467 26-10-2019 01:47:18 13.8 C 20 %
3468 26-10-2019 01:57:18 14 C 20 %
3469 26-10-2019 02:07:17 13.6 C 20 %
3470 26-10-2019 02:17:17 12.7 C 21 %
3471 26-10-2019 02:27:17 12.7 C 21 %
3472 26-10-2019 02:37:17 12.1 C 25 %
3473 26-10-2019 02:47:18 11.8 C 27 %
3474 26-10-2019 02:57:18 11.7 C 28 %
3475 26-10-2019 03:07:17 11.4 C 30 %
Sensor: Nr:Datum:Temp:Feuchte:
Aussen-T/F 3476 26-10-2019 03:17:17 11.2 C 30 %
3477 26-10-2019 03:27:17 11.2 C 31 %
3478 26-10-2019 03:37:17 11.1 C 32 %
3479 26-10-2019 03:47:17 10.8 C 33 %
3480 26-10-2019 03:57:17 10.7 C 33 %
3481 26-10-2019 04:07:17 10.5 C 35 %
3482 26-10-2019 04:17:17 11.1 C 35 %
3483 26-10-2019 04:27:17 10.7 C 37 %
3484 26-10-2019 04:37:17 10.9 C 35 %
3485 26-10-2019 04:47:17 11.6 C 30 %
3486 26-10-2019 04:57:17 11.8 C 28 %
3487 26-10-2019 05:07:17 12 C 26 %
3488 26-10-2019 05:17:17 12 C 26 %
3489 26-10-2019 05:27:17 12 C 26 %
3490 26-10-2019 05:37:17 11.9 C 27 %
3491 26-10-2019 05:47:18 11.4 C 29 %
3492 26-10-2019 05:57:18 11.2 C 30 %
3493 26-10-2019 06:07:17 11.1 C 30 %
3494 26-10-2019 06:17:17 10.9 C 34 %
3495 26-10-2019 06:27:17 10.8 C 35 %
3496 26-10-2019 06:37:17 10.9 C 36 %
3497 26-10-2019 06:47:17 11 C 35 %
3498 26-10-2019 06:57:17 10.7 C 35 %
3499 26-10-2019 07:07:17 10.5 C 35 %
3500 26-10-2019 07:17:17 10.2 C 35 %
Sensor: Nr:Datum:Temp:Feuchte:
Aussen-T/F 3501 26-10-2019 07:27:17 10.1 C 35 %
3502 26-10-2019 07:37:17 9.8 C 36 %
3503 26-10-2019 07:47:17 9.5 C 37 %
3504 26-10-2019 07:57:17 9.3 C 36 %
3505 26-10-2019 08:07:17 9.1 C 36 %
3506 26-10-2019 08:17:17 9 C 37 %
3507 26-10-2019 08:27:17 9 C 38 %
3508 26-10-2019 08:37:17 9.2 C 38 %
3509 26-10-2019 08:47:17 9.2 C 38 %
3510 26-10-2019 08:57:17 9.2 C 37 %
3511 26-10-2019 09:07:17 9.3 C 37 %
3512 26-10-2019 09:17:17 9.5 C 37 %
3513 26-10-2019 09:27:17 9.7 C 37 %
3514 26-10-2019 09:37:17 9.9 C 37 %
3515 26-10-2019 09:47:18 10 C 36 %
3516 26-10-2019 09:57:18 10.3 C 36 %
3517 26-10-2019 10:07:17 10.5 C 35 %
3518 26-10-2019 10:17:17 10.7 C 35 %
3519 26-10-2019 10:27:17 10.7 C 35 %
3520 26-10-2019 10:37:17 11.3 C 33 %
3521 26-10-2019 10:47:18 11.5 C 33 %
3522 26-10-2019 10:57:18 11.7 C 32 %
3523 26-10-2019 11:07:17 12 C 31 %
3524 26-10-2019 11:17:17 12.4 C 31 %
3525 26-10-2019 11:27:17 12.7 C 30 %
Sensor: Nr:Datum:Temp:Feuchte:
Aussen-T/F 3526 26-10-2019 11:37:17 13.2 C 28 %
3527 26-10-2019 11:47:18 13.4 C 26 %
3528 26-10-2019 11:57:18 13.6 C 26 %
3529 26-10-2019 12:07:17 13.8 C 25 %
3530 26-10-2019 12:17:17 14.2 C 23 %
3531 26-10-2019 12:27:17 14.4 C 25 %
3532 26-10-2019 12:37:17 14.7 C 23 %
3533 26-10-2019 12:47:17 14.8 C 23 %
3534 26-10-2019 12:57:18 15 C 20 %
3535 26-10-2019 13:07:18 15 C 20 %
3536 26-10-2019 13:17:17 14.9 C 21 %
3537 26-10-2019 13:27:17 15 C 20 %
3538 26-10-2019 13:37:17 16.3 C 20 %
3539 26-10-2019 13:47:18 18.5 C 20 %
3540 26-10-2019 13:57:18 20.9 C 20 %
3541 26-10-2019 14:07:17 20.6 C 20 %
3542 26-10-2019 14:17:17 17.8 C 20 %
3543 26-10-2019 14:27:17 16.3 C 20 %
3544 26-10-2019 14:37:17 16.2 C 20 %
3545 26-10-2019 14:47:17 16.5 C 20 %
3546 26-10-2019 14:57:17 16.9 C 20 %
3547 26-10-2019 15:07:17 16.8 C 20 %
3548 26-10-2019 15:17:17 16.8 C 20 %
3549 26-10-2019 15:27:17 16.6 C 20 %
3550 26-10-2019 15:37:17 16.5 C 20 %
Sensor: Nr:Datum:Temp:Feuchte:
Aussen-T/F 3551 26-10-2019 15:47:18 16.6 C 20 %
3552 26-10-2019 15:57:18 16.7 C 20 %
3553 26-10-2019 16:07:17 16.6 C 20 %
3554 26-10-2019 16:17:17 17 C 20 %
3555 26-10-2019 16:27:17 16.2 C 20 %
3556 26-10-2019 16:37:17 15.9 C 20 %
3557 26-10-2019 16:47:17 15.6 C 20 %
3558 26-10-2019 16:57:17 15.2 C 20 %
3559 26-10-2019 17:07:17 14.9 C 21 %
3560 26-10-2019 17:17:17 14.8 C 22 %
3561 26-10-2019 17:27:17 14.4 C 21 %
3562 26-10-2019 17:37:17 14.2 C 22 %
3563 26-10-2019 17:47:17 13.7 C 24 %
3564 26-10-2019 17:57:17 13.7 C 24 %
3565 26-10-2019 18:07:18 13.1 C 25 %
3566 26-10-2019 18:17:17 13.1 C 25 %
3567 26-10-2019 18:27:17 12.8 C 26 %
3568 26-10-2019 18:37:17 12.4 C 26 %
3569 26-10-2019 18:47:17 12.2 C 27 %
3570 26-10-2019 18:57:17 12.3 C 27 %
3571 26-10-2019 19:07:18 11.9 C 28 %
3572 26-10-2019 19:17:17 11.9 C 30 %
3573 26-10-2019 19:27:17 11.8 C 30 %
3574 26-10-2019 19:37:17 11.8 C 31 %
3575 26-10-2019 19:47:17 11.9 C 30 %
Sensor: Nr:Datum:Temp:Feuchte:
Aussen-T/F 3576 26-10-2019 19:57:17 12 C 29 %
3577 26-10-2019 20:07:17 12 C 29 %
3578 26-10-2019 20:17:17 12 C 28 %
3579 26-10-2019 20:27:17 12.3 C 28 %
3580 26-10-2019 20:37:17 12.4 C 28 %
3581 26-10-2019 20:47:17 12.3 C 27 %
3582 26-10-2019 20:57:18 12.3 C 27 %
3583 26-10-2019 21:07:17 12.4 C 28 %
3584 26-10-2019 21:17:17 12.2 C 27 %
3585 26-10-2019 21:27:17 12 C 28 %
3586 26-10-2019 21:37:17 12 C 29 %
3587 26-10-2019 21:47:17 12.2 C 30 %
3588 26-10-2019 21:57:17 11.8 C 32 %
3589 26-10-2019 22:07:17 11.8 C 33 %
3590 26-10-2019 22:17:17 11.8 C 32 %
3591 26-10-2019 22:27:17 11.8 C 31 %
3592 26-10-2019 22:37:18 11.8 C 32 %
3593 26-10-2019 22:47:17 11.7 C 33 %
3594 26-10-2019 22:57:17 11.8 C 33 %
3595 26-10-2019 23:07:17 11.8 C 32 %
3596 26-10-2019 23:17:17 12.1 C 30 %
3597 26-10-2019 23:27:17 12.4 C 28 %
3598 26-10-2019 23:37:17 12.6 C 26 %
3599 26-10-2019 23:47:17 12.5 C 27 %
3600 26-10-2019 23:57:17 12.5 C 27 %
Sensor: Nr:Datum:Temp:Feuchte:
Aussen-T/F 3601 27-10-2019 00:07:18 12.8 C 25 %
3602 27-10-2019 00:17:17 12.9 C 25 %
3603 27-10-2019 00:27:17 12.9 C 25 %
3604 27-10-2019 00:37:17 13.5 C 20 %
3605 27-10-2019 00:47:17 13.4 C 20 %
3606 27-10-2019 00:57:17 13.7 C 20 %
3607 27-10-2019 01:07:17 13 C 20 %
3608 27-10-2019 01:17:17 13.4 C 20 %
3609 27-10-2019 01:27:17 12.8 C 22 %
3610 27-10-2019 01:37:17 12.8 C 24 %
3611 27-10-2019 01:47:17 12.4 C 25 %
3612 27-10-2019 01:57:17 12.4 C 25 %
3613 27-10-2019 02:07:18 12.5 C 25 %
3614 27-10-2019 02:17:17 12.3 C 25 %
3615 27-10-2019 02:27:17 12.3 C 25 %
3616 27-10-2019 02:37:17 11.9 C 27 %
3617 27-10-2019 02:47:17 11.7 C 27 %
3618 27-10-2019 02:57:17 11.8 C 27 %
3619 27-10-2019 03:07:17 12 C 25 %
3620 27-10-2019 03:17:17 12.1 C 25 %
3621 27-10-2019 03:27:17 12.1 C 25 %
3622 27-10-2019 03:37:18 12.2 C 25 %
3623 27-10-2019 03:47:17 11.9 C 26 %
3624 27-10-2019 03:57:17 11.9 C 27 %
3625 27-10-2019 04:07:17 11.6 C 27 %
Sensor: Nr:Datum:Temp:Feuchte:
Aussen-T/F 3626 27-10-2019 04:07:17 11 C 32 %
3627 27-10-2019 04:17:17 11.7 C 28 %
3628 27-10-2019 04:17:17 11.2 C 31 %
3629 27-10-2019 04:27:17 11.4 C 29 %
3630 27-10-2019 04:27:17 11.2 C 30 %
3631 27-10-2019 04:37:17 11.2 C 30 %
3632 27-10-2019 04:37:17 11.5 C 30 %
3633 27-10-2019 04:47:17 10.9 C 31 %
3634 27-10-2019 04:47:18 12.1 C 25 %
3635 27-10-2019 04:57:18 11 C 33 %
3636 27-10-2019 04:57:18 12.5 C 22 %
3637 27-10-2019 05:07:17 12.1 C 25 %
3638 27-10-2019 05:17:17 13.2 C 20 %
3639 27-10-2019 05:27:17 13.2 C 20 %
3640 27-10-2019 05:37:17 13.4 C 20 %
3641 27-10-2019 05:47:17 13.3 C 20 %
3642 27-10-2019 05:57:18 14 C 20 %
3643 27-10-2019 06:07:17 14.7 C 20 %
3644 27-10-2019 06:17:18 14.6 C 20 %
3645 27-10-2019 06:27:18 14.4 C 20 %
3646 27-10-2019 06:37:17 14.5 C 20 %
3647 27-10-2019 06:47:17 14.3 C 20 %
3648 27-10-2019 06:57:17 14.6 C 20 %
3649 27-10-2019 07:07:17 14.5 C 20 %
3650 27-10-2019 07:17:17 14.1 C 20 %
Sensor: Nr:Datum:Temp:Feuchte:
Aussen-T/F 3651 27-10-2019 07:27:17 13.5 C 20 %
3652 27-10-2019 07:37:17 12.9 C 26 %
3653 27-10-2019 07:47:17 12.7 C 29 %
3654 27-10-2019 07:57:17 12.1 C 28 %
3655 27-10-2019 08:07:17 11.4 C 29 %
3656 27-10-2019 08:17:17 11.2 C 30 %
3657 27-10-2019 08:27:17 11.1 C 30 %
3658 27-10-2019 08:37:17 10.9 C 31 %
3659 27-10-2019 08:47:17 10.8 C 31 %
3660 27-10-2019 08:57:17 10.6 C 31 %
3661 27-10-2019 09:07:17 10.4 C 30 %
3662 27-10-2019 09:17:17 9.8 C 30 %
3663 27-10-2019 09:27:17 9.4 C 31 %
3664 27-10-2019 09:37:17 9.3 C 33 %
3665 27-10-2019 09:47:18 9.2 C 32 %
3666 27-10-2019 09:57:18 8.8 C 28 %
3667 27-10-2019 10:07:17 8.9 C 31 %
3668 27-10-2019 10:17:17 9 C 35 %
3669 27-10-2019 10:27:17 9.1 C 34 %
3670 27-10-2019 10:37:17 9 C 30 %
3671 27-10-2019 10:47:17 9.2 C 33 %
3672 27-10-2019 10:57:17 9.3 C 34 %
3673 27-10-2019 11:07:17 9.6 C 28 %
3674 27-10-2019 11:17:17 9.7 C 27 %
3675 27-10-2019 11:27:17 9.4 C 30 %
Sensor: Nr:Datum:Temp:Feuchte:
Aussen-T/F 3676 27-10-2019 11:37:17 9.5 C 29 %
3677 27-10-2019 11:47:17 9.5 C 30 %
3678 27-10-2019 11:57:17 9.6 C 28 %
3679 27-10-2019 12:07:17 9.6 C 30 %
3680 27-10-2019 12:17:17 9.3 C 28 %
3681 27-10-2019 12:27:17 9.3 C 31 %
3682 27-10-2019 12:37:17 9.2 C 29 %
3683 27-10-2019 12:47:17 9.1 C 28 %
3684 27-10-2019 12:57:17 9.2 C 29 %
3685 27-10-2019 13:07:17 9.3 C 29 %
3686 27-10-2019 13:17:17 9.3 C 29 %
3687 27-10-2019 13:27:17 9.2 C 30 %
3688 27-10-2019 13:37:17 9.1 C 31 %
3689 27-10-2019 13:47:17 9.1 C 32 %
3690 27-10-2019 13:57:17 9.2 C 30 %
3691 27-10-2019 14:07:17 9 C 28 %
3692 27-10-2019 14:17:17 8.8 C 30 %
3693 27-10-2019 14:27:17 8.7 C 34 %
3694 27-10-2019 14:37:18 8.7 C 34 %
3695 27-10-2019 14:47:17 8.7 C 35 %
3696 27-10-2019 14:57:17 8.7 C 35 %
3697 27-10-2019 15:07:17 8.7 C 31 %
3698 27-10-2019 15:17:17 8.7 C 32 %
3699 27-10-2019 15:27:17 8.7 C 33 %
3700 27-10-2019 15:37:17 8.7 C 35 %
Sensor: Nr:Datum:Temp:Feuchte:
Aussen-T/F 3701 27-10-2019 15:47:17 8.7 C 36 %
3702 27-10-2019 15:57:17 8.6 C 35 %
3703 27-10-2019 16:07:17 8.6 C 35 %
3704 27-10-2019 16:17:17 8.4 C 35 %
3705 27-10-2019 16:27:17 8.3 C 35 %
3706 27-10-2019 16:37:17 8.1 C 35 %
3707 27-10-2019 16:47:17 8.2 C 36 %
3708 27-10-2019 16:57:17 8.1 C 36 %
3709 27-10-2019 17:07:18 7.9 C 37 %
3710 27-10-2019 17:17:17 7.9 C 38 %
3711 27-10-2019 17:27:17 7.8 C 38 %
3712 27-10-2019 17:37:17 7.9 C 38 %
3713 27-10-2019 17:47:17 7.8 C 38 %
3714 27-10-2019 17:57:17 7.9 C 38 %
3715 27-10-2019 18:07:17 7.8 C 38 %
3716 27-10-2019 18:17:17 7.9 C 38 %
3717 27-10-2019 18:27:17 7.8 C 38 %
3718 27-10-2019 18:37:17 7.8 C 38 %
3719 27-10-2019 18:47:18 7.8 C 38 %
3720 27-10-2019 18:57:18 7.8 C 38 %
3721 27-10-2019 19:07:17 7.8 C 38 %
3722 27-10-2019 19:17:17 7.8 C 38 %
3723 27-10-2019 19:27:17 7.7 C 38 %
3724 27-10-2019 19:37:17 7.6 C 38 %
3725 27-10-2019 19:47:18 7.6 C 38 %
Sensor: Nr:Datum:Temp:Feuchte:
Aussen-T/F 3726 27-10-2019 19:57:18 7.6 C 38 %
3727 27-10-2019 20:07:17 7 C 38 %
3728 27-10-2019 20:17:17 6.7 C 38 %
3729 27-10-2019 20:27:17 6.6 C 38 %
3730 27-10-2019 20:37:17 6.5 C 39 %
3731 27-10-2019 20:48:17 6.3 C 38 %
3732 27-10-2019 20:58:17 6.1 C 38 %
3733 27-10-2019 21:07:18 6.3 C 39 %
3734 27-10-2019 21:17:17 6.2 C 39 %
3735 27-10-2019 21:27:17 6 C 38 %
3736 27-10-2019 21:37:17 6 C 38 %
3737 27-10-2019 21:48:17 5.6 C 39 %
3738 27-10-2019 21:58:17 5.3 C 38 %
3739 27-10-2019 22:07:18 5.2 C 38 %
3740 27-10-2019 22:18:17 4.7 C 39 %
3741 27-10-2019 22:28:17 4.7 C 39 %
3742 27-10-2019 22:38:17 4.6 C 39 %
3743 27-10-2019 22:47:17 4.5 C 39 %
3744 27-10-2019 22:57:18 4.2 C 39 %
3745 27-10-2019 23:07:17 4.3 C 39 %
3746 27-10-2019 23:17:17 4.1 C 39 %
3747 27-10-2019 23:27:17 3.9 C 40 %
3748 27-10-2019 23:37:17 4.5 C 40 %
3749 27-10-2019 23:48:17 4.5 C 40 %
3750 27-10-2019 23:58:17 4.6 C 40 %
Sensor: Nr:Datum:Temp:Feuchte:
Aussen-T/F 3751 28-10-2019 00:08:17 4.6 C 39 %
3752 28-10-2019 00:18:17 4.5 C 39 %
3753 28-10-2019 00:27:17 4.7 C 40 %
3754 28-10-2019 00:38:17 4.7 C 39 %
3755 28-10-2019 00:47:18 4.8 C 39 %
3756 28-10-2019 00:57:18 5 C 39 %
3757 28-10-2019 01:07:17 5 C 38 %
3758 28-10-2019 01:18:17 5.2 C 39 %
3759 28-10-2019 01:28:17 5.2 C 38 %
3760 28-10-2019 01:38:17 5.2 C 38 %
3761 28-10-2019 01:47:17 5.2 C 38 %
3762 28-10-2019 01:57:17 5.2 C 38 %
3763 28-10-2019 02:08:17 5.1 C 38 %
3764 28-10-2019 02:18:17 4.9 C 38 %
3765 28-10-2019 02:28:17 4.4 C 38 %
3766 28-10-2019 02:38:17 4.5 C 38 %
3767 28-10-2019 02:48:17 4.5 C 39 %
3768 28-10-2019 02:58:17 4.6 C 39 %
3769 28-10-2019 03:08:17 4.8 C 39 %
3770 28-10-2019 03:18:18 4.7 C 39 %
3771 28-10-2019 03:28:18 4.7 C 39 %
3772 28-10-2019 03:38:17 4.7 C 39 %
3773 28-10-2019 03:48:17 4.8 C 39 %
3774 28-10-2019 03:58:17 4.5 C 39 %
3775 28-10-2019 04:08:17 4.5 C 39 %
Sensor: Nr:Datum:Temp:Feuchte:
Aussen-T/F 3776 28-10-2019 04:18:18 4.5 C 39 %
3777 28-10-2019 04:28:18 4.5 C 39 %
3778 28-10-2019 04:38:17 4.5 C 39 %
3779 28-10-2019 04:48:17 4.5 C 39 %
3780 28-10-2019 04:58:17 4.5 C 39 %
3781 28-10-2019 05:08:17 4.4 C 39 %
3782 28-10-2019 05:18:17 4.4 C 39 %
3783 28-10-2019 05:28:17 4.5 C 39 %
3784 28-10-2019 05:38:17 4.4 C 39 %
3785 28-10-2019 05:48:17 4.5 C 39 %
3786 28-10-2019 05:58:17 4.6 C 39 %
3787 28-10-2019 06:08:17 4.5 C 39 %
3788 28-10-2019 06:18:17 4.3 C 38 %
3789 28-10-2019 06:28:17 4.3 C 38 %
3790 28-10-2019 06:38:17 4.3 C 38 %
3791 28-10-2019 06:48:17 4.5 C 38 %
3792 28-10-2019 06:58:17 4.4 C 38 %
3793 28-10-2019 07:08:17 4.6 C 39 %
3794 28-10-2019 07:18:17 4.7 C 39 %
3795 28-10-2019 07:28:17 4.6 C 39 %
3796 28-10-2019 07:38:17 4.6 C 39 %
3797 28-10-2019 07:48:17 4.6 C 39 %
3798 28-10-2019 07:58:17 5 C 38 %
3799 28-10-2019 08:08:17 5 C 38 %
3800 28-10-2019 08:18:17 5 C 38 %
Sensor: Nr:Datum:Temp:Feuchte:
Aussen-T/F 3801 28-10-2019 08:28:18 5.1 C 38 %
3802 28-10-2019 08:38:17 5.1 C 38 %
3803 28-10-2019 08:48:17 5.2 C 38 %
3804 28-10-2019 08:58:17 5.1 C 38 %
3805 28-10-2019 09:08:17 5.2 C 38 %
3806 28-10-2019 09:18:17 5.4 C 38 %
3807 28-10-2019 09:28:17 5.2 C 38 %
3808 28-10-2019 09:38:17 5.6 C 38 %
3809 28-10-2019 09:48:16 5.5 C 38 %
3810 28-10-2019 09:58:16 5.7 C 38 %
3811 28-10-2019 10:08:17 5.8 C 38 %
3812 28-10-2019 10:18:17 5.6 C 37 %
3813 28-10-2019 10:28:17 5.7 C 36 %
3814 28-10-2019 10:38:17 6 C 36 %
3815 28-10-2019 10:48:17 6 C 36 %
3816 28-10-2019 10:58:17 5.9 C 35 %
3817 28-10-2019 11:08:17 6.2 C 35 %
3818 28-10-2019 11:18:16 6.6 C 36 %
3819 28-10-2019 11:28:16 6.3 C 33 %
3820 28-10-2019 11:38:17 6.4 C 34 %
3821 28-10-2019 11:48:16 6.5 C 34 %
3822 28-10-2019 11:58:16 6.6 C 33 %
3823 28-10-2019 12:08:16 6.7 C 32 %
3824 28-10-2019 12:18:16 6.8 C 31 %
3825 28-10-2019 12:28:16 6.7 C 30 %
Sensor: Nr:Datum:Temp:Feuchte:
Aussen-T/F 3826 28-10-2019 12:38:16 6.8 C 30 %
3827 28-10-2019 12:48:17 6.5 C 30 %
3828 28-10-2019 12:58:17 6.7 C 30 %
3829 28-10-2019 13:08:17 6.9 C 30 %
3830 28-10-2019 13:18:16 7.1 C 30 %
3831 28-10-2019 13:28:16 7.3 C 28 %
3832 28-10-2019 13:38:17 7.5 C 27 %
3833 28-10-2019 13:48:16 7.8 C 26 %
3834 28-10-2019 13:58:16 8 C 28 %
3835 28-10-2019 14:08:17 7.8 C 26 %
3836 28-10-2019 14:18:17 7.6 C 25 %
3837 28-10-2019 14:28:18 7.5 C 25 %
3838 28-10-2019 14:38:17 8.1 C 21 %
3839 28-10-2019 14:48:16 8.1 C 20 %
3840 28-10-2019 14:58:16 8.1 C 20 %
3841 28-10-2019 15:08:16 8.2 C 20 %
3842 28-10-2019 15:18:16 8.1 C 20 %
3843 28-10-2019 15:28:16 8.2 C 20 %
3844 28-10-2019 15:38:17 7.8 C 25 %
3845 28-10-2019 15:48:16 7.8 C 26 %
3846 28-10-2019 15:58:16 7.8 C 25 %
3847 28-10-2019 16:08:16 7.3 C 28 %
3848 28-10-2019 16:18:16 7.1 C 30 %
3849 28-10-2019 16:28:16 6.9 C 32 %
3850 28-10-2019 16:38:16 6.8 C 33 %
Sensor: Nr:Datum:Temp:Feuchte:
Aussen-T/F 3851 28-10-2019 16:48:16 6.8 C 33 %
3852 28-10-2019 16:58:16 6.2 C 35 %
3853 28-10-2019 17:08:16 6.3 C 36 %
3854 28-10-2019 17:18:16 6.3 C 37 %
3855 28-10-2019 17:28:16 6.5 C 37 %
3856 28-10-2019 17:38:17 6.5 C 37 %
3857 28-10-2019 17:48:16 6.6 C 35 %
3858 28-10-2019 17:58:16 6.6 C 36 %
3859 28-10-2019 18:08:16 6.6 C 36 %
3860 28-10-2019 18:18:16 6.7 C 37 %
3861 28-10-2019 18:28:16 6.7 C 36 %
3862 28-10-2019 18:38:16 6.7 C 36 %
3863 28-10-2019 18:48:17 6.7 C 36 %
3864 28-10-2019 18:58:17 6.6 C 36 %
3865 28-10-2019 19:08:16 6.6 C 36 %
3866 28-10-2019 19:18:16 6.6 C 37 %
3867 28-10-2019 19:28:16 6.7 C 37 %
3868 28-10-2019 19:38:16 6.7 C 37 %
3869 28-10-2019 19:48:16 6.4 C 37 %
3870 28-10-2019 19:58:16 6.2 C 37 %
3871 28-10-2019 20:08:16 6.3 C 38 %
3872 28-10-2019 20:18:16 6.5 C 38 %
3873 28-10-2019 20:28:16 6.5 C 38 %
3874 28-10-2019 20:38:16 6.5 C 38 %
3875 28-10-2019 20:48:16 6.5 C 38 %
Sensor: Nr:Datum:Temp:Feuchte:
Aussen-T/F 3876 28-10-2019 20:58:17 6.5 C 37 %
3877 28-10-2019 21:08:16 6.3 C 37 %
3878 28-10-2019 21:18:16 6.3 C 37 %
3879 28-10-2019 21:28:16 6.3 C 37 %
3880 28-10-2019 21:38:16 6.3 C 37 %
3881 28-10-2019 21:48:16 6.3 C 37 %
3882 28-10-2019 21:58:16 6.3 C 37 %
3883 28-10-2019 22:08:16 6.4 C 37 %
3884 28-10-2019 22:18:16 6.3 C 37 %
3885 28-10-2019 22:28:16 6.4 C 36 %
3886 28-10-2019 22:38:16 6.4 C 35 %
3887 28-10-2019 22:48:16 6.4 C 35 %
3888 28-10-2019 22:58:17 6.3 C 34 %
3889 28-10-2019 23:08:16 6.3 C 33 %
3890 28-10-2019 23:18:16 6.3 C 33 %
3891 28-10-2019 23:28:16 6.3 C 33 %
3892 28-10-2019 23:38:16 6.2 C 32 %
3893 28-10-2019 23:48:15 6.3 C 33 %
3894 28-10-2019 23:58:15 6.3 C 33 %
3895 29-10-2019 00:08:16 6.3 C 33 %
3896 29-10-2019 00:18:16 6.3 C 33 %
3897 29-10-2019 00:28:16 6.2 C 32 %
3898 29-10-2019 00:38:16 6.2 C 33 %
3899 29-10-2019 00:48:15 6.2 C 32 %
3900 29-10-2019 00:58:15 6.1 C 32 %
Sensor: Nr:Datum:Temp:Feuchte:
Aussen-T/F 3901 29-10-2019 01:08:16 6 C 32 %
3902 29-10-2019 01:18:16 6 C 32 %
3903 29-10-2019 01:28:16 5.9 C 33 %
3904 29-10-2019 01:38:16 5.9 C 33 %
3905 29-10-2019 01:48:15 5.9 C 34 %
3906 29-10-2019 01:58:15 5.8 C 33 %
3907 29-10-2019 02:08:16 5.9 C 33 %
3908 29-10-2019 02:18:16 5.8 C 32 %
3909 29-10-2019 02:28:16 5.8 C 33 %
3910 29-10-2019 02:38:16 5.8 C 33 %
3911 29-10-2019 02:48:17 5.8 C 33 %
3912 29-10-2019 02:58:17 5.8 C 33 %
3913 29-10-2019 03:08:17 5.8 C 33 %
3914 29-10-2019 03:18:17 5.8 C 33 %
3915 29-10-2019 03:28:17 5.8 C 33 %
3916 29-10-2019 03:38:17 5.8 C 33 %
3917 29-10-2019 03:48:18 5.7 C 32 %
3918 29-10-2019 03:58:18 5.7 C 33 %
3919 29-10-2019 04:08:17 5.7 C 34 %
3920 29-10-2019 04:18:17 5.7 C 33 %
3921 29-10-2019 04:28:17 5.7 C 33 %
3922 29-10-2019 04:38:17 5.7 C 33 %
3923 29-10-2019 04:48:17 5.7 C 33 %
3924 29-10-2019 04:58:18 5.7 C 33 %
3925 29-10-2019 05:08:17 5.7 C 34 %
Sensor: Nr:Datum:Temp:Feuchte:
Aussen-T/F 3926 29-10-2019 05:18:17 5.8 C 33 %
3927 29-10-2019 05:28:17 5.7 C 32 %
3928 29-10-2019 05:38:17 5.7 C 32 %
3929 29-10-2019 05:48:18 5.7 C 32 %
3930 29-10-2019 05:58:18 5.7 C 32 %
3931 29-10-2019 06:08:17 5.7 C 32 %
3932 29-10-2019 06:18:17 5.7 C 32 %
3933 29-10-2019 06:28:18 5.6 C 32 %
3934 29-10-2019 06:38:17 5.5 C 32 %
3935 29-10-2019 06:48:17 5.5 C 32 %
3936 29-10-2019 06:58:17 5.5 C 32 %
3937 29-10-2019 07:08:18 5.5 C 32 %
3938 29-10-2019 07:18:17 5.5 C 32 %
3939 29-10-2019 07:28:17 5.4 C 32 %
3940 29-10-2019 07:38:17 5.4 C 33 %
3941 29-10-2019 07:48:17 5.4 C 33 %
3942 29-10-2019 07:58:17 5.5 C 33 %
3943 29-10-2019 08:08:18 5.7 C 33 %
3944 29-10-2019 08:18:17 6 C 31 %
3945 29-10-2019 08:28:17 6 C 28 %
3946 29-10-2019 08:38:17 6 C 28 %
3947 29-10-2019 08:48:17 6.2 C 27 %
3948 29-10-2019 08:58:17 6.3 C 26 %
3949 29-10-2019 09:08:18 6.3 C 26 %
3950 29-10-2019 09:18:17 6.3 C 26 %
Sensor: Nr:Datum:Temp:Feuchte:
Aussen-T/F 3951 29-10-2019 09:28:17 6.6 C 26 %
3952 29-10-2019 09:38:17 7.3 C 20 %
3953 29-10-2019 09:48:17 7.2 C 20 %
3954 29-10-2019 09:58:17 6.9 C 21 %
3955 29-10-2019 10:08:17 7.6 C 20 %
3956 29-10-2019 10:18:17 7.8 C 20 %
3957 29-10-2019 10:28:17 8.2 C 20 %
3958 29-10-2019 10:38:17 8.1 C 20 %
3959 29-10-2019 10:48:18 8.4 C 20 %
3960 29-10-2019 10:58:18 8.7 C 20 %
3961 29-10-2019 11:08:17 8.7 C 20 %
3962 29-10-2019 11:18:17 8.6 C 20 %
3963 29-10-2019 11:28:17 8.7 C 20 %
3964 29-10-2019 11:38:17 9 C 20 %
3965 29-10-2019 11:48:18 9.4 C 20 %
3966 29-10-2019 11:58:18 9.6 C 20 %
3967 29-10-2019 12:08:17 9.6 C 20 %
3968 29-10-2019 12:18:17 9.2 C 20 %
3969 29-10-2019 12:28:17 9.6 C 20 %
3970 29-10-2019 12:38:17 10 C 20 %
3971 29-10-2019 12:48:18 9.9 C 20 %
3972 29-10-2019 12:58:18 10.4 C 20 %
3973 29-10-2019 13:08:17 10.5 C 20 %
3974 29-10-2019 13:18:17 10.4 C 20 %
3975 29-10-2019 13:28:17 10.4 C 20 %
Sensor: Nr:Datum:Temp:Feuchte:
Aussen-T/F 3976 29-10-2019 13:38:17 10.4 C 20 %
3977 29-10-2019 13:48:18 10.7 C 20 %
3978 29-10-2019 13:58:18 10.3 C 20 %
3979 29-10-2019 14:08:17 10.1 C 20 %
3980 29-10-2019 14:18:17 10.5 C 20 %
3981 29-10-2019 14:28:17 10.8 C 20 %
3982 29-10-2019 14:38:17 11.6 C 20 %
3983 29-10-2019 14:48:17 11.1 C 20 %
3984 29-10-2019 14:58:18 10.5 C 20 %
3985 29-10-2019 15:08:17 9.4 C 20 %
3986 29-10-2019 15:18:17 9.1 C 20 %
3987 29-10-2019 15:28:17 8.5 C 20 %
3988 29-10-2019 15:38:17 8.2 C 20 %
3989 29-10-2019 15:48:17 9.2 C 20 %
3990 29-10-2019 15:58:18 11.7 C 20 %
3991 29-10-2019 16:08:17 11.3 C 20 %
3992 29-10-2019 16:18:17 9.5 C 20 %
3993 29-10-2019 16:28:17 10 C 20 %
3994 29-10-2019 16:38:17 9.8 C 20 %
3995 29-10-2019 16:48:17 8.9 C 20 %
3996 29-10-2019 16:58:17 7.6 C 20 %
3997 29-10-2019 17:08:18 7 C 20 %
3998 29-10-2019 17:18:17 6.3 C 25 %
3999 29-10-2019 17:28:17 6 C 26 %
4000 29-10-2019 17:38:17 5.9 C 25 %
Sensor: Nr:Datum:Temp:Feuchte:
Aussen-T/F 4001 29-10-2019 17:48:17 5.5 C 26 %
4002 29-10-2019 17:58:17 5.3 C 28 %
4003 29-10-2019 18:08:18 5.5 C 27 %
4004 29-10-2019 18:18:17 5.2 C 26 %
4005 29-10-2019 18:28:17 5.1 C 28 %
4006 29-10-2019 18:38:17 4.6 C 31 %
4007 29-10-2019 18:48:17 4.5 C 31 %
4008 29-10-2019 18:58:17 4.2 C 33 %
4009 29-10-2019 19:08:18 3.9 C 35 %
4010 29-10-2019 19:18:17 3.8 C 35 %
4011 29-10-2019 19:28:17 3.6 C 35 %
4012 29-10-2019 19:38:17 3.3 C 37 %
4013 29-10-2019 19:48:17 3.2 C 38 %
4014 29-10-2019 19:58:17 3.4 C 38 %
4015 29-10-2019 20:08:17 3.3 C 38 %
4016 29-10-2019 20:18:17 3.3 C 39 %
4017 29-10-2019 20:28:17 3.2 C 38 %
4018 29-10-2019 20:38:17 3.3 C 38 %
4019 29-10-2019 20:48:17 3 C 38 %
4020 29-10-2019 20:58:17 2.8 C 39 %
4021 29-10-2019 21:08:18 2.7 C 40 %
4022 29-10-2019 21:18:17 2.3 C 39 %
4023 29-10-2019 21:28:17 2.3 C 40 %
4024 29-10-2019 21:38:17 2.2 C 40 %
4025 29-10-2019 21:48:17 2.1 C 40 %
Sensor: Nr:Datum:Temp:Feuchte:
Aussen-T/F 4026 29-10-2019 21:58:17 2 C 40 %
4027 29-10-2019 22:08:18 2 C 40 %
4028 29-10-2019 22:18:17 1.8 C 41 %
4029 29-10-2019 22:28:18 1.7 C 41 %
4030 29-10-2019 22:38:17 1.7 C 41 %
4031 29-10-2019 22:48:17 1.7 C 41 %
4032 29-10-2019 22:58:17 1.7 C 41 %
4033 29-10-2019 23:08:17 1.7 C 41 %
4034 29-10-2019 23:18:17 1.8 C 41 %
4035 29-10-2019 23:28:17 1.6 C 41 %
4036 29-10-2019 23:38:17 1.5 C 41 %
4037 29-10-2019 23:48:17 1.4 C 41 %
4038 29-10-2019 23:58:17 1.3 C 41 %
4039 30-10-2019 00:08:17 1 C 41 %
4040 30-10-2019 00:18:17 1.4 C 42 %
4041 30-10-2019 00:28:17 1.3 C 42 %
4042 30-10-2019 00:38:17 1.1 C 41 %
4043 30-10-2019 00:48:18 1.5 C 42 %
4044 30-10-2019 00:58:18 1.5 C 42 %
4045 30-10-2019 01:08:17 1.4 C 42 %
4046 30-10-2019 01:18:17 1.3 C 41 %
4047 30-10-2019 01:28:17 1.3 C 41 %
4048 30-10-2019 01:38:17 1 C 41 %
4049 30-10-2019 01:48:17 0.5 C 41 %
4050 30-10-2019 01:58:17 1.2 C 42 %
Sensor: Nr:Datum:Temp:Feuchte:
Aussen-T/F 4051 30-10-2019 02:08:17 1.4 C 42 %
4052 30-10-2019 02:18:18 1.7 C 42 %
4053 30-10-2019 02:28:18 1.6 C 42 %
4054 30-10-2019 02:38:18 1.5 C 41 %
4055 30-10-2019 02:48:17 1.4 C 41 %
4056 30-10-2019 02:58:17 1.2 C 41 %
4057 30-10-2019 03:08:17 0.9 C 42 %
4058 30-10-2019 03:18:17 0.8 C 42 %
4059 30-10-2019 03:28:17 0.5 C 41 %
4060 30-10-2019 03:38:18 0.4 C 41 %
4061 30-10-2019 03:48:17 0.1 C 41 %
4062 30-10-2019 03:58:17 0.1 C 41 %
4063 30-10-2019 04:08:17 0.5 C 42 %
4064 30-10-2019 04:18:17 0.7 C 42 %
4065 30-10-2019 04:28:17 0.7 C 42 %
4066 30-10-2019 04:38:17 0.5 C 41 %
4067 30-10-2019 04:48:18 0.2 C 41 %
4068 30-10-2019 04:58:18 0.4 C 42 %
4069 30-10-2019 05:08:17 0.7 C 42 %
4070 30-10-2019 05:18:17 0.9 C 42 %
4071 30-10-2019 05:28:17 0.9 C 42 %
4072 30-10-2019 05:38:17 1 C 41 %
4073 30-10-2019 05:48:17 0.9 C 42 %
4074 30-10-2019 05:58:17 0.8 C 42 %
4075 30-10-2019 06:08:17 0.8 C 42 %
Sensor: Nr:Datum:Temp:Feuchte:
Aussen-T/F 4076 30-10-2019 06:18:17 0.5 C 42 %
4077 30-10-2019 06:28:17 0.4 C 42 %
4078 30-10-2019 06:38:17 0.5 C 42 %
4079 30-10-2019 06:48:17 0.5 C 42 %
4080 30-10-2019 06:58:18 0.6 C 42 %
4081 30-10-2019 07:08:17 0.6 C 42 %
4082 30-10-2019 07:18:17 0.6 C 42 %
4083 30-10-2019 07:28:17 0.7 C 42 %
4084 30-10-2019 07:38:17 1.2 C 41 %
4085 30-10-2019 07:48:17 1.2 C 41 %
4086 30-10-2019 07:58:17 1.2 C 41 %
4087 30-10-2019 08:08:18 1.2 C 41 %
4088 30-10-2019 08:18:17 1.1 C 41 %
4089 30-10-2019 08:28:17 1.1 C 41 %
4090 30-10-2019 08:38:17 1.5 C 41 %
4091 30-10-2019 08:48:17 1.3 C 41 %
4092 30-10-2019 08:58:17 1.7 C 41 %
4093 30-10-2019 09:08:18 2 C 40 %
4094 30-10-2019 09:18:17 2 C 40 %
4095 30-10-2019 09:28:17 1.6 C 41 %
4096 30-10-2019 09:38:17 2.1 C 40 %
4097 30-10-2019 09:48:17 2.3 C 40 %
4098 30-10-2019 09:58:17 2.7 C 40 %
4099 30-10-2019 10:08:18 3.3 C 39 %
4100 30-10-2019 10:18:17 4 C 37 %
Sensor: Nr:Datum:Temp:Feuchte:
Aussen-T/F 4101 30-10-2019 10:28:17 4 C 36 %
4102 30-10-2019 10:38:17 4.3 C 36 %
4103 30-10-2019 10:48:17 4.6 C 33 %
4104 30-10-2019 10:58:17 4.8 C 31 %
4105 30-10-2019 11:08:17 5.1 C 31 %
4106 30-10-2019 11:18:17 5.4 C 30 %
4107 30-10-2019 11:28:17 5.2 C 29 %
4108 30-10-2019 11:38:18 5.5 C 28 %
4109 30-10-2019 11:48:17 5.8 C 28 %
4110 30-10-2019 11:58:17 5.8 C 28 %
4111 30-10-2019 12:08:17 5.8 C 25 %
4112 30-10-2019 12:18:17 6.3 C 27 %
4113 30-10-2019 12:28:17 6.7 C 27 %
4114 30-10-2019 12:38:17 6.9 C 25 %
4115 30-10-2019 12:48:17 7 C 25 %
4116 30-10-2019 12:58:17 6.8 C 23 %
4117 30-10-2019 13:08:17 6.9 C 21 %
4118 30-10-2019 13:18:17 7.1 C 21 %
4119 30-10-2019 13:28:17 7.2 C 20 %
4120 30-10-2019 13:38:18 7.3 C 20 %
4121 30-10-2019 13:48:17 7.4 C 20 %
4122 30-10-2019 13:58:17 7.4 C 20 %
4123 30-10-2019 14:08:17 7.3 C 20 %
4124 30-10-2019 14:18:17 7.4 C 20 %
4125 30-10-2019 14:28:17 7.4 C 20 %
Sensor: Nr:Datum:Temp:Feuchte:
Aussen-T/F 4126 30-10-2019 14:38:17 7.6 C 20 %
4127 30-10-2019 14:48:17 7.5 C 20 %
4128 30-10-2019 14:58:17 7.5 C 20 %
4129 30-10-2019 15:08:18 7.6 C 20 %
4130 30-10-2019 15:18:17 7.6 C 20 %
4131 30-10-2019 15:28:17 7.4 C 20 %
4132 30-10-2019 15:38:17 7 C 20 %
4133 30-10-2019 15:48:17 6.8 C 20 %
4134 30-10-2019 15:58:17 6.7 C 21 %
4135 30-10-2019 16:08:17 6.5 C 20 %
4136 30-10-2019 16:18:17 6.4 C 21 %
4137 30-10-2019 16:28:17 6.2 C 21 %
4138 30-10-2019 16:38:17 6 C 23 %
4139 30-10-2019 16:48:17 5.8 C 23 %
4140 30-10-2019 16:58:17 5.6 C 23 %
4141 30-10-2019 17:08:18 5.4 C 21 %
4142 30-10-2019 17:18:17 5.1 C 25 %
4143 30-10-2019 17:28:17 4.9 C 25 %
4144 30-10-2019 17:38:17 4.7 C 25 %
4145 30-10-2019 17:48:17 4.3 C 25 %
4146 30-10-2019 17:58:17 4.2 C 25 %
4147 30-10-2019 18:08:17 4 C 26 %
4148 30-10-2019 18:18:17 3.8 C 26 %
4149 30-10-2019 18:28:17 3.7 C 28 %
4150 30-10-2019 18:38:17 3.3 C 28 %
Sensor: Nr:Datum:Temp:Feuchte:
Aussen-T/F 4151 30-10-2019 18:48:17 3.3 C 28 %
4152 30-10-2019 18:58:17 3.1 C 30 %
4153 30-10-2019 19:08:17 2.9 C 31 %
4154 30-10-2019 19:18:17 2.9 C 31 %
4155 30-10-2019 19:28:17 2.6 C 31 %
4156 30-10-2019 19:38:18 2.4 C 32 %
4157 30-10-2019 19:48:17 2.3 C 36 %
4158 30-10-2019 19:58:17 2.2 C 36 %
4159 30-10-2019 20:08:17 2.5 C 36 %
4160 30-10-2019 20:18:17 2.3 C 35 %
4161 30-10-2019 20:28:17 2.4 C 36 %
4162 30-10-2019 20:38:17 2 C 35 %
4163 30-10-2019 20:48:18 1.6 C 37 %
4164 30-10-2019 20:58:18 1.6 C 39 %
4165 30-10-2019 21:08:17 1.6 C 39 %
4166 30-10-2019 21:18:17 1.4 C 39 %
4167 30-10-2019 21:28:17 1.3 C 40 %
4168 30-10-2019 21:38:17 1.8 C 41 %
4169 30-10-2019 21:48:17 1.5 C 39 %
4170 30-10-2019 21:58:17 1.2 C 39 %
4171 30-10-2019 22:08:18 1 C 40 %
4172 30-10-2019 22:18:17 0.8 C 40 %
4173 30-10-2019 22:28:18 1 C 41 %
4174 30-10-2019 22:38:17 0.8 C 41 %
4175 30-10-2019 22:48:17 0.7 C 41 %
Sensor: Nr:Datum:Temp:Feuchte:
Aussen-T/F 4176 30-10-2019 22:58:17 0.9 C 42 %
4177 30-10-2019 23:08:18 0.8 C 42 %
4178 30-10-2019 23:18:17 0.6 C 42 %
4179 30-10-2019 23:28:17 0.4 C 41 %
4180 30-10-2019 23:38:17 0.4 C 41 %
4181 30-10-2019 23:48:17 0.1 C 41 %
4182 30-10-2019 23:58:17 0 C 41 %
4183 31-10-2019 00:08:17 -0.2 C 41 %
4184 31-10-2019 00:18:17 -0.3 C 41 %
4185 31-10-2019 00:28:17 -0.4 C 41 %
4186 31-10-2019 00:38:18 -0.3 C 42 %
4187 31-10-2019 00:48:17 -0.3 C 42 %
4188 31-10-2019 00:58:17 -0.4 C 42 %
4189 31-10-2019 01:08:17 -0.2 C 42 %
4190 31-10-2019 01:18:17 -0.2 C 42 %
4191 31-10-2019 01:28:17 -0.5 C 41 %
4192 31-10-2019 01:38:17 -0.3 C 42 %
4193 31-10-2019 01:48:18 -0.4 C 42 %
4194 31-10-2019 01:58:18 -0.6 C 41 %
4195 31-10-2019 02:08:17 -0.6 C 41 %
4196 31-10-2019 02:18:17 -0.8 C 41 %
4197 31-10-2019 02:28:17 -0.7 C 42 %
4198 31-10-2019 02:38:17 -0.9 C 41 %
4199 31-10-2019 02:48:17 -0.9 C 41 %
4200 31-10-2019 02:58:17 -1 C 41 %
Sensor: Nr:Datum:Temp:Feuchte:
Aussen-T/F 4201 31-10-2019 03:08:17 -0.9 C 42 %
4202 31-10-2019 03:18:17 -0.9 C 41 %
4203 31-10-2019 03:28:17 -1.2 C 41 %
4204 31-10-2019 03:38:17 -1.1 C 41 %
4205 31-10-2019 03:48:18 -0.7 C 42 %
4206 31-10-2019 03:58:18 -1 C 41 %
4207 31-10-2019 04:08:17 -0.9 C 42 %
4208 31-10-2019 04:18:17 -1.2 C 41 %
4209 31-10-2019 04:28:17 -1.2 C 41 %
4210 31-10-2019 04:38:18 -1 C 42 %
4211 31-10-2019 04:48:17 -1.4 C 41 %
4212 31-10-2019 04:58:17 -1.5 C 41 %
4213 31-10-2019 05:08:17 -1.3 C 41 %
4214 31-10-2019 05:18:17 -1.4 C 41 %
4215 31-10-2019 05:28:17 -1.4 C 41 %
4216 31-10-2019 05:38:17 -1.6 C 41 %
4217 31-10-2019 05:48:17 -1.7 C 41 %
4218 31-10-2019 05:58:17 -1.7 C 41 %
4219 31-10-2019 06:08:18 -1.5 C 41 %
4220 31-10-2019 06:18:17 -1.6 C 41 %
4221 31-10-2019 06:28:17 -1.8 C 41 %
4222 31-10-2019 06:38:17 -1.8 C 41 %
4223 31-10-2019 06:48:17 -1.9 C 41 %
4224 31-10-2019 06:58:17 -2.1 C 41 %
4225 31-10-2019 07:08:17 -1.9 C 41 %
Sensor: Nr:Datum:Temp:Feuchte:
Aussen-T/F 4226 31-10-2019 07:18:17 -2 C 41 %
4227 31-10-2019 07:28:17 -1.9 C 41 %
4228 31-10-2019 07:38:17 -2 C 41 %
4229 31-10-2019 07:48:17 -2 C 41 %
4230 31-10-2019 07:58:17 -1.9 C 41 %
4231 31-10-2019 08:08:17 -2 C 41 %
4232 31-10-2019 08:18:17 -1.6 C 41 %
4233 31-10-2019 08:28:17 -1.5 C 41 %
4234 31-10-2019 08:38:17 -1.1 C 42 %
4235 31-10-2019 08:48:17 -1.3 C 41 %
4236 31-10-2019 08:58:17 -1.2 C 41 %
4237 31-10-2019 09:08:17 -0.8 C 41 %
4238 31-10-2019 09:18:17 -0.8 C 41 %
4239 31-10-2019 09:28:17 -0.7 C 41 %
4240 31-10-2019 09:38:17 -0.5 C 41 %
4241 31-10-2019 09:48:17 -0.5 C 41 %
4242 31-10-2019 09:58:17 -0.3 C 41 %
4243 31-10-2019 10:08:17 -0.2 C 41 %
4244 31-10-2019 10:18:17 0.2 C 41 %
4245 31-10-2019 10:28:17 0.3 C 41 %
4246 31-10-2019 10:38:17 0.7 C 41 %
4247 31-10-2019 10:48:18 1.7 C 41 %
4248 31-10-2019 10:58:18 1.7 C 39 %
4249 31-10-2019 11:08:17 1.9 C 38 %
4250 31-10-2019 11:18:17 2.2 C 37 %
Sensor: Nr:Datum:Temp:Feuchte:
Aussen-T/F 4251 31-10-2019 11:28:17 2.4 C 36 %
4252 31-10-2019 11:38:17 2.7 C 36 %
4253 31-10-2019 11:48:17 3.1 C 33 %
4254 31-10-2019 11:58:17 3.2 C 32 %
4255 31-10-2019 12:08:17 3.4 C 32 %
4256 31-10-2019 12:18:17 3.6 C 32 %
4257 31-10-2019 12:28:17 4.2 C 30 %
4258 31-10-2019 12:38:17 5.4 C 26 %
4259 31-10-2019 12:48:18 7.6 C 20 %
4260 31-10-2019 12:58:18 9.7 C 20 %
4261 31-10-2019 13:08:17 8.3 C 20 %
4262 31-10-2019 13:18:17 6.8 C 20 %
4263 31-10-2019 13:28:17 6.5 C 20 %
4264 31-10-2019 13:38:17 6 C 20 %
4265 31-10-2019 13:48:17 6.4 C 20 %
4266 31-10-2019 13:58:17 6 C 20 %
4267 31-10-2019 14:08:18 6 C 20 %
4268 31-10-2019 14:18:17 6.8 C 20 %
4269 31-10-2019 14:28:17 7.5 C 20 %
4270 31-10-2019 14:38:17 7.1 C 20 %
4271 31-10-2019 14:48:17 7.6 C 20 %
4272 31-10-2019 14:58:17 7.6 C 20 %
4273 31-10-2019 15:08:17 7.4 C 20 %
4274 31-10-2019 15:18:17 7 C 20 %
4275 31-10-2019 15:28:17 7.3 C 20 %
Sensor: Nr:Datum:Temp:Feuchte:
Aussen-T/F 4276 31-10-2019 15:38:18 7.8 C 20 %
4277 31-10-2019 15:48:17 7.7 C 20 %
4278 31-10-2019 15:58:17 7.9 C 20 %
4279 31-10-2019 16:08:17 7.6 C 20 %
4280 31-10-2019 16:18:17 7.4 C 20 %
4281 31-10-2019 16:28:17 6.1 C 20 %
4282 31-10-2019 16:38:17 5.7 C 20 %
4283 31-10-2019 16:48:17 4.8 C 21 %
4284 31-10-2019 16:58:17 4.5 C 21 %
4285 31-10-2019 17:08:17 4.1 C 23 %
4286 31-10-2019 17:18:17 3.8 C 26 %
4287 31-10-2019 17:28:17 3.6 C 26 %
4288 31-10-2019 17:38:18 3.2 C 26 %
4289 31-10-2019 17:48:17 2.9 C 27 %
4290 31-10-2019 17:58:17 2.8 C 27 %
4291 31-10-2019 18:08:17 2.5 C 29 %
4292 31-10-2019 18:18:17 2.2 C 28 %
4293 31-10-2019 18:28:17 2.2 C 29 %
4294 31-10-2019 18:38:18 2.2 C 29 %
4295 31-10-2019 18:48:17 2.1 C 30 %
4296 31-10-2019 18:58:17 1.9 C 30 %
4297 31-10-2019 19:08:17 2.1 C 30 %
4298 31-10-2019 19:18:17 1.7 C 31 %
4299 31-10-2019 19:28:17 1.8 C 32 %
4300 31-10-2019 19:38:17 1.6 C 31 %
Sensor: Nr:Datum:Temp:Feuchte:
Aussen-T/F 4301 31-10-2019 19:48:18 1.4 C 32 %
4302 31-10-2019 19:58:18 1.3 C 33 %
4303 31-10-2019 20:08:17 1 C 34 %
4304 31-10-2019 20:18:17 1 C 35 %
4305 31-10-2019 20:28:17 0.8 C 36 %
4306 31-10-2019 20:38:17 0.8 C 36 %
4307 31-10-2019 20:48:18 0.7 C 37 %
4308 31-10-2019 20:58:18 0.6 C 38 %
4309 31-10-2019 21:08:17 0.5 C 38 %
4310 31-10-2019 21:18:17 0.5 C 38 %
4311 31-10-2019 21:28:17 0.3 C 38 %
4312 31-10-2019 21:38:17 0.2 C 39 %
4313 31-10-2019 21:48:18 0.4 C 40 %
4314 31-10-2019 21:58:18 0.5 C 40 %
4315 31-10-2019 22:08:17 0.5 C 40 %
4316 31-10-2019 22:18:17 0.4 C 40 %
4317 31-10-2019 22:28:17 0.1 C 39 %
4318 31-10-2019 22:38:17 0 C 39 %
4319 31-10-2019 22:48:17 0.1 C 40 %
4320 31-10-2019 22:58:17 0.1 C 40 %
4321 31-10-2019 23:08:17 0.4 C 41 %
4322 31-10-2019 23:18:17 0.4 C 40 %
4323 31-10-2019 23:28:17 0 C 38 %
4324 31-10-2019 23:38:17 0 C 40 %
4325 31-10-2019 23:48:17 0 C 40 %
Sensor: Nr:Datum:Temp:Feuchte:
Aussen-T/F 4326 31-10-2019 23:58:17 -0.2 C 40 %
4327 01-11-2019 00:08:18 -0.4 C 40 %
4328 01-11-2019 00:18:17 -0.5 C 40 %
4329 01-11-2019 00:28:17 -0.5 C 41 %
4330 01-11-2019 00:38:17 -0.4 C 41 %
4331 01-11-2019 00:48:18 -0.6 C 41 %
4332 01-11-2019 00:58:18 -0.6 C 42 %
4333 01-11-2019 01:08:18 -0.7 C 41 %
4334 01-11-2019 01:18:17 -0.6 C 41 %
4335 01-11-2019 01:28:17 -0.6 C 41 %
4336 01-11-2019 01:38:17 -0.7 C 41 %
4337 01-11-2019 01:48:17 -0.7 C 41 %
4338 01-11-2019 01:58:17 -0.7 C 41 %
4339 01-11-2019 02:08:17 -0.7 C 41 %
4340 01-11-2019 02:18:17 -0.6 C 41 %
4341 01-11-2019 02:28:17 -0.7 C 41 %
4342 01-11-2019 02:38:17 -0.6 C 42 %
4343 01-11-2019 02:48:18 -0.6 C 42 %
4344 01-11-2019 02:58:18 -0.6 C 42 %
4345 01-11-2019 03:08:17 -0.7 C 41 %
4346 01-11-2019 03:18:17 -0.7 C 41 %
4347 01-11-2019 03:28:17 -0.7 C 41 %
4348 01-11-2019 03:38:17 -0.7 C 41 %
4349 01-11-2019 03:48:17 -0.7 C 42 %
4350 01-11-2019 03:58:17 -0.2 C 42 %
Sensor: Nr:Datum:Temp:Feuchte:
Aussen-T/F 4351 01-11-2019 04:08:17 0 C 42 %
4352 01-11-2019 04:18:17 0.3 C 42 %
4353 01-11-2019 04:28:17 0.5 C 43 %
4354 01-11-2019 04:38:17 0.8 C 43 %
4355 01-11-2019 04:48:17 1 C 41 %
4356 01-11-2019 04:58:17 1.2 C 41 %
4357 01-11-2019 05:08:17 1.5 C 41 %
4358 01-11-2019 05:18:17 1.6 C 41 %
4359 01-11-2019 05:28:17 1.7 C 41 %
4360 01-11-2019 05:38:17 1.9 C 40 %
4361 01-11-2019 05:48:17 2 C 39 %
4362 01-11-2019 05:58:17 2.1 C 39 %
4363 01-11-2019 06:08:17 2.3 C 38 %
4364 01-11-2019 06:18:17 2.3 C 36 %
4365 01-11-2019 06:28:17 2.4 C 36 %
4366 01-11-2019 06:38:18 2.5 C 37 %
4367 01-11-2019 06:48:17 2.5 C 37 %
4368 01-11-2019 06:58:17 2.7 C 37 %
4369 01-11-2019 07:08:17 2.7 C 37 %
4370 01-11-2019 07:18:17 2.8 C 37 %
4371 01-11-2019 07:28:17 3 C 36 %
4372 01-11-2019 07:38:17 3.2 C 37 %
4373 01-11-2019 07:48:17 3.3 C 37 %
4374 01-11-2019 07:58:17 3.4 C 37 %
4375 01-11-2019 08:08:18 3.5 C 38 %
Sensor: Nr:Datum:Temp:Feuchte:
Aussen-T/F 4376 01-11-2019 08:18:17 3.6 C 39 %
4377 01-11-2019 08:28:17 3.8 C 40 %
4378 01-11-2019 08:38:17 4.1 C 40 %
4379 01-11-2019 08:48:17 4.3 C 40 %
4380 01-11-2019 08:58:17 4.5 C 39 %
4381 01-11-2019 09:08:18 4.7 C 40 %
4382 01-11-2019 09:18:17 4.8 C 40 %
4383 01-11-2019 09:28:17 4.9 C 38 %
4384 01-11-2019 09:38:17 5.2 C 37 %
4385 01-11-2019 09:48:17 5.5 C 39 %
4386 01-11-2019 09:58:17 5.6 C 37 %
4387 01-11-2019 10:08:17 5.8 C 33 %
4388 01-11-2019 10:18:17 6.3 C 32 %
4389 01-11-2019 10:28:17 6.5 C 32 %
4390 01-11-2019 10:38:18 6.9 C 33 %
4391 01-11-2019 10:48:17 7.3 C 31 %
4392 01-11-2019 10:58:17 7.4 C 30 %
4393 01-11-2019 11:08:17 7.4 C 26 %
4394 01-11-2019 11:18:17 7.3 C 26 %
4395 01-11-2019 11:28:17 7.2 C 26 %
4396 01-11-2019 11:38:17 7.6 C 26 %
4397 01-11-2019 11:48:17 7.9 C 25 %
4398 01-11-2019 11:58:17 8 C 26 %
4399 01-11-2019 12:08:17 8.1 C 26 %
4400 01-11-2019 12:18:17 8.5 C 26 %
Sensor: Nr:Datum:Temp:Feuchte:
Aussen-T/F 4401 01-11-2019 12:28:17 8.1 C 25 %
4402 01-11-2019 12:38:17 8 C 25 %
4403 01-11-2019 12:48:17 8 C 25 %
4404 01-11-2019 12:58:17 7.8 C 26 %
4405 01-11-2019 13:08:18 7.9 C 26 %
4406 01-11-2019 13:18:17 8.3 C 27 %
4407 01-11-2019 13:28:17 8.3 C 26 %
4408 01-11-2019 13:38:17 8.1 C 27 %
4409 01-11-2019 13:48:17 7.9 C 30 %
4410 01-11-2019 13:58:17 7.9 C 30 %
4411 01-11-2019 14:08:17 8 C 31 %
4412 01-11-2019 14:18:17 8 C 31 %
4413 01-11-2019 14:28:17 8.1 C 32 %
4414 01-11-2019 14:38:17 8.1 C 33 %
4415 01-11-2019 14:48:17 8.1 C 33 %
4416 01-11-2019 14:58:17 8.1 C 33 %
4417 01-11-2019 15:08:18 8.1 C 34 %
4418 01-11-2019 15:18:17 8 C 35 %
4419 01-11-2019 15:28:17 8 C 35 %
4420 01-11-2019 15:38:17 8 C 36 %
4421 01-11-2019 15:48:17 8 C 36 %
4422 01-11-2019 15:58:17 8.1 C 36 %
4423 01-11-2019 16:08:18 8 C 36 %
4424 01-11-2019 16:18:17 8.1 C 38 %
4425 01-11-2019 16:28:17 8.1 C 38 %
Sensor: Nr:Datum:Temp:Feuchte:
Aussen-T/F 4426 01-11-2019 16:38:17 8.1 C 38 %
4427 01-11-2019 16:48:17 8.1 C 38 %
4428 01-11-2019 16:58:17 8.1 C 38 %
4429 01-11-2019 17:08:17 8 C 39 %
4430 01-11-2019 17:18:17 8.2 C 39 %
4431 01-11-2019 17:28:17 8.1 C 39 %
4432 01-11-2019 17:38:17 8.1 C 38 %
4433 01-11-2019 17:48:17 8.1 C 38 %
4434 01-11-2019 17:58:17 8.2 C 38 %
4435 01-11-2019 18:08:17 8.2 C 38 %
4436 01-11-2019 18:18:17 8.1 C 38 %
4437 01-11-2019 18:28:17 8.1 C 38 %
4438 01-11-2019 18:38:17 8.1 C 38 %
4439 01-11-2019 18:48:17 8.1 C 38 %
4440 01-11-2019 18:58:17 8.1 C 39 %
4441 01-11-2019 19:08:17 8.1 C 39 %
4442 01-11-2019 19:18:17 8.2 C 39 %
4443 01-11-2019 19:28:17 8.2 C 39 %
4444 01-11-2019 19:38:17 8.3 C 39 %
4445 01-11-2019 19:48:17 8.3 C 38 %
4446 01-11-2019 19:58:17 8.3 C 38 %
4447 01-11-2019 20:08:17 8.4 C 38 %
4448 01-11-2019 20:18:17 8.4 C 38 %
4449 01-11-2019 20:28:17 8.5 C 38 %
4450 01-11-2019 20:38:17 8.6 C 38 %
Sensor: Nr:Datum:Temp:Feuchte:
Aussen-T/F 4451 01-11-2019 20:48:17 8.6 C 38 %
4452 01-11-2019 20:58:18 8.9 C 38 %
4453 01-11-2019 21:08:17 8.9 C 38 %
4454 01-11-2019 21:18:17 8.9 C 38 %
4455 01-11-2019 21:28:17 9 C 38 %
4456 01-11-2019 21:38:17 9.1 C 38 %
4457 01-11-2019 21:48:17 9.2 C 38 %
4458 01-11-2019 21:58:17 9.2 C 38 %
4459 01-11-2019 22:08:17 9.4 C 38 %
4460 01-11-2019 22:18:17 9.5 C 38 %
4461 01-11-2019 22:28:17 9.7 C 38 %
4462 01-11-2019 22:38:17 9.5 C 38 %
4463 01-11-2019 22:48:17 9.7 C 38 %
4464 01-11-2019 22:58:17 9.7 C 38 %
4465 01-11-2019 23:08:17 9.7 C 38 %
4466 01-11-2019 23:18:17 9.8 C 38 %
4467 01-11-2019 23:28:17 9.9 C 38 %
4468 01-11-2019 23:38:17 9.9 C 38 %
4469 01-11-2019 23:48:17 9.9 C 38 %
4470 01-11-2019 23:58:17 10 C 37 %
4471 02-11-2019 00:08:17 10.4 C 37 %
4472 02-11-2019 00:18:17 10.7 C 37 %
4473 02-11-2019 00:28:17 10.8 C 37 %
4474 02-11-2019 00:38:17 10.8 C 37 %
4475 02-11-2019 00:48:17 10.8 C 37 %
Sensor: Nr:Datum:Temp:Feuchte:
Aussen-T/F 4476 02-11-2019 00:58:17 11 C 36 %
4477 02-11-2019 01:08:17 11.3 C 36 %
4478 02-11-2019 01:18:17 11.4 C 36 %
4479 02-11-2019 01:28:17 11.4 C 36 %
4480 02-11-2019 01:38:17 11.4 C 36 %
4481 02-11-2019 01:48:17 11.4 C 36 %
4482 02-11-2019 01:58:17 11.3 C 36 %
4483 02-11-2019 02:08:17 11.4 C 36 %
4484 02-11-2019 02:18:17 11.3 C 36 %
4485 02-11-2019 02:28:17 11.3 C 36 %
4486 02-11-2019 02:38:17 11.3 C 36 %
4487 02-11-2019 02:48:17 11.6 C 36 %
4488 02-11-2019 02:58:17 11.6 C 36 %
4489 02-11-2019 03:08:17 11.3 C 36 %
4490 02-11-2019 03:18:17 11.7 C 36 %
4491 02-11-2019 03:28:17 12 C 36 %
4492 02-11-2019 03:38:17 11.6 C 36 %
4493 02-11-2019 03:48:17 11.4 C 35 %
4494 02-11-2019 03:58:17 11.3 C 35 %
4495 02-11-2019 04:08:17 11.5 C 35 %
4496 02-11-2019 04:18:17 11.3 C 36 %
4497 02-11-2019 04:28:17 11.6 C 36 %
4498 02-11-2019 04:38:17 11.7 C 36 %
4499 02-11-2019 04:48:17 11.5 C 36 %
4500 02-11-2019 04:58:17 12 C 36 %
Sensor: Nr:Datum:Temp:Feuchte:
Aussen-T/F 4501 02-11-2019 05:08:17 11.9 C 36 %
4502 02-11-2019 05:18:17 12 C 36 %
4503 02-11-2019 05:28:17 12.1 C 36 %
4504 02-11-2019 05:38:17 12.1 C 36 %
4505 02-11-2019 05:48:17 12.1 C 36 %
4506 02-11-2019 05:58:17 12.1 C 36 %
4507 02-11-2019 06:08:18 12.3 C 36 %
4508 02-11-2019 06:18:17 12.4 C 36 %
4509 02-11-2019 06:28:17 12.5 C 36 %
4510 02-11-2019 06:38:17 12.8 C 38 %
4511 02-11-2019 06:48:17 13.4 C 36 %
4512 02-11-2019 06:58:17 13.1 C 34 %
4513 02-11-2019 07:08:17 12.8 C 34 %
4514 02-11-2019 07:18:17 12.8 C 34 %
4515 02-11-2019 07:28:17 12.8 C 34 %
4516 02-11-2019 07:38:18 13 C 34 %
4517 02-11-2019 07:48:17 13.1 C 34 %
4518 02-11-2019 07:58:17 13.2 C 34 %
4519 02-11-2019 08:08:17 13.2 C 33 %
4520 02-11-2019 08:18:17 13.2 C 33 %
4521 02-11-2019 08:28:17 13.4 C 34 %
4522 02-11-2019 08:38:17 13.4 C 34 %
4523 02-11-2019 08:48:18 13.4 C 33 %
4524 02-11-2019 08:58:18 13.6 C 33 %
4525 02-11-2019 09:08:17 14.1 C 32 %
Sensor: Nr:Datum:Temp:Feuchte:
Aussen-T/F 4526 02-11-2019 09:18:17 14.2 C 31 %
4527 02-11-2019 09:28:17 14.7 C 25 %
4528 02-11-2019 09:38:17 15 C 21 %
4529 02-11-2019 09:48:18 15.6 C 20 %
4530 02-11-2019 09:58:18 15 C 20 %
4531 02-11-2019 10:08:17 15 C 21 %
4532 02-11-2019 10:18:17 15 C 21 %
4533 02-11-2019 10:28:17 15 C 21 %
4534 02-11-2019 10:38:17 14.3 C 25 %
4535 02-11-2019 10:48:17 15.1 C 21 %
4536 02-11-2019 10:58:17 15.6 C 20 %
4537 02-11-2019 11:08:17 15.7 C 20 %
4538 02-11-2019 11:18:17 15.7 C 20 %
4539 02-11-2019 11:28:17 16 C 20 %
4540 02-11-2019 11:38:17 16.2 C 20 %
4541 02-11-2019 11:48:17 16.2 C 20 %
4542 02-11-2019 11:58:17 16.3 C 20 %
4543 02-11-2019 12:08:17 16.5 C 20 %
4544 02-11-2019 12:18:17 16.6 C 20 %
4545 02-11-2019 12:28:17 16.3 C 20 %
4546 02-11-2019 12:38:17 16.4 C 20 %
4547 02-11-2019 12:48:17 16.6 C 20 %
4548 02-11-2019 12:58:17 16.6 C 20 %
4549 02-11-2019 13:08:17 16.2 C 20 %
4550 02-11-2019 13:18:17 16.6 C 20 %
Sensor: Nr:Datum:Temp:Feuchte:
Aussen-T/F 4551 02-11-2019 13:28:17 16.4 C 20 %
4552 02-11-2019 13:38:17 16.2 C 20 %
4553 02-11-2019 13:48:18 16.1 C 20 %
4554 02-11-2019 13:58:18 16.1 C 20 %
4555 02-11-2019 14:08:17 16.2 C 20 %
4556 02-11-2019 14:18:17 16.6 C 20 %
4557 02-11-2019 14:28:17 16.4 C 20 %
4558 02-11-2019 14:38:17 16.1 C 20 %
4559 02-11-2019 14:48:18 16.1 C 20 %
4560 02-11-2019 14:58:18 15.6 C 20 %
4561 02-11-2019 15:08:17 15.3 C 20 %
4562 02-11-2019 15:18:17 15 C 20 %
4563 02-11-2019 15:28:17 14.8 C 20 %
4564 02-11-2019 15:38:17 14.5 C 20 %
4565 02-11-2019 15:48:17 14.5 C 20 %
4566 02-11-2019 15:58:17 14.5 C 20 %
4567 02-11-2019 16:08:17 14.3 C 20 %
4568 02-11-2019 16:18:17 14.4 C 20 %
4569 02-11-2019 16:28:17 14.5 C 20 %
4570 02-11-2019 16:38:17 14.3 C 20 %
4571 02-11-2019 16:48:17 14.7 C 20 %
4572 02-11-2019 16:58:17 14.3 C 20 %
4573 02-11-2019 17:08:17 14.6 C 20 %
4574 02-11-2019 17:18:17 14.1 C 20 %
4575 02-11-2019 17:28:17 12.2 C 20 %
Sensor: Nr:Datum:Temp:Feuchte:
Aussen-T/F 4576 02-11-2019 17:38:17 11.7 C 27 %
4577 02-11-2019 17:48:17 11.6 C 25 %
4578 02-11-2019 17:58:18 11.5 C 25 %
4579 02-11-2019 18:08:17 11.3 C 26 %
4580 02-11-2019 18:18:17 11 C 27 %
4581 02-11-2019 18:28:17 10.7 C 28 %
4582 02-11-2019 18:38:17 10.7 C 30 %
4583 02-11-2019 18:48:17 10.7 C 30 %
4584 02-11-2019 18:58:17 10.7 C 30 %
4585 02-11-2019 19:08:17 10.6 C 30 %
4586 02-11-2019 19:18:17 10.8 C 30 %
4587 02-11-2019 19:28:17 11 C 29 %
4588 02-11-2019 19:38:17 11 C 26 %
4589 02-11-2019 19:48:17 10.7 C 28 %
4590 02-11-2019 19:58:17 10.7 C 30 %
4591 02-11-2019 20:08:18 10.5 C 29 %
4592 02-11-2019 20:18:17 10.7 C 27 %
4593 02-11-2019 20:28:17 10.7 C 27 %
4594 02-11-2019 20:38:17 10.8 C 26 %
4595 02-11-2019 20:48:17 11.1 C 25 %
4596 02-11-2019 20:58:17 10.6 C 26 %
4597 02-11-2019 21:08:18 10.7 C 25 %
4598 02-11-2019 21:18:18 10.7 C 23 %
4599 02-11-2019 21:28:18 10.5 C 23 %
4600 02-11-2019 21:38:17 10.4 C 22 %
Sensor: Nr:Datum:Temp:Feuchte:
Aussen-T/F 4601 02-11-2019 21:48:17 10.5 C 23 %
4602 02-11-2019 21:58:17 10.2 C 25 %
4603 02-11-2019 22:08:17 10.2 C 25 %
4604 02-11-2019 22:18:17 10.5 C 22 %
4605 02-11-2019 22:28:17 10.4 C 22 %
4606 02-11-2019 22:38:17 10.1 C 25 %
4607 02-11-2019 22:48:18 10.1 C 23 %
4608 02-11-2019 22:58:18 9.8 C 26 %
4609 02-11-2019 23:08:17 9.6 C 27 %
4610 02-11-2019 23:18:17 9.6 C 27 %
4611 02-11-2019 23:28:17 9.8 C 26 %
4612 02-11-2019 23:38:17 10.6 C 20 %
4613 02-11-2019 23:48:17 10.9 C 20 %
4614 02-11-2019 23:58:17 10.2 C 20 %
4615 03-11-2019 00:08:17 9.8 C 21 %
4616 03-11-2019 00:18:18 9.6 C 25 %
4617 03-11-2019 00:28:18 9.6 C 25 %
4618 03-11-2019 00:38:17 9.2 C 26 %
4619 03-11-2019 00:48:17 9.3 C 26 %
4620 03-11-2019 00:58:17 9.3 C 26 %
4621 03-11-2019 01:08:17 9.7 C 26 %
4622 03-11-2019 01:18:17 9.8 C 25 %
4623 03-11-2019 01:28:17 9.9 C 25 %
4624 03-11-2019 01:38:17 10 C 25 %
4625 03-11-2019 01:48:17 9.7 C 26 %
Sensor: Nr:Datum:Temp:Feuchte:
Aussen-T/F 4626 03-11-2019 01:58:17 9.7 C 26 %
4627 03-11-2019 02:08:17 9.3 C 27 %
4628 03-11-2019 02:18:17 9.3 C 27 %
4629 03-11-2019 02:28:17 8.9 C 30 %
4630 03-11-2019 02:38:17 9 C 30 %
4631 03-11-2019 02:48:17 9.2 C 30 %
4632 03-11-2019 02:58:17 9.2 C 30 %
4633 03-11-2019 03:08:17 9 C 33 %
4634 03-11-2019 03:18:17 9.2 C 31 %
4635 03-11-2019 03:28:17 9.2 C 31 %
4636 03-11-2019 03:38:17 9.1 C 33 %
4637 03-11-2019 03:48:18 9.2 C 35 %
4638 03-11-2019 03:58:18 9.3 C 34 %
4639 03-11-2019 04:08:17 9.5 C 32 %
4640 03-11-2019 04:18:17 9.5 C 33 %
4641 03-11-2019 04:28:17 9.4 C 35 %
4642 03-11-2019 04:38:17 9.4 C 36 %
4643 03-11-2019 04:48:17 9.3 C 36 %
4644 03-11-2019 04:58:17 9.3 C 36 %
4645 03-11-2019 05:08:18 9.4 C 37 %
4646 03-11-2019 05:18:17 9.4 C 36 %
4647 03-11-2019 05:28:17 9.4 C 36 %
4648 03-11-2019 05:38:17 9.4 C 37 %
4649 03-11-2019 05:48:18 9.4 C 37 %
4650 03-11-2019 05:58:18 9.5 C 37 %
Sensor: Nr:Datum:Temp:Feuchte:
Aussen-T/F 4651 03-11-2019 06:08:17 9.5 C 37 %
4652 03-11-2019 06:18:17 9.6 C 37 %
4653 03-11-2019 06:28:17 9.7 C 36 %
4654 03-11-2019 06:38:17 9.7 C 36 %
4655 03-11-2019 06:48:17 9.6 C 36 %
4656 03-11-2019 06:58:18 9.7 C 36 %
4657 03-11-2019 07:08:17 9.7 C 36 %
4658 03-11-2019 07:18:17 9.6 C 36 %
4659 03-11-2019 07:28:17 9.5 C 38 %
4660 03-11-2019 07:38:17 9.6 C 38 %
4661 03-11-2019 07:48:17 9.4 C 37 %
4662 03-11-2019 07:58:17 9.3 C 37 %
4663